<?xml version="1.0" encoding="UTF-8" standalone="no" ?>
<gpx xmlns="http://www.topografix.com/GPX/1/1" xmlns:xsi="http://www.w3.org/2001/XMLSchema-instance" xsi:schemaLocation="http://www.topografix.com/GPX/1/1 http://www.topografix.com/GPX/1/1/gpx.xsd" version="1.1" creator="VisuGPX - https://www.visugpx.com">
  <metadata>
    <name>Marche Nordique 29/09/2012 08h-10h</name>
    <desc><![CDATA[Sortie du Samedi matin autour de la combe à la serpent]]></desc>
  </metadata>
  <trk>
    <name><![CDATA[29/09/12 07:57]]></name>
    <desc><![CDATA[]]></desc>
    <trkseg>
      <trkpt lat="47.32181" lon="4.98219">
        <ele>331</ele>
        <time>2012-09-29T05:59:21Z</time>
      </trkpt>
      <trkpt lat="47.32174" lon="4.98218">
        <ele>330</ele>
        <time>2012-09-29T05:59:22Z</time>
      </trkpt>
      <trkpt lat="47.32168" lon="4.98222">
        <ele>325</ele>
        <time>2012-09-29T05:59:23Z</time>
      </trkpt>
      <trkpt lat="47.32163" lon="4.98231">
        <ele>327</ele>
        <time>2012-09-29T05:59:25Z</time>
      </trkpt>
      <trkpt lat="47.32166" lon="4.98225">
        <ele>332</ele>
        <time>2012-09-29T05:59:59Z</time>
      </trkpt>
      <trkpt lat="47.32157" lon="4.98232">
        <ele>339</ele>
        <time>2012-09-29T06:00:13Z</time>
      </trkpt>
      <trkpt lat="47.32159" lon="4.98226">
        <ele>337</ele>
        <time>2012-09-29T06:00:14Z</time>
      </trkpt>
      <trkpt lat="47.32164" lon="4.9823">
        <ele>327</ele>
        <time>2012-09-29T06:00:18Z</time>
      </trkpt>
      <trkpt lat="47.32162" lon="4.98236">
        <ele>320</ele>
        <time>2012-09-29T06:00:41Z</time>
      </trkpt>
      <trkpt lat="47.32162" lon="4.98236">
        <ele>320</ele>
        <time>2012-09-29T06:00:41Z</time>
      </trkpt>
      <trkpt lat="47.32162" lon="4.98236">
        <ele>320</ele>
        <time>2012-09-29T06:00:42Z</time>
      </trkpt>
      <trkpt lat="47.32161" lon="4.98229">
        <ele>320</ele>
        <time>2012-09-29T06:00:46Z</time>
      </trkpt>
      <trkpt lat="47.32161" lon="4.98229">
        <ele>320</ele>
        <time>2012-09-29T06:00:46Z</time>
      </trkpt>
      <trkpt lat="47.32161" lon="4.98229">
        <ele>319</ele>
        <time>2012-09-29T06:00:47Z</time>
      </trkpt>
      <trkpt lat="47.32155" lon="4.98227">
        <ele>325</ele>
        <time>2012-09-29T06:02:08Z</time>
      </trkpt>
      <trkpt lat="47.3215" lon="4.98227">
        <ele>329</ele>
        <time>2012-09-29T06:02:15Z</time>
      </trkpt>
      <trkpt lat="47.32145" lon="4.98224">
        <ele>329</ele>
        <time>2012-09-29T06:02:21Z</time>
      </trkpt>
      <trkpt lat="47.3214" lon="4.9822">
        <ele>329</ele>
        <time>2012-09-29T06:02:26Z</time>
      </trkpt>
      <trkpt lat="47.32136" lon="4.98217">
        <ele>331</ele>
        <time>2012-09-29T06:02:32Z</time>
      </trkpt>
      <trkpt lat="47.32131" lon="4.98214">
        <ele>332</ele>
        <time>2012-09-29T06:02:38Z</time>
      </trkpt>
      <trkpt lat="47.32127" lon="4.98209">
        <ele>332</ele>
        <time>2012-09-29T06:02:42Z</time>
      </trkpt>
      <trkpt lat="47.32124" lon="4.98204">
        <ele>333</ele>
        <time>2012-09-29T06:02:48Z</time>
      </trkpt>
      <trkpt lat="47.3212" lon="4.98198">
        <ele>333</ele>
        <time>2012-09-29T06:02:52Z</time>
      </trkpt>
      <trkpt lat="47.3212" lon="4.9819">
        <ele>333</ele>
        <time>2012-09-29T06:02:55Z</time>
      </trkpt>
      <trkpt lat="47.32114" lon="4.98186">
        <ele>331</ele>
        <time>2012-09-29T06:03:00Z</time>
      </trkpt>
      <trkpt lat="47.32109" lon="4.98185">
        <ele>331</ele>
        <time>2012-09-29T06:03:04Z</time>
      </trkpt>
      <trkpt lat="47.32106" lon="4.98176">
        <ele>333</ele>
        <time>2012-09-29T06:03:09Z</time>
      </trkpt>
      <trkpt lat="47.32106" lon="4.98167">
        <ele>332</ele>
        <time>2012-09-29T06:03:12Z</time>
      </trkpt>
      <trkpt lat="47.32105" lon="4.98159">
        <ele>330</ele>
        <time>2012-09-29T06:03:15Z</time>
      </trkpt>
      <trkpt lat="47.32105" lon="4.98151">
        <ele>330</ele>
        <time>2012-09-29T06:03:22Z</time>
      </trkpt>
      <trkpt lat="47.32101" lon="4.98148">
        <ele>329</ele>
        <time>2012-09-29T06:03:31Z</time>
      </trkpt>
      <trkpt lat="47.32101" lon="4.98148">
        <ele>329</ele>
        <time>2012-09-29T06:03:31Z</time>
      </trkpt>
      <trkpt lat="47.32101" lon="4.98148">
        <ele>330</ele>
        <time>2012-09-29T06:10:28Z</time>
      </trkpt>
      <trkpt lat="47.32097" lon="4.98142">
        <ele>328</ele>
        <time>2012-09-29T06:11:39Z</time>
      </trkpt>
      <trkpt lat="47.32094" lon="4.98137">
        <ele>328</ele>
        <time>2012-09-29T06:11:43Z</time>
      </trkpt>
      <trkpt lat="47.32091" lon="4.98131">
        <ele>329</ele>
        <time>2012-09-29T06:11:48Z</time>
      </trkpt>
      <trkpt lat="47.32087" lon="4.98124">
        <ele>330</ele>
        <time>2012-09-29T06:11:52Z</time>
      </trkpt>
      <trkpt lat="47.32083" lon="4.98119">
        <ele>330</ele>
        <time>2012-09-29T06:11:57Z</time>
      </trkpt>
      <trkpt lat="47.32078" lon="4.98116">
        <ele>330</ele>
        <time>2012-09-29T06:12:01Z</time>
      </trkpt>
      <trkpt lat="47.32074" lon="4.9811">
        <ele>333</ele>
        <time>2012-09-29T06:12:07Z</time>
      </trkpt>
      <trkpt lat="47.32071" lon="4.98102">
        <ele>332</ele>
        <time>2012-09-29T06:12:11Z</time>
      </trkpt>
      <trkpt lat="47.32067" lon="4.98096">
        <ele>332</ele>
        <time>2012-09-29T06:12:15Z</time>
      </trkpt>
      <trkpt lat="47.32064" lon="4.98089">
        <ele>332</ele>
        <time>2012-09-29T06:12:18Z</time>
      </trkpt>
      <trkpt lat="47.32064" lon="4.98082">
        <ele>332</ele>
        <time>2012-09-29T06:12:20Z</time>
      </trkpt>
      <trkpt lat="47.3206" lon="4.98075">
        <ele>333</ele>
        <time>2012-09-29T06:12:24Z</time>
      </trkpt>
      <trkpt lat="47.32058" lon="4.98068">
        <ele>332</ele>
        <time>2012-09-29T06:12:27Z</time>
      </trkpt>
      <trkpt lat="47.32056" lon="4.98062">
        <ele>331</ele>
        <time>2012-09-29T06:12:30Z</time>
      </trkpt>
      <trkpt lat="47.32052" lon="4.98057">
        <ele>331</ele>
        <time>2012-09-29T06:12:35Z</time>
      </trkpt>
      <trkpt lat="47.3205" lon="4.9805">
        <ele>330</ele>
        <time>2012-09-29T06:12:38Z</time>
      </trkpt>
      <trkpt lat="47.32049" lon="4.98043">
        <ele>330</ele>
        <time>2012-09-29T06:12:41Z</time>
      </trkpt>
      <trkpt lat="47.32047" lon="4.98036">
        <ele>331</ele>
        <time>2012-09-29T06:12:44Z</time>
      </trkpt>
      <trkpt lat="47.32043" lon="4.98032">
        <ele>331</ele>
        <time>2012-09-29T06:12:49Z</time>
      </trkpt>
      <trkpt lat="47.32039" lon="4.98026">
        <ele>332</ele>
        <time>2012-09-29T06:12:53Z</time>
      </trkpt>
      <trkpt lat="47.32036" lon="4.98017">
        <ele>331</ele>
        <time>2012-09-29T06:12:57Z</time>
      </trkpt>
      <trkpt lat="47.32036" lon="4.98008">
        <ele>331</ele>
        <time>2012-09-29T06:13:00Z</time>
      </trkpt>
      <trkpt lat="47.32034" lon="4.97998">
        <ele>332</ele>
        <time>2012-09-29T06:13:03Z</time>
      </trkpt>
      <trkpt lat="47.32031" lon="4.97992">
        <ele>331</ele>
        <time>2012-09-29T06:13:07Z</time>
      </trkpt>
      <trkpt lat="47.32029" lon="4.97985">
        <ele>332</ele>
        <time>2012-09-29T06:13:11Z</time>
      </trkpt>
      <trkpt lat="47.32027" lon="4.97978">
        <ele>332</ele>
        <time>2012-09-29T06:13:15Z</time>
      </trkpt>
      <trkpt lat="47.32024" lon="4.97971">
        <ele>332</ele>
        <time>2012-09-29T06:13:19Z</time>
      </trkpt>
      <trkpt lat="47.32022" lon="4.97966">
        <ele>334</ele>
        <time>2012-09-29T06:13:22Z</time>
      </trkpt>
      <trkpt lat="47.32023" lon="4.97958">
        <ele>334</ele>
        <time>2012-09-29T06:13:23Z</time>
      </trkpt>
      <trkpt lat="47.32019" lon="4.97953">
        <ele>334</ele>
        <time>2012-09-29T06:13:27Z</time>
      </trkpt>
      <trkpt lat="47.32015" lon="4.97947">
        <ele>334</ele>
        <time>2012-09-29T06:13:30Z</time>
      </trkpt>
      <trkpt lat="47.32011" lon="4.97939">
        <ele>334</ele>
        <time>2012-09-29T06:13:34Z</time>
      </trkpt>
      <trkpt lat="47.32013" lon="4.9793">
        <ele>334</ele>
        <time>2012-09-29T06:13:37Z</time>
      </trkpt>
      <trkpt lat="47.32008" lon="4.97928">
        <ele>335</ele>
        <time>2012-09-29T06:13:40Z</time>
      </trkpt>
      <trkpt lat="47.32004" lon="4.97921">
        <ele>334</ele>
        <time>2012-09-29T06:13:44Z</time>
      </trkpt>
      <trkpt lat="47.32001" lon="4.97914">
        <ele>333</ele>
        <time>2012-09-29T06:13:48Z</time>
      </trkpt>
      <trkpt lat="47.31999" lon="4.97906">
        <ele>334</ele>
        <time>2012-09-29T06:13:52Z</time>
      </trkpt>
      <trkpt lat="47.31998" lon="4.97897">
        <ele>336</ele>
        <time>2012-09-29T06:13:56Z</time>
      </trkpt>
      <trkpt lat="47.31998" lon="4.97889">
        <ele>335</ele>
        <time>2012-09-29T06:13:59Z</time>
      </trkpt>
      <trkpt lat="47.31997" lon="4.97881">
        <ele>334</ele>
        <time>2012-09-29T06:14:02Z</time>
      </trkpt>
      <trkpt lat="47.31997" lon="4.97872">
        <ele>332</ele>
        <time>2012-09-29T06:14:06Z</time>
      </trkpt>
      <trkpt lat="47.32" lon="4.97867">
        <ele>335</ele>
        <time>2012-09-29T06:14:09Z</time>
      </trkpt>
      <trkpt lat="47.32004" lon="4.9786">
        <ele>337</ele>
        <time>2012-09-29T06:14:15Z</time>
      </trkpt>
      <trkpt lat="47.32004" lon="4.97853">
        <ele>341</ele>
        <time>2012-09-29T06:14:21Z</time>
      </trkpt>
      <trkpt lat="47.32006" lon="4.97847">
        <ele>342</ele>
        <time>2012-09-29T06:14:25Z</time>
      </trkpt>
      <trkpt lat="47.32009" lon="4.97841">
        <ele>343</ele>
        <time>2012-09-29T06:14:30Z</time>
      </trkpt>
      <trkpt lat="47.32012" lon="4.97834">
        <ele>343</ele>
        <time>2012-09-29T06:14:35Z</time>
      </trkpt>
      <trkpt lat="47.32014" lon="4.97826">
        <ele>343</ele>
        <time>2012-09-29T06:14:39Z</time>
      </trkpt>
      <trkpt lat="47.32016" lon="4.97821">
        <ele>345</ele>
        <time>2012-09-29T06:14:43Z</time>
      </trkpt>
      <trkpt lat="47.32018" lon="4.97814">
        <ele>344</ele>
        <time>2012-09-29T06:14:46Z</time>
      </trkpt>
      <trkpt lat="47.32022" lon="4.97807">
        <ele>348</ele>
        <time>2012-09-29T06:14:51Z</time>
      </trkpt>
      <trkpt lat="47.32023" lon="4.978">
        <ele>350</ele>
        <time>2012-09-29T06:14:56Z</time>
      </trkpt>
      <trkpt lat="47.32025" lon="4.97793">
        <ele>351</ele>
        <time>2012-09-29T06:15:03Z</time>
      </trkpt>
      <trkpt lat="47.32026" lon="4.97786">
        <ele>353</ele>
        <time>2012-09-29T06:15:08Z</time>
      </trkpt>
      <trkpt lat="47.32028" lon="4.9778">
        <ele>354</ele>
        <time>2012-09-29T06:15:13Z</time>
      </trkpt>
      <trkpt lat="47.3203" lon="4.97774">
        <ele>355</ele>
        <time>2012-09-29T06:15:17Z</time>
      </trkpt>
      <trkpt lat="47.32032" lon="4.97768">
        <ele>356</ele>
        <time>2012-09-29T06:15:25Z</time>
      </trkpt>
      <trkpt lat="47.32034" lon="4.9776">
        <ele>357</ele>
        <time>2012-09-29T06:15:30Z</time>
      </trkpt>
      <trkpt lat="47.32036" lon="4.97752">
        <ele>358</ele>
        <time>2012-09-29T06:15:34Z</time>
      </trkpt>
      <trkpt lat="47.32038" lon="4.97746">
        <ele>359</ele>
        <time>2012-09-29T06:15:38Z</time>
      </trkpt>
      <trkpt lat="47.3204" lon="4.97738">
        <ele>361</ele>
        <time>2012-09-29T06:15:43Z</time>
      </trkpt>
      <trkpt lat="47.32042" lon="4.97732">
        <ele>361</ele>
        <time>2012-09-29T06:15:47Z</time>
      </trkpt>
      <trkpt lat="47.32044" lon="4.97725">
        <ele>362</ele>
        <time>2012-09-29T06:15:52Z</time>
      </trkpt>
      <trkpt lat="47.32046" lon="4.97719">
        <ele>363</ele>
        <time>2012-09-29T06:15:57Z</time>
      </trkpt>
      <trkpt lat="47.32048" lon="4.97712">
        <ele>365</ele>
        <time>2012-09-29T06:16:02Z</time>
      </trkpt>
      <trkpt lat="47.3205" lon="4.97706">
        <ele>366</ele>
        <time>2012-09-29T06:16:07Z</time>
      </trkpt>
      <trkpt lat="47.32053" lon="4.977">
        <ele>367</ele>
        <time>2012-09-29T06:16:13Z</time>
      </trkpt>
      <trkpt lat="47.32055" lon="4.97694">
        <ele>368</ele>
        <time>2012-09-29T06:16:20Z</time>
      </trkpt>
      <trkpt lat="47.32058" lon="4.97689">
        <ele>370</ele>
        <time>2012-09-29T06:16:27Z</time>
      </trkpt>
      <trkpt lat="47.32058" lon="4.97682">
        <ele>372</ele>
        <time>2012-09-29T06:16:33Z</time>
      </trkpt>
      <trkpt lat="47.3206" lon="4.97676">
        <ele>374</ele>
        <time>2012-09-29T06:16:38Z</time>
      </trkpt>
      <trkpt lat="47.32063" lon="4.97669">
        <ele>377</ele>
        <time>2012-09-29T06:16:46Z</time>
      </trkpt>
      <trkpt lat="47.32066" lon="4.97664">
        <ele>378</ele>
        <time>2012-09-29T06:16:52Z</time>
      </trkpt>
      <trkpt lat="47.32068" lon="4.97658">
        <ele>379</ele>
        <time>2012-09-29T06:16:57Z</time>
      </trkpt>
      <trkpt lat="47.32069" lon="4.9765">
        <ele>381</ele>
        <time>2012-09-29T06:17:04Z</time>
      </trkpt>
      <trkpt lat="47.3207" lon="4.97642">
        <ele>382</ele>
        <time>2012-09-29T06:17:09Z</time>
      </trkpt>
      <trkpt lat="47.32072" lon="4.97637">
        <ele>383</ele>
        <time>2012-09-29T06:17:14Z</time>
      </trkpt>
      <trkpt lat="47.32075" lon="4.97631">
        <ele>383</ele>
        <time>2012-09-29T06:17:20Z</time>
      </trkpt>
      <trkpt lat="47.32076" lon="4.97624">
        <ele>385</ele>
        <time>2012-09-29T06:17:25Z</time>
      </trkpt>
      <trkpt lat="47.3208" lon="4.97617">
        <ele>386</ele>
        <time>2012-09-29T06:17:31Z</time>
      </trkpt>
      <trkpt lat="47.32082" lon="4.97611">
        <ele>388</ele>
        <time>2012-09-29T06:17:37Z</time>
      </trkpt>
      <trkpt lat="47.32083" lon="4.97604">
        <ele>390</ele>
        <time>2012-09-29T06:17:41Z</time>
      </trkpt>
      <trkpt lat="47.32085" lon="4.97598">
        <ele>392</ele>
        <time>2012-09-29T06:17:47Z</time>
      </trkpt>
      <trkpt lat="47.32087" lon="4.97592">
        <ele>396</ele>
        <time>2012-09-29T06:17:54Z</time>
      </trkpt>
      <trkpt lat="47.32089" lon="4.97585">
        <ele>396</ele>
        <time>2012-09-29T06:17:59Z</time>
      </trkpt>
      <trkpt lat="47.32092" lon="4.97579">
        <ele>398</ele>
        <time>2012-09-29T06:18:11Z</time>
      </trkpt>
      <trkpt lat="47.32093" lon="4.97572">
        <ele>399</ele>
        <time>2012-09-29T06:21:49Z</time>
      </trkpt>
      <trkpt lat="47.32094" lon="4.97565">
        <ele>400</ele>
        <time>2012-09-29T06:21:55Z</time>
      </trkpt>
      <trkpt lat="47.32096" lon="4.97558">
        <ele>401</ele>
        <time>2012-09-29T06:22:00Z</time>
      </trkpt>
      <trkpt lat="47.32098" lon="4.97552">
        <ele>400</ele>
        <time>2012-09-29T06:22:04Z</time>
      </trkpt>
      <trkpt lat="47.32101" lon="4.97545">
        <ele>400</ele>
        <time>2012-09-29T06:22:08Z</time>
      </trkpt>
      <trkpt lat="47.32103" lon="4.97539">
        <ele>400</ele>
        <time>2012-09-29T06:22:12Z</time>
      </trkpt>
      <trkpt lat="47.32105" lon="4.97533">
        <ele>401</ele>
        <time>2012-09-29T06:22:17Z</time>
      </trkpt>
      <trkpt lat="47.32105" lon="4.97524">
        <ele>403</ele>
        <time>2012-09-29T06:22:20Z</time>
      </trkpt>
      <trkpt lat="47.32103" lon="4.97516">
        <ele>407</ele>
        <time>2012-09-29T06:22:24Z</time>
      </trkpt>
      <trkpt lat="47.32104" lon="4.97509">
        <ele>408</ele>
        <time>2012-09-29T06:22:30Z</time>
      </trkpt>
      <trkpt lat="47.32106" lon="4.97501">
        <ele>409</ele>
        <time>2012-09-29T06:22:34Z</time>
      </trkpt>
      <trkpt lat="47.32109" lon="4.97494">
        <ele>411</ele>
        <time>2012-09-29T06:22:37Z</time>
      </trkpt>
      <trkpt lat="47.32113" lon="4.97489">
        <ele>412</ele>
        <time>2012-09-29T06:22:41Z</time>
      </trkpt>
      <trkpt lat="47.32114" lon="4.97482">
        <ele>413</ele>
        <time>2012-09-29T06:22:44Z</time>
      </trkpt>
      <trkpt lat="47.32116" lon="4.97475">
        <ele>414</ele>
        <time>2012-09-29T06:22:48Z</time>
      </trkpt>
      <trkpt lat="47.3212" lon="4.97473">
        <ele>413</ele>
        <time>2012-09-29T06:22:51Z</time>
      </trkpt>
      <trkpt lat="47.32123" lon="4.97467">
        <ele>413</ele>
        <time>2012-09-29T06:22:54Z</time>
      </trkpt>
      <trkpt lat="47.32127" lon="4.97464">
        <ele>412</ele>
        <time>2012-09-29T06:22:56Z</time>
      </trkpt>
      <trkpt lat="47.3213" lon="4.97457">
        <ele>413</ele>
        <time>2012-09-29T06:22:59Z</time>
      </trkpt>
      <trkpt lat="47.32132" lon="4.97451">
        <ele>409</ele>
        <time>2012-09-29T06:23:02Z</time>
      </trkpt>
      <trkpt lat="47.32133" lon="4.97443">
        <ele>409</ele>
        <time>2012-09-29T06:23:05Z</time>
      </trkpt>
      <trkpt lat="47.32132" lon="4.97436">
        <ele>408</ele>
        <time>2012-09-29T06:23:10Z</time>
      </trkpt>
      <trkpt lat="47.32135" lon="4.9743">
        <ele>410</ele>
        <time>2012-09-29T06:23:13Z</time>
      </trkpt>
      <trkpt lat="47.3214" lon="4.97429">
        <ele>411</ele>
        <time>2012-09-29T06:23:19Z</time>
      </trkpt>
      <trkpt lat="47.32145" lon="4.97431">
        <ele>411</ele>
        <time>2012-09-29T06:23:25Z</time>
      </trkpt>
      <trkpt lat="47.3215" lon="4.97431">
        <ele>410</ele>
        <time>2012-09-29T06:23:35Z</time>
      </trkpt>
      <trkpt lat="47.3215" lon="4.97431">
        <ele>410</ele>
        <time>2012-09-29T06:23:35Z</time>
      </trkpt>
      <trkpt lat="47.3215" lon="4.97431">
        <ele>410</ele>
        <time>2012-09-29T06:23:39Z</time>
      </trkpt>
      <trkpt lat="47.32151" lon="4.97438">
        <ele>409</ele>
        <time>2012-09-29T06:24:13Z</time>
      </trkpt>
      <trkpt lat="47.3215" lon="4.97445">
        <ele>411</ele>
        <time>2012-09-29T06:24:19Z</time>
      </trkpt>
      <trkpt lat="47.3215" lon="4.97453">
        <ele>411</ele>
        <time>2012-09-29T06:24:26Z</time>
      </trkpt>
      <trkpt lat="47.32152" lon="4.97459">
        <ele>410</ele>
        <time>2012-09-29T06:24:33Z</time>
      </trkpt>
      <trkpt lat="47.32154" lon="4.97465">
        <ele>411</ele>
        <time>2012-09-29T06:24:39Z</time>
      </trkpt>
      <trkpt lat="47.32159" lon="4.97467">
        <ele>413</ele>
        <time>2012-09-29T06:24:44Z</time>
      </trkpt>
      <trkpt lat="47.32163" lon="4.97472">
        <ele>415</ele>
        <time>2012-09-29T06:24:51Z</time>
      </trkpt>
      <trkpt lat="47.32167" lon="4.97476">
        <ele>415</ele>
        <time>2012-09-29T06:24:57Z</time>
      </trkpt>
      <trkpt lat="47.32171" lon="4.9748">
        <ele>415</ele>
        <time>2012-09-29T06:25:03Z</time>
      </trkpt>
      <trkpt lat="47.32172" lon="4.97489">
        <ele>416</ele>
        <time>2012-09-29T06:25:07Z</time>
      </trkpt>
      <trkpt lat="47.32174" lon="4.97496">
        <ele>416</ele>
        <time>2012-09-29T06:25:10Z</time>
      </trkpt>
      <trkpt lat="47.32175" lon="4.97502">
        <ele>416</ele>
        <time>2012-09-29T06:25:13Z</time>
      </trkpt>
      <trkpt lat="47.32178" lon="4.97509">
        <ele>416</ele>
        <time>2012-09-29T06:25:18Z</time>
      </trkpt>
      <trkpt lat="47.32181" lon="4.97514">
        <ele>417</ele>
        <time>2012-09-29T06:25:21Z</time>
      </trkpt>
      <trkpt lat="47.32187" lon="4.97516">
        <ele>418</ele>
        <time>2012-09-29T06:25:25Z</time>
      </trkpt>
      <trkpt lat="47.32192" lon="4.97519">
        <ele>419</ele>
        <time>2012-09-29T06:25:29Z</time>
      </trkpt>
      <trkpt lat="47.32194" lon="4.97526">
        <ele>419</ele>
        <time>2012-09-29T06:25:33Z</time>
      </trkpt>
      <trkpt lat="47.32194" lon="4.97534">
        <ele>418</ele>
        <time>2012-09-29T06:25:37Z</time>
      </trkpt>
      <trkpt lat="47.32196" lon="4.97542">
        <ele>419</ele>
        <time>2012-09-29T06:25:41Z</time>
      </trkpt>
      <trkpt lat="47.32197" lon="4.97549">
        <ele>420</ele>
        <time>2012-09-29T06:25:45Z</time>
      </trkpt>
      <trkpt lat="47.322" lon="4.97556">
        <ele>422</ele>
        <time>2012-09-29T06:25:48Z</time>
      </trkpt>
      <trkpt lat="47.322" lon="4.97564">
        <ele>423</ele>
        <time>2012-09-29T06:25:53Z</time>
      </trkpt>
      <trkpt lat="47.32201" lon="4.97571">
        <ele>424</ele>
        <time>2012-09-29T06:25:57Z</time>
      </trkpt>
      <trkpt lat="47.32202" lon="4.97578">
        <ele>423</ele>
        <time>2012-09-29T06:26:00Z</time>
      </trkpt>
      <trkpt lat="47.32205" lon="4.97586">
        <ele>424</ele>
        <time>2012-09-29T06:26:04Z</time>
      </trkpt>
      <trkpt lat="47.32206" lon="4.97593">
        <ele>424</ele>
        <time>2012-09-29T06:26:07Z</time>
      </trkpt>
      <trkpt lat="47.32208" lon="4.97601">
        <ele>424</ele>
        <time>2012-09-29T06:26:10Z</time>
      </trkpt>
      <trkpt lat="47.3221" lon="4.97609">
        <ele>426</ele>
        <time>2012-09-29T06:26:14Z</time>
      </trkpt>
      <trkpt lat="47.32212" lon="4.97616">
        <ele>427</ele>
        <time>2012-09-29T06:26:17Z</time>
      </trkpt>
      <trkpt lat="47.32214" lon="4.97623">
        <ele>426</ele>
        <time>2012-09-29T06:26:19Z</time>
      </trkpt>
      <trkpt lat="47.32216" lon="4.9763">
        <ele>426</ele>
        <time>2012-09-29T06:26:22Z</time>
      </trkpt>
      <trkpt lat="47.32221" lon="4.97638">
        <ele>424</ele>
        <time>2012-09-29T06:26:25Z</time>
      </trkpt>
      <trkpt lat="47.32225" lon="4.97646">
        <ele>421</ele>
        <time>2012-09-29T06:26:28Z</time>
      </trkpt>
      <trkpt lat="47.32228" lon="4.97651">
        <ele>419</ele>
        <time>2012-09-29T06:26:30Z</time>
      </trkpt>
      <trkpt lat="47.32232" lon="4.97658">
        <ele>419</ele>
        <time>2012-09-29T06:26:33Z</time>
      </trkpt>
      <trkpt lat="47.32235" lon="4.97663">
        <ele>420</ele>
        <time>2012-09-29T06:26:36Z</time>
      </trkpt>
      <trkpt lat="47.32236" lon="4.97671">
        <ele>419</ele>
        <time>2012-09-29T06:26:39Z</time>
      </trkpt>
      <trkpt lat="47.32237" lon="4.97678">
        <ele>419</ele>
        <time>2012-09-29T06:26:42Z</time>
      </trkpt>
      <trkpt lat="47.32239" lon="4.97685">
        <ele>419</ele>
        <time>2012-09-29T06:26:46Z</time>
      </trkpt>
      <trkpt lat="47.32242" lon="4.97693">
        <ele>418</ele>
        <time>2012-09-29T06:26:49Z</time>
      </trkpt>
      <trkpt lat="47.32244" lon="4.97699">
        <ele>419</ele>
        <time>2012-09-29T06:26:52Z</time>
      </trkpt>
      <trkpt lat="47.32247" lon="4.97706">
        <ele>419</ele>
        <time>2012-09-29T06:26:55Z</time>
      </trkpt>
      <trkpt lat="47.3225" lon="4.97713">
        <ele>419</ele>
        <time>2012-09-29T06:26:58Z</time>
      </trkpt>
      <trkpt lat="47.32251" lon="4.97721">
        <ele>419</ele>
        <time>2012-09-29T06:27:01Z</time>
      </trkpt>
      <trkpt lat="47.32254" lon="4.97727">
        <ele>419</ele>
        <time>2012-09-29T06:27:04Z</time>
      </trkpt>
      <trkpt lat="47.32256" lon="4.97733">
        <ele>418</ele>
        <time>2012-09-29T06:27:07Z</time>
      </trkpt>
      <trkpt lat="47.32259" lon="4.97741">
        <ele>418</ele>
        <time>2012-09-29T06:27:10Z</time>
      </trkpt>
      <trkpt lat="47.32262" lon="4.97747">
        <ele>418</ele>
        <time>2012-09-29T06:27:14Z</time>
      </trkpt>
      <trkpt lat="47.32264" lon="4.97753">
        <ele>419</ele>
        <time>2012-09-29T06:27:17Z</time>
      </trkpt>
      <trkpt lat="47.32267" lon="4.9776">
        <ele>419</ele>
        <time>2012-09-29T06:27:20Z</time>
      </trkpt>
      <trkpt lat="47.3227" lon="4.97765">
        <ele>419</ele>
        <time>2012-09-29T06:27:23Z</time>
      </trkpt>
      <trkpt lat="47.32273" lon="4.97772">
        <ele>418</ele>
        <time>2012-09-29T06:27:27Z</time>
      </trkpt>
      <trkpt lat="47.32276" lon="4.97778">
        <ele>419</ele>
        <time>2012-09-29T06:27:30Z</time>
      </trkpt>
      <trkpt lat="47.32278" lon="4.97785">
        <ele>420</ele>
        <time>2012-09-29T06:27:33Z</time>
      </trkpt>
      <trkpt lat="47.32281" lon="4.9779">
        <ele>418</ele>
        <time>2012-09-29T06:27:35Z</time>
      </trkpt>
      <trkpt lat="47.32285" lon="4.97796">
        <ele>418</ele>
        <time>2012-09-29T06:27:38Z</time>
      </trkpt>
      <trkpt lat="47.32289" lon="4.97803">
        <ele>417</ele>
        <time>2012-09-29T06:27:41Z</time>
      </trkpt>
      <trkpt lat="47.32292" lon="4.97809">
        <ele>418</ele>
        <time>2012-09-29T06:27:44Z</time>
      </trkpt>
      <trkpt lat="47.32294" lon="4.97814">
        <ele>417</ele>
        <time>2012-09-29T06:27:47Z</time>
      </trkpt>
      <trkpt lat="47.32299" lon="4.97821">
        <ele>417</ele>
        <time>2012-09-29T06:27:50Z</time>
      </trkpt>
      <trkpt lat="47.32302" lon="4.97828">
        <ele>416</ele>
        <time>2012-09-29T06:27:53Z</time>
      </trkpt>
      <trkpt lat="47.32305" lon="4.97834">
        <ele>417</ele>
        <time>2012-09-29T06:27:56Z</time>
      </trkpt>
      <trkpt lat="47.32309" lon="4.9784">
        <ele>415</ele>
        <time>2012-09-29T06:27:59Z</time>
      </trkpt>
      <trkpt lat="47.32313" lon="4.97847">
        <ele>414</ele>
        <time>2012-09-29T06:28:02Z</time>
      </trkpt>
      <trkpt lat="47.32316" lon="4.97852">
        <ele>414</ele>
        <time>2012-09-29T06:28:05Z</time>
      </trkpt>
      <trkpt lat="47.3232" lon="4.97859">
        <ele>414</ele>
        <time>2012-09-29T06:28:08Z</time>
      </trkpt>
      <trkpt lat="47.32322" lon="4.97864">
        <ele>414</ele>
        <time>2012-09-29T06:28:10Z</time>
      </trkpt>
      <trkpt lat="47.32326" lon="4.9787">
        <ele>414</ele>
        <time>2012-09-29T06:28:13Z</time>
      </trkpt>
      <trkpt lat="47.3233" lon="4.97876">
        <ele>414</ele>
        <time>2012-09-29T06:28:16Z</time>
      </trkpt>
      <trkpt lat="47.32334" lon="4.97882">
        <ele>412</ele>
        <time>2012-09-29T06:28:19Z</time>
      </trkpt>
      <trkpt lat="47.32338" lon="4.97888">
        <ele>412</ele>
        <time>2012-09-29T06:28:22Z</time>
      </trkpt>
      <trkpt lat="47.32342" lon="4.97896">
        <ele>413</ele>
        <time>2012-09-29T06:28:25Z</time>
      </trkpt>
      <trkpt lat="47.32345" lon="4.97902">
        <ele>415</ele>
        <time>2012-09-29T06:28:28Z</time>
      </trkpt>
      <trkpt lat="47.32348" lon="4.97908">
        <ele>416</ele>
        <time>2012-09-29T06:28:31Z</time>
      </trkpt>
      <trkpt lat="47.32352" lon="4.97913">
        <ele>416</ele>
        <time>2012-09-29T06:28:34Z</time>
      </trkpt>
      <trkpt lat="47.32356" lon="4.97919">
        <ele>416</ele>
        <time>2012-09-29T06:28:37Z</time>
      </trkpt>
      <trkpt lat="47.32359" lon="4.97926">
        <ele>414</ele>
        <time>2012-09-29T06:28:40Z</time>
      </trkpt>
      <trkpt lat="47.32362" lon="4.97933">
        <ele>414</ele>
        <time>2012-09-29T06:28:43Z</time>
      </trkpt>
      <trkpt lat="47.32366" lon="4.97938">
        <ele>415</ele>
        <time>2012-09-29T06:28:46Z</time>
      </trkpt>
      <trkpt lat="47.3237" lon="4.97944">
        <ele>414</ele>
        <time>2012-09-29T06:28:49Z</time>
      </trkpt>
      <trkpt lat="47.32376" lon="4.97948">
        <ele>414</ele>
        <time>2012-09-29T06:28:52Z</time>
      </trkpt>
      <trkpt lat="47.32381" lon="4.97954">
        <ele>414</ele>
        <time>2012-09-29T06:28:55Z</time>
      </trkpt>
      <trkpt lat="47.32386" lon="4.97959">
        <ele>415</ele>
        <time>2012-09-29T06:28:58Z</time>
      </trkpt>
      <trkpt lat="47.3239" lon="4.97963">
        <ele>415</ele>
        <time>2012-09-29T06:29:01Z</time>
      </trkpt>
      <trkpt lat="47.32395" lon="4.97968">
        <ele>415</ele>
        <time>2012-09-29T06:29:04Z</time>
      </trkpt>
      <trkpt lat="47.32401" lon="4.97972">
        <ele>415</ele>
        <time>2012-09-29T06:29:08Z</time>
      </trkpt>
      <trkpt lat="47.32405" lon="4.97976">
        <ele>416</ele>
        <time>2012-09-29T06:29:10Z</time>
      </trkpt>
      <trkpt lat="47.32411" lon="4.97977">
        <ele>417</ele>
        <time>2012-09-29T06:29:14Z</time>
      </trkpt>
      <trkpt lat="47.32415" lon="4.97981">
        <ele>417</ele>
        <time>2012-09-29T06:29:17Z</time>
      </trkpt>
      <trkpt lat="47.32419" lon="4.97985">
        <ele>418</ele>
        <time>2012-09-29T06:29:21Z</time>
      </trkpt>
      <trkpt lat="47.32424" lon="4.97988">
        <ele>416</ele>
        <time>2012-09-29T06:29:25Z</time>
      </trkpt>
      <trkpt lat="47.32428" lon="4.97991">
        <ele>416</ele>
        <time>2012-09-29T06:29:28Z</time>
      </trkpt>
      <trkpt lat="47.32435" lon="4.97994">
        <ele>416</ele>
        <time>2012-09-29T06:29:32Z</time>
      </trkpt>
      <trkpt lat="47.32439" lon="4.97996">
        <ele>416</ele>
        <time>2012-09-29T06:29:35Z</time>
      </trkpt>
      <trkpt lat="47.32444" lon="4.97998">
        <ele>415</ele>
        <time>2012-09-29T06:29:38Z</time>
      </trkpt>
      <trkpt lat="47.32449" lon="4.98001">
        <ele>416</ele>
        <time>2012-09-29T06:29:41Z</time>
      </trkpt>
      <trkpt lat="47.32453" lon="4.98004">
        <ele>416</ele>
        <time>2012-09-29T06:29:44Z</time>
      </trkpt>
      <trkpt lat="47.32457" lon="4.98008">
        <ele>415</ele>
        <time>2012-09-29T06:29:47Z</time>
      </trkpt>
      <trkpt lat="47.32462" lon="4.9801">
        <ele>415</ele>
        <time>2012-09-29T06:29:50Z</time>
      </trkpt>
      <trkpt lat="47.32467" lon="4.98012">
        <ele>415</ele>
        <time>2012-09-29T06:29:54Z</time>
      </trkpt>
      <trkpt lat="47.32473" lon="4.98011">
        <ele>416</ele>
        <time>2012-09-29T06:29:58Z</time>
      </trkpt>
      <trkpt lat="47.32478" lon="4.9801">
        <ele>415</ele>
        <time>2012-09-29T06:30:01Z</time>
      </trkpt>
      <trkpt lat="47.32483" lon="4.98009">
        <ele>415</ele>
        <time>2012-09-29T06:30:05Z</time>
      </trkpt>
      <trkpt lat="47.32488" lon="4.98006">
        <ele>412</ele>
        <time>2012-09-29T06:30:09Z</time>
      </trkpt>
      <trkpt lat="47.32494" lon="4.98006">
        <ele>413</ele>
        <time>2012-09-29T06:30:13Z</time>
      </trkpt>
      <trkpt lat="47.325" lon="4.98006">
        <ele>413</ele>
        <time>2012-09-29T06:30:16Z</time>
      </trkpt>
      <trkpt lat="47.32505" lon="4.98006">
        <ele>414</ele>
        <time>2012-09-29T06:30:19Z</time>
      </trkpt>
      <trkpt lat="47.3251" lon="4.98006">
        <ele>413</ele>
        <time>2012-09-29T06:30:22Z</time>
      </trkpt>
      <trkpt lat="47.32515" lon="4.98005">
        <ele>413</ele>
        <time>2012-09-29T06:30:25Z</time>
      </trkpt>
      <trkpt lat="47.3252" lon="4.98006">
        <ele>414</ele>
        <time>2012-09-29T06:30:28Z</time>
      </trkpt>
      <trkpt lat="47.32526" lon="4.98005">
        <ele>413</ele>
        <time>2012-09-29T06:30:31Z</time>
      </trkpt>
      <trkpt lat="47.32531" lon="4.98007">
        <ele>414</ele>
        <time>2012-09-29T06:30:34Z</time>
      </trkpt>
      <trkpt lat="47.32537" lon="4.98007">
        <ele>414</ele>
        <time>2012-09-29T06:30:37Z</time>
      </trkpt>
      <trkpt lat="47.32542" lon="4.98006">
        <ele>414</ele>
        <time>2012-09-29T06:30:40Z</time>
      </trkpt>
      <trkpt lat="47.32548" lon="4.98005">
        <ele>415</ele>
        <time>2012-09-29T06:30:44Z</time>
      </trkpt>
      <trkpt lat="47.32552" lon="4.98003">
        <ele>414</ele>
        <time>2012-09-29T06:30:47Z</time>
      </trkpt>
      <trkpt lat="47.32557" lon="4.98">
        <ele>415</ele>
        <time>2012-09-29T06:30:50Z</time>
      </trkpt>
      <trkpt lat="47.32561" lon="4.97997">
        <ele>415</ele>
        <time>2012-09-29T06:30:53Z</time>
      </trkpt>
      <trkpt lat="47.32566" lon="4.97993">
        <ele>415</ele>
        <time>2012-09-29T06:30:56Z</time>
      </trkpt>
      <trkpt lat="47.3257" lon="4.97989">
        <ele>414</ele>
        <time>2012-09-29T06:30:59Z</time>
      </trkpt>
      <trkpt lat="47.32574" lon="4.97983">
        <ele>415</ele>
        <time>2012-09-29T06:31:03Z</time>
      </trkpt>
      <trkpt lat="47.32578" lon="4.97977">
        <ele>415</ele>
        <time>2012-09-29T06:31:06Z</time>
      </trkpt>
      <trkpt lat="47.32581" lon="4.97972">
        <ele>415</ele>
        <time>2012-09-29T06:31:09Z</time>
      </trkpt>
      <trkpt lat="47.32584" lon="4.97966">
        <ele>416</ele>
        <time>2012-09-29T06:31:12Z</time>
      </trkpt>
      <trkpt lat="47.32587" lon="4.9796">
        <ele>416</ele>
        <time>2012-09-29T06:31:15Z</time>
      </trkpt>
      <trkpt lat="47.3259" lon="4.97954">
        <ele>417</ele>
        <time>2012-09-29T06:31:18Z</time>
      </trkpt>
      <trkpt lat="47.32592" lon="4.97946">
        <ele>415</ele>
        <time>2012-09-29T06:31:22Z</time>
      </trkpt>
      <trkpt lat="47.32595" lon="4.97939">
        <ele>416</ele>
        <time>2012-09-29T06:31:25Z</time>
      </trkpt>
      <trkpt lat="47.32598" lon="4.97931">
        <ele>415</ele>
        <time>2012-09-29T06:31:29Z</time>
      </trkpt>
      <trkpt lat="47.326" lon="4.97924">
        <ele>415</ele>
        <time>2012-09-29T06:31:32Z</time>
      </trkpt>
      <trkpt lat="47.32602" lon="4.97916">
        <ele>414</ele>
        <time>2012-09-29T06:31:35Z</time>
      </trkpt>
      <trkpt lat="47.32604" lon="4.9791">
        <ele>415</ele>
        <time>2012-09-29T06:31:38Z</time>
      </trkpt>
      <trkpt lat="47.32606" lon="4.97903">
        <ele>414</ele>
        <time>2012-09-29T06:31:41Z</time>
      </trkpt>
      <trkpt lat="47.32609" lon="4.97896">
        <ele>414</ele>
        <time>2012-09-29T06:31:45Z</time>
      </trkpt>
      <trkpt lat="47.32613" lon="4.97892">
        <ele>416</ele>
        <time>2012-09-29T06:31:50Z</time>
      </trkpt>
      <trkpt lat="47.32617" lon="4.97887">
        <ele>418</ele>
        <time>2012-09-29T06:31:55Z</time>
      </trkpt>
      <trkpt lat="47.32616" lon="4.97876">
        <ele>418</ele>
        <time>2012-09-29T06:31:57Z</time>
      </trkpt>
      <trkpt lat="47.32617" lon="4.97867">
        <ele>417</ele>
        <time>2012-09-29T06:32:00Z</time>
      </trkpt>
      <trkpt lat="47.32619" lon="4.9786">
        <ele>417</ele>
        <time>2012-09-29T06:32:03Z</time>
      </trkpt>
      <trkpt lat="47.3262" lon="4.97853">
        <ele>417</ele>
        <time>2012-09-29T06:32:05Z</time>
      </trkpt>
      <trkpt lat="47.32622" lon="4.97845">
        <ele>416</ele>
        <time>2012-09-29T06:32:09Z</time>
      </trkpt>
      <trkpt lat="47.32623" lon="4.97838">
        <ele>416</ele>
        <time>2012-09-29T06:32:11Z</time>
      </trkpt>
      <trkpt lat="47.32624" lon="4.97831">
        <ele>415</ele>
        <time>2012-09-29T06:32:14Z</time>
      </trkpt>
      <trkpt lat="47.32625" lon="4.97823">
        <ele>415</ele>
        <time>2012-09-29T06:32:17Z</time>
      </trkpt>
      <trkpt lat="47.32627" lon="4.97817">
        <ele>415</ele>
        <time>2012-09-29T06:32:20Z</time>
      </trkpt>
      <trkpt lat="47.32631" lon="4.97807">
        <ele>415</ele>
        <time>2012-09-29T06:32:25Z</time>
      </trkpt>
      <trkpt lat="47.32633" lon="4.978">
        <ele>415</ele>
        <time>2012-09-29T06:32:28Z</time>
      </trkpt>
      <trkpt lat="47.32636" lon="4.97793">
        <ele>415</ele>
        <time>2012-09-29T06:32:32Z</time>
      </trkpt>
      <trkpt lat="47.32637" lon="4.97785">
        <ele>414</ele>
        <time>2012-09-29T06:32:35Z</time>
      </trkpt>
      <trkpt lat="47.32639" lon="4.97778">
        <ele>414</ele>
        <time>2012-09-29T06:32:38Z</time>
      </trkpt>
      <trkpt lat="47.32642" lon="4.97773">
        <ele>415</ele>
        <time>2012-09-29T06:32:41Z</time>
      </trkpt>
      <trkpt lat="47.32646" lon="4.97768">
        <ele>416</ele>
        <time>2012-09-29T06:32:45Z</time>
      </trkpt>
      <trkpt lat="47.32649" lon="4.97762">
        <ele>416</ele>
        <time>2012-09-29T06:32:49Z</time>
      </trkpt>
      <trkpt lat="47.32653" lon="4.97757">
        <ele>415</ele>
        <time>2012-09-29T06:32:53Z</time>
      </trkpt>
      <trkpt lat="47.32657" lon="4.97752">
        <ele>414</ele>
        <time>2012-09-29T06:32:57Z</time>
      </trkpt>
      <trkpt lat="47.32662" lon="4.97748">
        <ele>414</ele>
        <time>2012-09-29T06:33:00Z</time>
      </trkpt>
      <trkpt lat="47.32664" lon="4.97743">
        <ele>412</ele>
        <time>2012-09-29T06:33:03Z</time>
      </trkpt>
      <trkpt lat="47.32669" lon="4.97738">
        <ele>412</ele>
        <time>2012-09-29T06:33:07Z</time>
      </trkpt>
      <trkpt lat="47.32672" lon="4.97731">
        <ele>411</ele>
        <time>2012-09-29T06:33:11Z</time>
      </trkpt>
      <trkpt lat="47.32675" lon="4.97725">
        <ele>411</ele>
        <time>2012-09-29T06:33:15Z</time>
      </trkpt>
      <trkpt lat="47.32678" lon="4.9772">
        <ele>410</ele>
        <time>2012-09-29T06:33:18Z</time>
      </trkpt>
      <trkpt lat="47.32681" lon="4.97714">
        <ele>409</ele>
        <time>2012-09-29T06:33:21Z</time>
      </trkpt>
      <trkpt lat="47.32685" lon="4.97708">
        <ele>409</ele>
        <time>2012-09-29T06:33:25Z</time>
      </trkpt>
      <trkpt lat="47.32689" lon="4.97702">
        <ele>409</ele>
        <time>2012-09-29T06:33:29Z</time>
      </trkpt>
      <trkpt lat="47.32692" lon="4.97696">
        <ele>409</ele>
        <time>2012-09-29T06:33:32Z</time>
      </trkpt>
      <trkpt lat="47.32694" lon="4.9769">
        <ele>408</ele>
        <time>2012-09-29T06:33:35Z</time>
      </trkpt>
      <trkpt lat="47.32697" lon="4.97683">
        <ele>407</ele>
        <time>2012-09-29T06:33:38Z</time>
      </trkpt>
      <trkpt lat="47.327" lon="4.97677">
        <ele>407</ele>
        <time>2012-09-29T06:33:41Z</time>
      </trkpt>
      <trkpt lat="47.32702" lon="4.97672">
        <ele>406</ele>
        <time>2012-09-29T06:33:44Z</time>
      </trkpt>
      <trkpt lat="47.32705" lon="4.97666">
        <ele>405</ele>
        <time>2012-09-29T06:33:47Z</time>
      </trkpt>
      <trkpt lat="47.32709" lon="4.9766">
        <ele>405</ele>
        <time>2012-09-29T06:33:50Z</time>
      </trkpt>
      <trkpt lat="47.32713" lon="4.97654">
        <ele>405</ele>
        <time>2012-09-29T06:33:53Z</time>
      </trkpt>
      <trkpt lat="47.32715" lon="4.97648">
        <ele>404</ele>
        <time>2012-09-29T06:33:56Z</time>
      </trkpt>
      <trkpt lat="47.32718" lon="4.97642">
        <ele>403</ele>
        <time>2012-09-29T06:33:59Z</time>
      </trkpt>
      <trkpt lat="47.32719" lon="4.97636">
        <ele>403</ele>
        <time>2012-09-29T06:34:02Z</time>
      </trkpt>
      <trkpt lat="47.32721" lon="4.97629">
        <ele>402</ele>
        <time>2012-09-29T06:34:05Z</time>
      </trkpt>
      <trkpt lat="47.32726" lon="4.97624">
        <ele>402</ele>
        <time>2012-09-29T06:34:08Z</time>
      </trkpt>
      <trkpt lat="47.3273" lon="4.9762">
        <ele>400</ele>
        <time>2012-09-29T06:34:11Z</time>
      </trkpt>
      <trkpt lat="47.32732" lon="4.97614">
        <ele>400</ele>
        <time>2012-09-29T06:34:15Z</time>
      </trkpt>
      <trkpt lat="47.32737" lon="4.97614">
        <ele>399</ele>
        <time>2012-09-29T06:34:21Z</time>
      </trkpt>
      <trkpt lat="47.32741" lon="4.97618">
        <ele>400</ele>
        <time>2012-09-29T06:34:28Z</time>
      </trkpt>
      <trkpt lat="47.32741" lon="4.97625">
        <ele>401</ele>
        <time>2012-09-29T06:34:33Z</time>
      </trkpt>
      <trkpt lat="47.32742" lon="4.97634">
        <ele>402</ele>
        <time>2012-09-29T06:34:37Z</time>
      </trkpt>
      <trkpt lat="47.3274" lon="4.97642">
        <ele>403</ele>
        <time>2012-09-29T06:34:41Z</time>
      </trkpt>
      <trkpt lat="47.32741" lon="4.97649">
        <ele>404</ele>
        <time>2012-09-29T06:34:44Z</time>
      </trkpt>
      <trkpt lat="47.32746" lon="4.9766">
        <ele>400</ele>
        <time>2012-09-29T06:34:46Z</time>
      </trkpt>
      <trkpt lat="47.32748" lon="4.97666">
        <ele>399</ele>
        <time>2012-09-29T06:34:48Z</time>
      </trkpt>
      <trkpt lat="47.32749" lon="4.97675">
        <ele>398</ele>
        <time>2012-09-29T06:34:52Z</time>
      </trkpt>
      <trkpt lat="47.32749" lon="4.97683">
        <ele>398</ele>
        <time>2012-09-29T06:34:56Z</time>
      </trkpt>
      <trkpt lat="47.32747" lon="4.9769">
        <ele>400</ele>
        <time>2012-09-29T06:34:59Z</time>
      </trkpt>
      <trkpt lat="47.32747" lon="4.97698">
        <ele>400</ele>
        <time>2012-09-29T06:35:02Z</time>
      </trkpt>
      <trkpt lat="47.32746" lon="4.97705">
        <ele>401</ele>
        <time>2012-09-29T06:35:05Z</time>
      </trkpt>
      <trkpt lat="47.32747" lon="4.97712">
        <ele>401</ele>
        <time>2012-09-29T06:35:07Z</time>
      </trkpt>
      <trkpt lat="47.32746" lon="4.9772">
        <ele>402</ele>
        <time>2012-09-29T06:35:10Z</time>
      </trkpt>
      <trkpt lat="47.32747" lon="4.97728">
        <ele>399</ele>
        <time>2012-09-29T06:35:14Z</time>
      </trkpt>
      <trkpt lat="47.32746" lon="4.97738">
        <ele>399</ele>
        <time>2012-09-29T06:35:18Z</time>
      </trkpt>
      <trkpt lat="47.32746" lon="4.97744">
        <ele>403</ele>
        <time>2012-09-29T06:35:23Z</time>
      </trkpt>
      <trkpt lat="47.32744" lon="4.97751">
        <ele>404</ele>
        <time>2012-09-29T06:35:26Z</time>
      </trkpt>
      <trkpt lat="47.32742" lon="4.97758">
        <ele>405</ele>
        <time>2012-09-29T06:35:29Z</time>
      </trkpt>
      <trkpt lat="47.3274" lon="4.97765">
        <ele>404</ele>
        <time>2012-09-29T06:35:33Z</time>
      </trkpt>
      <trkpt lat="47.32739" lon="4.97772">
        <ele>405</ele>
        <time>2012-09-29T06:35:37Z</time>
      </trkpt>
      <trkpt lat="47.32737" lon="4.9778">
        <ele>406</ele>
        <time>2012-09-29T06:35:41Z</time>
      </trkpt>
      <trkpt lat="47.32738" lon="4.97788">
        <ele>406</ele>
        <time>2012-09-29T06:35:45Z</time>
      </trkpt>
      <trkpt lat="47.32735" lon="4.97793">
        <ele>407</ele>
        <time>2012-09-29T06:35:47Z</time>
      </trkpt>
      <trkpt lat="47.32733" lon="4.978">
        <ele>406</ele>
        <time>2012-09-29T06:35:51Z</time>
      </trkpt>
      <trkpt lat="47.32732" lon="4.97808">
        <ele>406</ele>
        <time>2012-09-29T06:35:55Z</time>
      </trkpt>
      <trkpt lat="47.32728" lon="4.97813">
        <ele>408</ele>
        <time>2012-09-29T06:35:59Z</time>
      </trkpt>
      <trkpt lat="47.32725" lon="4.97819">
        <ele>409</ele>
        <time>2012-09-29T06:36:02Z</time>
      </trkpt>
      <trkpt lat="47.32725" lon="4.97826">
        <ele>409</ele>
        <time>2012-09-29T06:36:06Z</time>
      </trkpt>
      <trkpt lat="47.32724" lon="4.97833">
        <ele>409</ele>
        <time>2012-09-29T06:36:09Z</time>
      </trkpt>
      <trkpt lat="47.3272" lon="4.97837">
        <ele>411</ele>
        <time>2012-09-29T06:36:11Z</time>
      </trkpt>
      <trkpt lat="47.32715" lon="4.9784">
        <ele>411</ele>
        <time>2012-09-29T06:36:14Z</time>
      </trkpt>
      <trkpt lat="47.32712" lon="4.97846">
        <ele>411</ele>
        <time>2012-09-29T06:36:17Z</time>
      </trkpt>
      <trkpt lat="47.32711" lon="4.97852">
        <ele>411</ele>
        <time>2012-09-29T06:36:20Z</time>
      </trkpt>
      <trkpt lat="47.3271" lon="4.9786">
        <ele>411</ele>
        <time>2012-09-29T06:36:23Z</time>
      </trkpt>
      <trkpt lat="47.32706" lon="4.97868">
        <ele>411</ele>
        <time>2012-09-29T06:36:27Z</time>
      </trkpt>
      <trkpt lat="47.32703" lon="4.97875">
        <ele>411</ele>
        <time>2012-09-29T06:36:30Z</time>
      </trkpt>
      <trkpt lat="47.32702" lon="4.97882">
        <ele>410</ele>
        <time>2012-09-29T06:36:34Z</time>
      </trkpt>
      <trkpt lat="47.32702" lon="4.97889">
        <ele>410</ele>
        <time>2012-09-29T06:36:39Z</time>
      </trkpt>
      <trkpt lat="47.32702" lon="4.97897">
        <ele>409</ele>
        <time>2012-09-29T06:36:43Z</time>
      </trkpt>
      <trkpt lat="47.32699" lon="4.97905">
        <ele>409</ele>
        <time>2012-09-29T06:36:46Z</time>
      </trkpt>
      <trkpt lat="47.32698" lon="4.97913">
        <ele>406</ele>
        <time>2012-09-29T06:36:49Z</time>
      </trkpt>
      <trkpt lat="47.32697" lon="4.9792">
        <ele>406</ele>
        <time>2012-09-29T06:36:52Z</time>
      </trkpt>
      <trkpt lat="47.32696" lon="4.97928">
        <ele>407</ele>
        <time>2012-09-29T06:36:56Z</time>
      </trkpt>
      <trkpt lat="47.32694" lon="4.97935">
        <ele>408</ele>
        <time>2012-09-29T06:36:59Z</time>
      </trkpt>
      <trkpt lat="47.32693" lon="4.97942">
        <ele>407</ele>
        <time>2012-09-29T06:37:01Z</time>
      </trkpt>
      <trkpt lat="47.32693" lon="4.97952">
        <ele>407</ele>
        <time>2012-09-29T06:37:04Z</time>
      </trkpt>
      <trkpt lat="47.32692" lon="4.97958">
        <ele>409</ele>
        <time>2012-09-29T06:37:07Z</time>
      </trkpt>
      <trkpt lat="47.3269" lon="4.97965">
        <ele>409</ele>
        <time>2012-09-29T06:37:10Z</time>
      </trkpt>
      <trkpt lat="47.32688" lon="4.97972">
        <ele>410</ele>
        <time>2012-09-29T06:37:13Z</time>
      </trkpt>
      <trkpt lat="47.32687" lon="4.97979">
        <ele>409</ele>
        <time>2012-09-29T06:37:16Z</time>
      </trkpt>
      <trkpt lat="47.32686" lon="4.9799">
        <ele>408</ele>
        <time>2012-09-29T06:37:20Z</time>
      </trkpt>
      <trkpt lat="47.32684" lon="4.97997">
        <ele>407</ele>
        <time>2012-09-29T06:37:23Z</time>
      </trkpt>
      <trkpt lat="47.32683" lon="4.98003">
        <ele>407</ele>
        <time>2012-09-29T06:37:26Z</time>
      </trkpt>
      <trkpt lat="47.32683" lon="4.9801">
        <ele>406</ele>
        <time>2012-09-29T06:37:31Z</time>
      </trkpt>
      <trkpt lat="47.32685" lon="4.98019">
        <ele>404</ele>
        <time>2012-09-29T06:37:35Z</time>
      </trkpt>
      <trkpt lat="47.32687" lon="4.98028">
        <ele>403</ele>
        <time>2012-09-29T06:37:38Z</time>
      </trkpt>
      <trkpt lat="47.3269" lon="4.98034">
        <ele>402</ele>
        <time>2012-09-29T06:37:40Z</time>
      </trkpt>
      <trkpt lat="47.32691" lon="4.98042">
        <ele>403</ele>
        <time>2012-09-29T06:37:44Z</time>
      </trkpt>
      <trkpt lat="47.32691" lon="4.98051">
        <ele>403</ele>
        <time>2012-09-29T06:37:48Z</time>
      </trkpt>
      <trkpt lat="47.3269" lon="4.98057">
        <ele>404</ele>
        <time>2012-09-29T06:37:51Z</time>
      </trkpt>
      <trkpt lat="47.32688" lon="4.98065">
        <ele>405</ele>
        <time>2012-09-29T06:37:55Z</time>
      </trkpt>
      <trkpt lat="47.32685" lon="4.98071">
        <ele>405</ele>
        <time>2012-09-29T06:37:57Z</time>
      </trkpt>
      <trkpt lat="47.32685" lon="4.9808">
        <ele>406</ele>
        <time>2012-09-29T06:38:00Z</time>
      </trkpt>
      <trkpt lat="47.32686" lon="4.98088">
        <ele>405</ele>
        <time>2012-09-29T06:38:04Z</time>
      </trkpt>
      <trkpt lat="47.32684" lon="4.98097">
        <ele>406</ele>
        <time>2012-09-29T06:38:07Z</time>
      </trkpt>
      <trkpt lat="47.3268" lon="4.98105">
        <ele>405</ele>
        <time>2012-09-29T06:38:10Z</time>
      </trkpt>
      <trkpt lat="47.32679" lon="4.98116">
        <ele>405</ele>
        <time>2012-09-29T06:38:13Z</time>
      </trkpt>
      <trkpt lat="47.32676" lon="4.98122">
        <ele>406</ele>
        <time>2012-09-29T06:38:15Z</time>
      </trkpt>
      <trkpt lat="47.32673" lon="4.98127">
        <ele>408</ele>
        <time>2012-09-29T06:38:19Z</time>
      </trkpt>
      <trkpt lat="47.32674" lon="4.98137">
        <ele>408</ele>
        <time>2012-09-29T06:38:25Z</time>
      </trkpt>
      <trkpt lat="47.32672" lon="4.98144">
        <ele>406</ele>
        <time>2012-09-29T06:38:29Z</time>
      </trkpt>
      <trkpt lat="47.32671" lon="4.98151">
        <ele>408</ele>
        <time>2012-09-29T06:38:32Z</time>
      </trkpt>
      <trkpt lat="47.32671" lon="4.9816">
        <ele>406</ele>
        <time>2012-09-29T06:38:35Z</time>
      </trkpt>
      <trkpt lat="47.3267" lon="4.98166">
        <ele>404</ele>
        <time>2012-09-29T06:38:37Z</time>
      </trkpt>
      <trkpt lat="47.32669" lon="4.98174">
        <ele>403</ele>
        <time>2012-09-29T06:38:39Z</time>
      </trkpt>
      <trkpt lat="47.32668" lon="4.9818">
        <ele>403</ele>
        <time>2012-09-29T06:38:41Z</time>
      </trkpt>
      <trkpt lat="47.32664" lon="4.98187">
        <ele>402</ele>
        <time>2012-09-29T06:38:44Z</time>
      </trkpt>
      <trkpt lat="47.32663" lon="4.98196">
        <ele>402</ele>
        <time>2012-09-29T06:38:47Z</time>
      </trkpt>
      <trkpt lat="47.32661" lon="4.98202">
        <ele>399</ele>
        <time>2012-09-29T06:38:50Z</time>
      </trkpt>
      <trkpt lat="47.32659" lon="4.98208">
        <ele>398</ele>
        <time>2012-09-29T06:38:53Z</time>
      </trkpt>
      <trkpt lat="47.32658" lon="4.98215">
        <ele>397</ele>
        <time>2012-09-29T06:38:56Z</time>
      </trkpt>
      <trkpt lat="47.32657" lon="4.98221">
        <ele>396</ele>
        <time>2012-09-29T06:38:58Z</time>
      </trkpt>
      <trkpt lat="47.32655" lon="4.98228">
        <ele>395</ele>
        <time>2012-09-29T06:39:01Z</time>
      </trkpt>
      <trkpt lat="47.32653" lon="4.98235">
        <ele>395</ele>
        <time>2012-09-29T06:39:04Z</time>
      </trkpt>
      <trkpt lat="47.32649" lon="4.98242">
        <ele>395</ele>
        <time>2012-09-29T06:39:07Z</time>
      </trkpt>
      <trkpt lat="47.32647" lon="4.98248">
        <ele>395</ele>
        <time>2012-09-29T06:39:10Z</time>
      </trkpt>
      <trkpt lat="47.32646" lon="4.98257">
        <ele>393</ele>
        <time>2012-09-29T06:39:13Z</time>
      </trkpt>
      <trkpt lat="47.32642" lon="4.98264">
        <ele>393</ele>
        <time>2012-09-29T06:39:16Z</time>
      </trkpt>
      <trkpt lat="47.3264" lon="4.9827">
        <ele>394</ele>
        <time>2012-09-29T06:39:19Z</time>
      </trkpt>
      <trkpt lat="47.32636" lon="4.98275">
        <ele>394</ele>
        <time>2012-09-29T06:39:22Z</time>
      </trkpt>
      <trkpt lat="47.32634" lon="4.98281">
        <ele>395</ele>
        <time>2012-09-29T06:39:25Z</time>
      </trkpt>
      <trkpt lat="47.32632" lon="4.98287">
        <ele>395</ele>
        <time>2012-09-29T06:39:29Z</time>
      </trkpt>
      <trkpt lat="47.32628" lon="4.98292">
        <ele>398</ele>
        <time>2012-09-29T06:39:32Z</time>
      </trkpt>
      <trkpt lat="47.32627" lon="4.983">
        <ele>397</ele>
        <time>2012-09-29T06:39:36Z</time>
      </trkpt>
      <trkpt lat="47.32626" lon="4.98308">
        <ele>397</ele>
        <time>2012-09-29T06:39:39Z</time>
      </trkpt>
      <trkpt lat="47.32622" lon="4.98315">
        <ele>398</ele>
        <time>2012-09-29T06:39:42Z</time>
      </trkpt>
      <trkpt lat="47.32619" lon="4.98322">
        <ele>398</ele>
        <time>2012-09-29T06:39:45Z</time>
      </trkpt>
      <trkpt lat="47.32617" lon="4.98328">
        <ele>397</ele>
        <time>2012-09-29T06:39:51Z</time>
      </trkpt>
      <trkpt lat="47.32612" lon="4.98328">
        <ele>397</ele>
        <time>2012-09-29T06:39:56Z</time>
      </trkpt>
      <trkpt lat="47.32607" lon="4.98326">
        <ele>398</ele>
        <time>2012-09-29T06:40:00Z</time>
      </trkpt>
      <trkpt lat="47.32602" lon="4.98326">
        <ele>399</ele>
        <time>2012-09-29T06:40:04Z</time>
      </trkpt>
      <trkpt lat="47.32597" lon="4.98329">
        <ele>403</ele>
        <time>2012-09-29T06:40:09Z</time>
      </trkpt>
      <trkpt lat="47.32594" lon="4.98334">
        <ele>404</ele>
        <time>2012-09-29T06:40:13Z</time>
      </trkpt>
      <trkpt lat="47.32591" lon="4.98339">
        <ele>404</ele>
        <time>2012-09-29T06:40:19Z</time>
      </trkpt>
      <trkpt lat="47.32588" lon="4.98346">
        <ele>404</ele>
        <time>2012-09-29T06:40:22Z</time>
      </trkpt>
      <trkpt lat="47.32587" lon="4.98354">
        <ele>405</ele>
        <time>2012-09-29T06:40:26Z</time>
      </trkpt>
      <trkpt lat="47.32585" lon="4.98361">
        <ele>403</ele>
        <time>2012-09-29T06:40:29Z</time>
      </trkpt>
      <trkpt lat="47.32583" lon="4.98367">
        <ele>402</ele>
        <time>2012-09-29T06:40:32Z</time>
      </trkpt>
      <trkpt lat="47.3258" lon="4.98374">
        <ele>403</ele>
        <time>2012-09-29T06:40:35Z</time>
      </trkpt>
      <trkpt lat="47.32576" lon="4.98381">
        <ele>403</ele>
        <time>2012-09-29T06:40:39Z</time>
      </trkpt>
      <trkpt lat="47.32577" lon="4.98388">
        <ele>403</ele>
        <time>2012-09-29T06:40:42Z</time>
      </trkpt>
      <trkpt lat="47.32576" lon="4.98396">
        <ele>403</ele>
        <time>2012-09-29T06:40:45Z</time>
      </trkpt>
      <trkpt lat="47.32573" lon="4.98402">
        <ele>402</ele>
        <time>2012-09-29T06:40:48Z</time>
      </trkpt>
      <trkpt lat="47.32573" lon="4.98402">
        <ele>402</ele>
        <time>2012-09-29T06:40:48Z</time>
      </trkpt>
      <trkpt lat="47.32573" lon="4.98402">
        <ele>401</ele>
        <time>2012-09-29T06:40:58Z</time>
      </trkpt>
      <trkpt lat="47.32572" lon="4.98409">
        <ele>402</ele>
        <time>2012-09-29T06:43:31Z</time>
      </trkpt>
      <trkpt lat="47.3257" lon="4.98414">
        <ele>404</ele>
        <time>2012-09-29T06:43:36Z</time>
      </trkpt>
      <trkpt lat="47.32567" lon="4.98421">
        <ele>405</ele>
        <time>2012-09-29T06:43:41Z</time>
      </trkpt>
      <trkpt lat="47.32564" lon="4.98426">
        <ele>406</ele>
        <time>2012-09-29T06:43:45Z</time>
      </trkpt>
      <trkpt lat="47.32564" lon="4.98434">
        <ele>406</ele>
        <time>2012-09-29T06:43:51Z</time>
      </trkpt>
      <trkpt lat="47.32562" lon="4.98442">
        <ele>406</ele>
        <time>2012-09-29T06:43:55Z</time>
      </trkpt>
      <trkpt lat="47.32561" lon="4.98449">
        <ele>407</ele>
        <time>2012-09-29T06:43:58Z</time>
      </trkpt>
      <trkpt lat="47.32559" lon="4.98456">
        <ele>408</ele>
        <time>2012-09-29T06:44:01Z</time>
      </trkpt>
      <trkpt lat="47.32555" lon="4.98461">
        <ele>407</ele>
        <time>2012-09-29T06:44:04Z</time>
      </trkpt>
      <trkpt lat="47.32552" lon="4.98468">
        <ele>406</ele>
        <time>2012-09-29T06:44:07Z</time>
      </trkpt>
      <trkpt lat="47.3255" lon="4.98474">
        <ele>407</ele>
        <time>2012-09-29T06:44:10Z</time>
      </trkpt>
      <trkpt lat="47.32546" lon="4.98478">
        <ele>408</ele>
        <time>2012-09-29T06:44:15Z</time>
      </trkpt>
      <trkpt lat="47.32541" lon="4.98479">
        <ele>408</ele>
        <time>2012-09-29T06:44:18Z</time>
      </trkpt>
      <trkpt lat="47.32536" lon="4.98479">
        <ele>407</ele>
        <time>2012-09-29T06:44:22Z</time>
      </trkpt>
      <trkpt lat="47.32531" lon="4.98478">
        <ele>407</ele>
        <time>2012-09-29T06:44:25Z</time>
      </trkpt>
      <trkpt lat="47.32526" lon="4.98474">
        <ele>406</ele>
        <time>2012-09-29T06:44:29Z</time>
      </trkpt>
      <trkpt lat="47.3252" lon="4.98473">
        <ele>407</ele>
        <time>2012-09-29T06:44:36Z</time>
      </trkpt>
      <trkpt lat="47.3252" lon="4.98473">
        <ele>407</ele>
        <time>2012-09-29T06:44:36Z</time>
      </trkpt>
      <trkpt lat="47.3252" lon="4.98473">
        <ele>407</ele>
        <time>2012-09-29T06:44:37Z</time>
      </trkpt>
      <trkpt lat="47.32515" lon="4.98471">
        <ele>407</ele>
        <time>2012-09-29T06:44:39Z</time>
      </trkpt>
      <trkpt lat="47.32508" lon="4.9847">
        <ele>406</ele>
        <time>2012-09-29T06:44:43Z</time>
      </trkpt>
      <trkpt lat="47.32503" lon="4.98469">
        <ele>405</ele>
        <time>2012-09-29T06:44:45Z</time>
      </trkpt>
      <trkpt lat="47.32498" lon="4.98468">
        <ele>403</ele>
        <time>2012-09-29T06:44:48Z</time>
      </trkpt>
      <trkpt lat="47.32493" lon="4.98467">
        <ele>401</ele>
        <time>2012-09-29T06:44:52Z</time>
      </trkpt>
      <trkpt lat="47.32487" lon="4.98465">
        <ele>403</ele>
        <time>2012-09-29T06:44:55Z</time>
      </trkpt>
      <trkpt lat="47.32483" lon="4.9846">
        <ele>401</ele>
        <time>2012-09-29T06:44:58Z</time>
      </trkpt>
      <trkpt lat="47.32479" lon="4.98453">
        <ele>401</ele>
        <time>2012-09-29T06:45:01Z</time>
      </trkpt>
      <trkpt lat="47.32479" lon="4.98446">
        <ele>400</ele>
        <time>2012-09-29T06:45:04Z</time>
      </trkpt>
      <trkpt lat="47.32479" lon="4.98439">
        <ele>400</ele>
        <time>2012-09-29T06:45:07Z</time>
      </trkpt>
      <trkpt lat="47.32479" lon="4.98431">
        <ele>401</ele>
        <time>2012-09-29T06:45:11Z</time>
      </trkpt>
      <trkpt lat="47.3248" lon="4.98424">
        <ele>403</ele>
        <time>2012-09-29T06:45:14Z</time>
      </trkpt>
      <trkpt lat="47.32479" lon="4.98417">
        <ele>404</ele>
        <time>2012-09-29T06:45:17Z</time>
      </trkpt>
      <trkpt lat="47.32479" lon="4.98409">
        <ele>404</ele>
        <time>2012-09-29T06:45:20Z</time>
      </trkpt>
      <trkpt lat="47.32479" lon="4.98402">
        <ele>403</ele>
        <time>2012-09-29T06:45:23Z</time>
      </trkpt>
      <trkpt lat="47.32479" lon="4.98394">
        <ele>402</ele>
        <time>2012-09-29T06:45:26Z</time>
      </trkpt>
      <trkpt lat="47.32478" lon="4.98386">
        <ele>402</ele>
        <time>2012-09-29T06:45:29Z</time>
      </trkpt>
      <trkpt lat="47.32478" lon="4.98378">
        <ele>401</ele>
        <time>2012-09-29T06:45:32Z</time>
      </trkpt>
      <trkpt lat="47.32477" lon="4.98369">
        <ele>401</ele>
        <time>2012-09-29T06:45:35Z</time>
      </trkpt>
      <trkpt lat="47.32476" lon="4.98361">
        <ele>401</ele>
        <time>2012-09-29T06:45:38Z</time>
      </trkpt>
      <trkpt lat="47.32476" lon="4.98352">
        <ele>400</ele>
        <time>2012-09-29T06:45:41Z</time>
      </trkpt>
      <trkpt lat="47.32476" lon="4.98344">
        <ele>402</ele>
        <time>2012-09-29T06:45:44Z</time>
      </trkpt>
      <trkpt lat="47.32476" lon="4.98334">
        <ele>404</ele>
        <time>2012-09-29T06:45:47Z</time>
      </trkpt>
      <trkpt lat="47.32476" lon="4.98326">
        <ele>404</ele>
        <time>2012-09-29T06:45:50Z</time>
      </trkpt>
      <trkpt lat="47.32476" lon="4.98317">
        <ele>405</ele>
        <time>2012-09-29T06:45:53Z</time>
      </trkpt>
      <trkpt lat="47.32476" lon="4.98309">
        <ele>405</ele>
        <time>2012-09-29T06:45:56Z</time>
      </trkpt>
      <trkpt lat="47.32477" lon="4.98301">
        <ele>405</ele>
        <time>2012-09-29T06:45:59Z</time>
      </trkpt>
      <trkpt lat="47.32477" lon="4.98292">
        <ele>406</ele>
        <time>2012-09-29T06:46:02Z</time>
      </trkpt>
      <trkpt lat="47.32478" lon="4.98284">
        <ele>406</ele>
        <time>2012-09-29T06:46:05Z</time>
      </trkpt>
      <trkpt lat="47.32478" lon="4.98277">
        <ele>405</ele>
        <time>2012-09-29T06:46:08Z</time>
      </trkpt>
      <trkpt lat="47.32479" lon="4.9827">
        <ele>406</ele>
        <time>2012-09-29T06:46:11Z</time>
      </trkpt>
      <trkpt lat="47.32481" lon="4.98262">
        <ele>405</ele>
        <time>2012-09-29T06:46:14Z</time>
      </trkpt>
      <trkpt lat="47.32482" lon="4.98253">
        <ele>405</ele>
        <time>2012-09-29T06:46:17Z</time>
      </trkpt>
      <trkpt lat="47.32483" lon="4.98244">
        <ele>406</ele>
        <time>2012-09-29T06:46:20Z</time>
      </trkpt>
      <trkpt lat="47.32483" lon="4.98236">
        <ele>406</ele>
        <time>2012-09-29T06:46:23Z</time>
      </trkpt>
      <trkpt lat="47.32484" lon="4.98228">
        <ele>405</ele>
        <time>2012-09-29T06:46:26Z</time>
      </trkpt>
      <trkpt lat="47.32485" lon="4.98219">
        <ele>406</ele>
        <time>2012-09-29T06:46:29Z</time>
      </trkpt>
      <trkpt lat="47.32487" lon="4.98212">
        <ele>406</ele>
        <time>2012-09-29T06:46:32Z</time>
      </trkpt>
      <trkpt lat="47.32488" lon="4.98203">
        <ele>407</ele>
        <time>2012-09-29T06:46:35Z</time>
      </trkpt>
      <trkpt lat="47.32489" lon="4.98196">
        <ele>407</ele>
        <time>2012-09-29T06:46:38Z</time>
      </trkpt>
      <trkpt lat="47.32488" lon="4.98188">
        <ele>407</ele>
        <time>2012-09-29T06:46:41Z</time>
      </trkpt>
      <trkpt lat="47.32489" lon="4.9818">
        <ele>407</ele>
        <time>2012-09-29T06:46:44Z</time>
      </trkpt>
      <trkpt lat="47.3249" lon="4.98172">
        <ele>407</ele>
        <time>2012-09-29T06:46:47Z</time>
      </trkpt>
      <trkpt lat="47.3249" lon="4.98163">
        <ele>409</ele>
        <time>2012-09-29T06:46:50Z</time>
      </trkpt>
      <trkpt lat="47.3249" lon="4.98155">
        <ele>409</ele>
        <time>2012-09-29T06:46:53Z</time>
      </trkpt>
      <trkpt lat="47.32489" lon="4.98147">
        <ele>409</ele>
        <time>2012-09-29T06:46:56Z</time>
      </trkpt>
      <trkpt lat="47.32488" lon="4.98139">
        <ele>409</ele>
        <time>2012-09-29T06:46:59Z</time>
      </trkpt>
      <trkpt lat="47.32487" lon="4.98131">
        <ele>408</ele>
        <time>2012-09-29T06:47:02Z</time>
      </trkpt>
      <trkpt lat="47.32487" lon="4.98124">
        <ele>409</ele>
        <time>2012-09-29T06:47:05Z</time>
      </trkpt>
      <trkpt lat="47.32486" lon="4.98116">
        <ele>409</ele>
        <time>2012-09-29T06:47:08Z</time>
      </trkpt>
      <trkpt lat="47.32486" lon="4.98108">
        <ele>410</ele>
        <time>2012-09-29T06:47:11Z</time>
      </trkpt>
      <trkpt lat="47.32485" lon="4.981">
        <ele>412</ele>
        <time>2012-09-29T06:47:14Z</time>
      </trkpt>
      <trkpt lat="47.32485" lon="4.98092">
        <ele>411</ele>
        <time>2012-09-29T06:47:17Z</time>
      </trkpt>
      <trkpt lat="47.32485" lon="4.98084">
        <ele>412</ele>
        <time>2012-09-29T06:47:20Z</time>
      </trkpt>
      <trkpt lat="47.32485" lon="4.98075">
        <ele>412</ele>
        <time>2012-09-29T06:47:23Z</time>
      </trkpt>
      <trkpt lat="47.32484" lon="4.98056">
        <ele>414</ele>
        <time>2012-09-29T06:47:32Z</time>
      </trkpt>
      <trkpt lat="47.32485" lon="4.98049">
        <ele>414</ele>
        <time>2012-09-29T06:47:35Z</time>
      </trkpt>
      <trkpt lat="47.32484" lon="4.98042">
        <ele>415</ele>
        <time>2012-09-29T06:47:38Z</time>
      </trkpt>
      <trkpt lat="47.32482" lon="4.98034">
        <ele>416</ele>
        <time>2012-09-29T06:47:41Z</time>
      </trkpt>
      <trkpt lat="47.32482" lon="4.98026">
        <ele>417</ele>
        <time>2012-09-29T06:47:44Z</time>
      </trkpt>
      <trkpt lat="47.32482" lon="4.98018">
        <ele>417</ele>
        <time>2012-09-29T06:47:47Z</time>
      </trkpt>
      <trkpt lat="47.3248" lon="4.9801">
        <ele>418</ele>
        <time>2012-09-29T06:47:50Z</time>
      </trkpt>
      <trkpt lat="47.3248" lon="4.98002">
        <ele>419</ele>
        <time>2012-09-29T06:47:53Z</time>
      </trkpt>
      <trkpt lat="47.3248" lon="4.97994">
        <ele>418</ele>
        <time>2012-09-29T06:47:56Z</time>
      </trkpt>
      <trkpt lat="47.3248" lon="4.97986">
        <ele>418</ele>
        <time>2012-09-29T06:48:00Z</time>
      </trkpt>
      <trkpt lat="47.3248" lon="4.97979">
        <ele>419</ele>
        <time>2012-09-29T06:48:03Z</time>
      </trkpt>
      <trkpt lat="47.32479" lon="4.97971">
        <ele>420</ele>
        <time>2012-09-29T06:48:06Z</time>
      </trkpt>
      <trkpt lat="47.32479" lon="4.97963">
        <ele>420</ele>
        <time>2012-09-29T06:48:09Z</time>
      </trkpt>
      <trkpt lat="47.32479" lon="4.97955">
        <ele>421</ele>
        <time>2012-09-29T06:48:12Z</time>
      </trkpt>
      <trkpt lat="47.32479" lon="4.97947">
        <ele>422</ele>
        <time>2012-09-29T06:48:15Z</time>
      </trkpt>
      <trkpt lat="47.32479" lon="4.97939">
        <ele>422</ele>
        <time>2012-09-29T06:48:18Z</time>
      </trkpt>
      <trkpt lat="47.32479" lon="4.97931">
        <ele>423</ele>
        <time>2012-09-29T06:48:21Z</time>
      </trkpt>
      <trkpt lat="47.3248" lon="4.97923">
        <ele>424</ele>
        <time>2012-09-29T06:48:24Z</time>
      </trkpt>
      <trkpt lat="47.32481" lon="4.97916">
        <ele>423</ele>
        <time>2012-09-29T06:48:27Z</time>
      </trkpt>
      <trkpt lat="47.32481" lon="4.97908">
        <ele>423</ele>
        <time>2012-09-29T06:48:30Z</time>
      </trkpt>
      <trkpt lat="47.32482" lon="4.979">
        <ele>423</ele>
        <time>2012-09-29T06:48:33Z</time>
      </trkpt>
      <trkpt lat="47.32483" lon="4.97891">
        <ele>423</ele>
        <time>2012-09-29T06:48:36Z</time>
      </trkpt>
      <trkpt lat="47.32485" lon="4.97884">
        <ele>424</ele>
        <time>2012-09-29T06:48:39Z</time>
      </trkpt>
      <trkpt lat="47.32485" lon="4.97875">
        <ele>423</ele>
        <time>2012-09-29T06:48:42Z</time>
      </trkpt>
      <trkpt lat="47.32486" lon="4.97868">
        <ele>424</ele>
        <time>2012-09-29T06:48:45Z</time>
      </trkpt>
      <trkpt lat="47.32486" lon="4.97859">
        <ele>424</ele>
        <time>2012-09-29T06:48:48Z</time>
      </trkpt>
      <trkpt lat="47.32485" lon="4.97852">
        <ele>425</ele>
        <time>2012-09-29T06:48:52Z</time>
      </trkpt>
      <trkpt lat="47.32485" lon="4.97844">
        <ele>425</ele>
        <time>2012-09-29T06:48:55Z</time>
      </trkpt>
      <trkpt lat="47.32487" lon="4.97836">
        <ele>426</ele>
        <time>2012-09-29T06:48:58Z</time>
      </trkpt>
      <trkpt lat="47.32488" lon="4.97828">
        <ele>425</ele>
        <time>2012-09-29T06:49:01Z</time>
      </trkpt>
      <trkpt lat="47.32488" lon="4.97821">
        <ele>425</ele>
        <time>2012-09-29T06:49:04Z</time>
      </trkpt>
      <trkpt lat="47.32486" lon="4.97814">
        <ele>425</ele>
        <time>2012-09-29T06:49:07Z</time>
      </trkpt>
      <trkpt lat="47.32485" lon="4.97806">
        <ele>425</ele>
        <time>2012-09-29T06:49:10Z</time>
      </trkpt>
      <trkpt lat="47.32483" lon="4.978">
        <ele>426</ele>
        <time>2012-09-29T06:49:13Z</time>
      </trkpt>
      <trkpt lat="47.32483" lon="4.97791">
        <ele>427</ele>
        <time>2012-09-29T06:49:17Z</time>
      </trkpt>
      <trkpt lat="47.32483" lon="4.97783">
        <ele>427</ele>
        <time>2012-09-29T06:49:20Z</time>
      </trkpt>
      <trkpt lat="47.32484" lon="4.97776">
        <ele>429</ele>
        <time>2012-09-29T06:49:23Z</time>
      </trkpt>
      <trkpt lat="47.32484" lon="4.97769">
        <ele>427</ele>
        <time>2012-09-29T06:49:26Z</time>
      </trkpt>
      <trkpt lat="47.32485" lon="4.97761">
        <ele>428</ele>
        <time>2012-09-29T06:49:29Z</time>
      </trkpt>
      <trkpt lat="47.32485" lon="4.97754">
        <ele>429</ele>
        <time>2012-09-29T06:49:32Z</time>
      </trkpt>
      <trkpt lat="47.32486" lon="4.97746">
        <ele>431</ele>
        <time>2012-09-29T06:49:35Z</time>
      </trkpt>
      <trkpt lat="47.32486" lon="4.97738">
        <ele>432</ele>
        <time>2012-09-29T06:49:38Z</time>
      </trkpt>
      <trkpt lat="47.32486" lon="4.97731">
        <ele>433</ele>
        <time>2012-09-29T06:49:41Z</time>
      </trkpt>
      <trkpt lat="47.32487" lon="4.97724">
        <ele>433</ele>
        <time>2012-09-29T06:49:44Z</time>
      </trkpt>
      <trkpt lat="47.32486" lon="4.97716">
        <ele>434</ele>
        <time>2012-09-29T06:49:47Z</time>
      </trkpt>
      <trkpt lat="47.32486" lon="4.97709">
        <ele>435</ele>
        <time>2012-09-29T06:49:49Z</time>
      </trkpt>
      <trkpt lat="47.32487" lon="4.97701">
        <ele>434</ele>
        <time>2012-09-29T06:49:53Z</time>
      </trkpt>
      <trkpt lat="47.32487" lon="4.97694">
        <ele>435</ele>
        <time>2012-09-29T06:49:56Z</time>
      </trkpt>
      <trkpt lat="47.32487" lon="4.97687">
        <ele>435</ele>
        <time>2012-09-29T06:49:59Z</time>
      </trkpt>
      <trkpt lat="47.32488" lon="4.97679">
        <ele>436</ele>
        <time>2012-09-29T06:50:02Z</time>
      </trkpt>
      <trkpt lat="47.32488" lon="4.97672">
        <ele>438</ele>
        <time>2012-09-29T06:50:05Z</time>
      </trkpt>
      <trkpt lat="47.32489" lon="4.97665">
        <ele>438</ele>
        <time>2012-09-29T06:50:08Z</time>
      </trkpt>
      <trkpt lat="47.3249" lon="4.97659">
        <ele>440</ele>
        <time>2012-09-29T06:50:11Z</time>
      </trkpt>
      <trkpt lat="47.3249" lon="4.97652">
        <ele>440</ele>
        <time>2012-09-29T06:50:15Z</time>
      </trkpt>
      <trkpt lat="47.3249" lon="4.97645">
        <ele>441</ele>
        <time>2012-09-29T06:50:18Z</time>
      </trkpt>
      <trkpt lat="47.3249" lon="4.97637">
        <ele>440</ele>
        <time>2012-09-29T06:50:21Z</time>
      </trkpt>
      <trkpt lat="47.3249" lon="4.9763">
        <ele>441</ele>
        <time>2012-09-29T06:50:24Z</time>
      </trkpt>
      <trkpt lat="47.32491" lon="4.97622">
        <ele>441</ele>
        <time>2012-09-29T06:50:27Z</time>
      </trkpt>
      <trkpt lat="47.32492" lon="4.97615">
        <ele>442</ele>
        <time>2012-09-29T06:50:30Z</time>
      </trkpt>
      <trkpt lat="47.32492" lon="4.97607">
        <ele>444</ele>
        <time>2012-09-29T06:50:35Z</time>
      </trkpt>
      <trkpt lat="47.32493" lon="4.976">
        <ele>444</ele>
        <time>2012-09-29T06:50:56Z</time>
      </trkpt>
      <trkpt lat="47.32493" lon="4.976">
        <ele>444</ele>
        <time>2012-09-29T06:50:56Z</time>
      </trkpt>
      <trkpt lat="47.32493" lon="4.976">
        <ele>444</ele>
        <time>2012-09-29T06:51:01Z</time>
      </trkpt>
      <trkpt lat="47.32493" lon="4.97593">
        <ele>451</ele>
        <time>2012-09-29T06:53:52Z</time>
      </trkpt>
      <trkpt lat="47.32493" lon="4.97584">
        <ele>450</ele>
        <time>2012-09-29T06:53:56Z</time>
      </trkpt>
      <trkpt lat="47.32494" lon="4.97578">
        <ele>451</ele>
        <time>2012-09-29T06:53:59Z</time>
      </trkpt>
      <trkpt lat="47.32494" lon="4.9757">
        <ele>451</ele>
        <time>2012-09-29T06:54:04Z</time>
      </trkpt>
      <trkpt lat="47.32494" lon="4.9756">
        <ele>451</ele>
        <time>2012-09-29T06:54:08Z</time>
      </trkpt>
      <trkpt lat="47.32494" lon="4.97552">
        <ele>451</ele>
        <time>2012-09-29T06:54:11Z</time>
      </trkpt>
      <trkpt lat="47.32494" lon="4.97544">
        <ele>451</ele>
        <time>2012-09-29T06:54:15Z</time>
      </trkpt>
      <trkpt lat="47.32494" lon="4.97536">
        <ele>451</ele>
        <time>2012-09-29T06:54:18Z</time>
      </trkpt>
      <trkpt lat="47.32493" lon="4.97529">
        <ele>451</ele>
        <time>2012-09-29T06:54:21Z</time>
      </trkpt>
      <trkpt lat="47.32493" lon="4.97521">
        <ele>450</ele>
        <time>2012-09-29T06:54:24Z</time>
      </trkpt>
      <trkpt lat="47.32494" lon="4.97514">
        <ele>450</ele>
        <time>2012-09-29T06:54:27Z</time>
      </trkpt>
      <trkpt lat="47.32494" lon="4.97507">
        <ele>450</ele>
        <time>2012-09-29T06:54:30Z</time>
      </trkpt>
      <trkpt lat="47.32495" lon="4.975">
        <ele>450</ele>
        <time>2012-09-29T06:54:33Z</time>
      </trkpt>
      <trkpt lat="47.32495" lon="4.97493">
        <ele>449</ele>
        <time>2012-09-29T06:54:36Z</time>
      </trkpt>
      <trkpt lat="47.32495" lon="4.97486">
        <ele>450</ele>
        <time>2012-09-29T06:54:39Z</time>
      </trkpt>
      <trkpt lat="47.32494" lon="4.97478">
        <ele>449</ele>
        <time>2012-09-29T06:54:42Z</time>
      </trkpt>
      <trkpt lat="47.32494" lon="4.9747">
        <ele>449</ele>
        <time>2012-09-29T06:54:45Z</time>
      </trkpt>
      <trkpt lat="47.32494" lon="4.97462">
        <ele>450</ele>
        <time>2012-09-29T06:54:48Z</time>
      </trkpt>
      <trkpt lat="47.32493" lon="4.97455">
        <ele>451</ele>
        <time>2012-09-29T06:54:51Z</time>
      </trkpt>
      <trkpt lat="47.32492" lon="4.97447">
        <ele>451</ele>
        <time>2012-09-29T06:54:54Z</time>
      </trkpt>
      <trkpt lat="47.32491" lon="4.9744">
        <ele>450</ele>
        <time>2012-09-29T06:54:57Z</time>
      </trkpt>
      <trkpt lat="47.3249" lon="4.97433">
        <ele>450</ele>
        <time>2012-09-29T06:55:00Z</time>
      </trkpt>
      <trkpt lat="47.32489" lon="4.97426">
        <ele>451</ele>
        <time>2012-09-29T06:55:03Z</time>
      </trkpt>
      <trkpt lat="47.32487" lon="4.97419">
        <ele>451</ele>
        <time>2012-09-29T06:55:06Z</time>
      </trkpt>
      <trkpt lat="47.32486" lon="4.97411">
        <ele>451</ele>
        <time>2012-09-29T06:55:09Z</time>
      </trkpt>
      <trkpt lat="47.32486" lon="4.97404">
        <ele>452</ele>
        <time>2012-09-29T06:55:12Z</time>
      </trkpt>
      <trkpt lat="47.32485" lon="4.97396">
        <ele>453</ele>
        <time>2012-09-29T06:55:15Z</time>
      </trkpt>
      <trkpt lat="47.32483" lon="4.97389">
        <ele>453</ele>
        <time>2012-09-29T06:55:18Z</time>
      </trkpt>
      <trkpt lat="47.32482" lon="4.97381">
        <ele>453</ele>
        <time>2012-09-29T06:55:21Z</time>
      </trkpt>
      <trkpt lat="47.32481" lon="4.97374">
        <ele>454</ele>
        <time>2012-09-29T06:55:24Z</time>
      </trkpt>
      <trkpt lat="47.32479" lon="4.97365">
        <ele>453</ele>
        <time>2012-09-29T06:55:27Z</time>
      </trkpt>
      <trkpt lat="47.32478" lon="4.97358">
        <ele>452</ele>
        <time>2012-09-29T06:55:30Z</time>
      </trkpt>
      <trkpt lat="47.32476" lon="4.97352">
        <ele>451</ele>
        <time>2012-09-29T06:55:33Z</time>
      </trkpt>
      <trkpt lat="47.32476" lon="4.97344">
        <ele>451</ele>
        <time>2012-09-29T06:55:36Z</time>
      </trkpt>
      <trkpt lat="47.32475" lon="4.97336">
        <ele>450</ele>
        <time>2012-09-29T06:55:40Z</time>
      </trkpt>
      <trkpt lat="47.32474" lon="4.97329">
        <ele>451</ele>
        <time>2012-09-29T06:55:43Z</time>
      </trkpt>
      <trkpt lat="47.32473" lon="4.97322">
        <ele>451</ele>
        <time>2012-09-29T06:55:46Z</time>
      </trkpt>
      <trkpt lat="47.32472" lon="4.97314">
        <ele>451</ele>
        <time>2012-09-29T06:55:49Z</time>
      </trkpt>
      <trkpt lat="47.32471" lon="4.97306">
        <ele>452</ele>
        <time>2012-09-29T06:55:52Z</time>
      </trkpt>
      <trkpt lat="47.32471" lon="4.97298">
        <ele>451</ele>
        <time>2012-09-29T06:55:55Z</time>
      </trkpt>
      <trkpt lat="47.3247" lon="4.97291">
        <ele>452</ele>
        <time>2012-09-29T06:55:58Z</time>
      </trkpt>
      <trkpt lat="47.32469" lon="4.97283">
        <ele>452</ele>
        <time>2012-09-29T06:56:01Z</time>
      </trkpt>
      <trkpt lat="47.32468" lon="4.97276">
        <ele>452</ele>
        <time>2012-09-29T06:56:04Z</time>
      </trkpt>
      <trkpt lat="47.32467" lon="4.97268">
        <ele>452</ele>
        <time>2012-09-29T06:56:07Z</time>
      </trkpt>
      <trkpt lat="47.32466" lon="4.97261">
        <ele>452</ele>
        <time>2012-09-29T06:56:10Z</time>
      </trkpt>
      <trkpt lat="47.32465" lon="4.97254">
        <ele>451</ele>
        <time>2012-09-29T06:56:13Z</time>
      </trkpt>
      <trkpt lat="47.32465" lon="4.97247">
        <ele>452</ele>
        <time>2012-09-29T06:56:16Z</time>
      </trkpt>
      <trkpt lat="47.32464" lon="4.97239">
        <ele>451</ele>
        <time>2012-09-29T06:56:19Z</time>
      </trkpt>
      <trkpt lat="47.32464" lon="4.97232">
        <ele>451</ele>
        <time>2012-09-29T06:56:22Z</time>
      </trkpt>
      <trkpt lat="47.32463" lon="4.97225">
        <ele>451</ele>
        <time>2012-09-29T06:56:25Z</time>
      </trkpt>
      <trkpt lat="47.32463" lon="4.97218">
        <ele>451</ele>
        <time>2012-09-29T06:56:28Z</time>
      </trkpt>
      <trkpt lat="47.32463" lon="4.9721">
        <ele>451</ele>
        <time>2012-09-29T06:56:31Z</time>
      </trkpt>
      <trkpt lat="47.32462" lon="4.97202">
        <ele>451</ele>
        <time>2012-09-29T06:56:35Z</time>
      </trkpt>
      <trkpt lat="47.32462" lon="4.97194">
        <ele>451</ele>
        <time>2012-09-29T06:56:38Z</time>
      </trkpt>
      <trkpt lat="47.32461" lon="4.97187">
        <ele>451</ele>
        <time>2012-09-29T06:56:41Z</time>
      </trkpt>
      <trkpt lat="47.32461" lon="4.9718">
        <ele>451</ele>
        <time>2012-09-29T06:56:44Z</time>
      </trkpt>
      <trkpt lat="47.32461" lon="4.97172">
        <ele>451</ele>
        <time>2012-09-29T06:56:47Z</time>
      </trkpt>
      <trkpt lat="47.32461" lon="4.97165">
        <ele>451</ele>
        <time>2012-09-29T06:56:50Z</time>
      </trkpt>
      <trkpt lat="47.3246" lon="4.97156">
        <ele>452</ele>
        <time>2012-09-29T06:56:53Z</time>
      </trkpt>
      <trkpt lat="47.3246" lon="4.9715">
        <ele>452</ele>
        <time>2012-09-29T06:56:56Z</time>
      </trkpt>
      <trkpt lat="47.3246" lon="4.97142">
        <ele>452</ele>
        <time>2012-09-29T06:56:59Z</time>
      </trkpt>
      <trkpt lat="47.3246" lon="4.97135">
        <ele>453</ele>
        <time>2012-09-29T06:57:02Z</time>
      </trkpt>
      <trkpt lat="47.3246" lon="4.97128">
        <ele>453</ele>
        <time>2012-09-29T06:57:05Z</time>
      </trkpt>
      <trkpt lat="47.3246" lon="4.9712">
        <ele>452</ele>
        <time>2012-09-29T06:57:08Z</time>
      </trkpt>
      <trkpt lat="47.32459" lon="4.97112">
        <ele>452</ele>
        <time>2012-09-29T06:57:11Z</time>
      </trkpt>
      <trkpt lat="47.32459" lon="4.97105">
        <ele>452</ele>
        <time>2012-09-29T06:57:14Z</time>
      </trkpt>
      <trkpt lat="47.32458" lon="4.97098">
        <ele>453</ele>
        <time>2012-09-29T06:57:17Z</time>
      </trkpt>
      <trkpt lat="47.32457" lon="4.97089">
        <ele>452</ele>
        <time>2012-09-29T06:57:21Z</time>
      </trkpt>
      <trkpt lat="47.32457" lon="4.97081">
        <ele>452</ele>
        <time>2012-09-29T06:57:24Z</time>
      </trkpt>
      <trkpt lat="47.32457" lon="4.97073">
        <ele>453</ele>
        <time>2012-09-29T06:57:27Z</time>
      </trkpt>
      <trkpt lat="47.32457" lon="4.97065">
        <ele>452</ele>
        <time>2012-09-29T06:57:30Z</time>
      </trkpt>
      <trkpt lat="47.32457" lon="4.97058">
        <ele>454</ele>
        <time>2012-09-29T06:57:33Z</time>
      </trkpt>
      <trkpt lat="47.32456" lon="4.9705">
        <ele>454</ele>
        <time>2012-09-29T06:57:36Z</time>
      </trkpt>
      <trkpt lat="47.32457" lon="4.97042">
        <ele>455</ele>
        <time>2012-09-29T06:57:40Z</time>
      </trkpt>
      <trkpt lat="47.32456" lon="4.97034">
        <ele>455</ele>
        <time>2012-09-29T06:57:43Z</time>
      </trkpt>
      <trkpt lat="47.32457" lon="4.97025">
        <ele>456</ele>
        <time>2012-09-29T06:57:47Z</time>
      </trkpt>
      <trkpt lat="47.32456" lon="4.97017">
        <ele>455</ele>
        <time>2012-09-29T06:57:50Z</time>
      </trkpt>
      <trkpt lat="47.32457" lon="4.9701">
        <ele>455</ele>
        <time>2012-09-29T06:57:53Z</time>
      </trkpt>
      <trkpt lat="47.32457" lon="4.97">
        <ele>455</ele>
        <time>2012-09-29T06:57:57Z</time>
      </trkpt>
      <trkpt lat="47.32457" lon="4.96993">
        <ele>455</ele>
        <time>2012-09-29T06:58:00Z</time>
      </trkpt>
      <trkpt lat="47.32457" lon="4.96984">
        <ele>455</ele>
        <time>2012-09-29T06:58:04Z</time>
      </trkpt>
      <trkpt lat="47.32456" lon="4.96975">
        <ele>455</ele>
        <time>2012-09-29T06:58:08Z</time>
      </trkpt>
      <trkpt lat="47.32456" lon="4.96968">
        <ele>455</ele>
        <time>2012-09-29T06:58:11Z</time>
      </trkpt>
      <trkpt lat="47.32456" lon="4.9696">
        <ele>456</ele>
        <time>2012-09-29T06:58:14Z</time>
      </trkpt>
      <trkpt lat="47.32455" lon="4.96952">
        <ele>456</ele>
        <time>2012-09-29T06:58:17Z</time>
      </trkpt>
      <trkpt lat="47.32456" lon="4.96944">
        <ele>456</ele>
        <time>2012-09-29T06:58:21Z</time>
      </trkpt>
      <trkpt lat="47.32456" lon="4.96935">
        <ele>456</ele>
        <time>2012-09-29T06:58:24Z</time>
      </trkpt>
      <trkpt lat="47.32456" lon="4.96927">
        <ele>457</ele>
        <time>2012-09-29T06:58:27Z</time>
      </trkpt>
      <trkpt lat="47.32455" lon="4.96919">
        <ele>457</ele>
        <time>2012-09-29T06:58:31Z</time>
      </trkpt>
      <trkpt lat="47.32455" lon="4.96912">
        <ele>457</ele>
        <time>2012-09-29T06:58:34Z</time>
      </trkpt>
      <trkpt lat="47.32455" lon="4.96905">
        <ele>457</ele>
        <time>2012-09-29T06:58:37Z</time>
      </trkpt>
      <trkpt lat="47.32455" lon="4.96897">
        <ele>458</ele>
        <time>2012-09-29T06:58:40Z</time>
      </trkpt>
      <trkpt lat="47.32454" lon="4.96889">
        <ele>458</ele>
        <time>2012-09-29T06:58:44Z</time>
      </trkpt>
      <trkpt lat="47.32454" lon="4.96881">
        <ele>458</ele>
        <time>2012-09-29T06:58:48Z</time>
      </trkpt>
      <trkpt lat="47.32454" lon="4.96873">
        <ele>458</ele>
        <time>2012-09-29T06:58:51Z</time>
      </trkpt>
      <trkpt lat="47.32454" lon="4.96866">
        <ele>458</ele>
        <time>2012-09-29T06:58:54Z</time>
      </trkpt>
      <trkpt lat="47.32454" lon="4.96859">
        <ele>458</ele>
        <time>2012-09-29T06:58:57Z</time>
      </trkpt>
      <trkpt lat="47.32453" lon="4.96851">
        <ele>458</ele>
        <time>2012-09-29T06:59:00Z</time>
      </trkpt>
      <trkpt lat="47.32452" lon="4.96844">
        <ele>458</ele>
        <time>2012-09-29T06:59:03Z</time>
      </trkpt>
      <trkpt lat="47.32452" lon="4.96837">
        <ele>459</ele>
        <time>2012-09-29T06:59:06Z</time>
      </trkpt>
      <trkpt lat="47.32452" lon="4.96828">
        <ele>459</ele>
        <time>2012-09-29T06:59:10Z</time>
      </trkpt>
      <trkpt lat="47.32452" lon="4.96821">
        <ele>459</ele>
        <time>2012-09-29T06:59:13Z</time>
      </trkpt>
      <trkpt lat="47.32451" lon="4.96814">
        <ele>458</ele>
        <time>2012-09-29T06:59:16Z</time>
      </trkpt>
      <trkpt lat="47.32451" lon="4.96807">
        <ele>457</ele>
        <time>2012-09-29T06:59:19Z</time>
      </trkpt>
      <trkpt lat="47.32451" lon="4.96799">
        <ele>457</ele>
        <time>2012-09-29T06:59:23Z</time>
      </trkpt>
      <trkpt lat="47.32451" lon="4.9679">
        <ele>458</ele>
        <time>2012-09-29T06:59:27Z</time>
      </trkpt>
      <trkpt lat="47.32451" lon="4.96783">
        <ele>457</ele>
        <time>2012-09-29T06:59:30Z</time>
      </trkpt>
      <trkpt lat="47.32451" lon="4.96776">
        <ele>458</ele>
        <time>2012-09-29T06:59:33Z</time>
      </trkpt>
      <trkpt lat="47.32451" lon="4.96769">
        <ele>457</ele>
        <time>2012-09-29T06:59:36Z</time>
      </trkpt>
      <trkpt lat="47.3245" lon="4.96762">
        <ele>457</ele>
        <time>2012-09-29T06:59:39Z</time>
      </trkpt>
      <trkpt lat="47.3245" lon="4.96755">
        <ele>457</ele>
        <time>2012-09-29T06:59:42Z</time>
      </trkpt>
      <trkpt lat="47.3245" lon="4.96748">
        <ele>457</ele>
        <time>2012-09-29T06:59:45Z</time>
      </trkpt>
      <trkpt lat="47.3245" lon="4.96741">
        <ele>457</ele>
        <time>2012-09-29T06:59:48Z</time>
      </trkpt>
      <trkpt lat="47.3245" lon="4.96732">
        <ele>457</ele>
        <time>2012-09-29T06:59:52Z</time>
      </trkpt>
      <trkpt lat="47.32449" lon="4.96725">
        <ele>457</ele>
        <time>2012-09-29T06:59:55Z</time>
      </trkpt>
      <trkpt lat="47.32449" lon="4.96718">
        <ele>457</ele>
        <time>2012-09-29T06:59:58Z</time>
      </trkpt>
      <trkpt lat="47.3245" lon="4.96711">
        <ele>457</ele>
        <time>2012-09-29T07:00:01Z</time>
      </trkpt>
      <trkpt lat="47.3245" lon="4.96704">
        <ele>458</ele>
        <time>2012-09-29T07:00:04Z</time>
      </trkpt>
      <trkpt lat="47.32449" lon="4.96695">
        <ele>458</ele>
        <time>2012-09-29T07:00:08Z</time>
      </trkpt>
      <trkpt lat="47.32449" lon="4.96688">
        <ele>458</ele>
        <time>2012-09-29T07:00:11Z</time>
      </trkpt>
      <trkpt lat="47.32449" lon="4.96681">
        <ele>458</ele>
        <time>2012-09-29T07:00:14Z</time>
      </trkpt>
      <trkpt lat="47.32449" lon="4.96674">
        <ele>458</ele>
        <time>2012-09-29T07:00:17Z</time>
      </trkpt>
      <trkpt lat="47.32449" lon="4.96667">
        <ele>458</ele>
        <time>2012-09-29T07:00:20Z</time>
      </trkpt>
      <trkpt lat="47.3245" lon="4.9666">
        <ele>458</ele>
        <time>2012-09-29T07:00:23Z</time>
      </trkpt>
      <trkpt lat="47.32449" lon="4.96653">
        <ele>458</ele>
        <time>2012-09-29T07:00:26Z</time>
      </trkpt>
      <trkpt lat="47.32449" lon="4.96646">
        <ele>458</ele>
        <time>2012-09-29T07:00:29Z</time>
      </trkpt>
      <trkpt lat="47.32449" lon="4.96639">
        <ele>457</ele>
        <time>2012-09-29T07:00:32Z</time>
      </trkpt>
      <trkpt lat="47.32449" lon="4.96632">
        <ele>457</ele>
        <time>2012-09-29T07:00:35Z</time>
      </trkpt>
      <trkpt lat="47.32449" lon="4.96625">
        <ele>457</ele>
        <time>2012-09-29T07:00:38Z</time>
      </trkpt>
      <trkpt lat="47.32449" lon="4.96618">
        <ele>457</ele>
        <time>2012-09-29T07:00:41Z</time>
      </trkpt>
      <trkpt lat="47.3245" lon="4.96609">
        <ele>457</ele>
        <time>2012-09-29T07:00:45Z</time>
      </trkpt>
      <trkpt lat="47.32449" lon="4.96602">
        <ele>456</ele>
        <time>2012-09-29T07:00:48Z</time>
      </trkpt>
      <trkpt lat="47.32449" lon="4.96594">
        <ele>456</ele>
        <time>2012-09-29T07:00:55Z</time>
      </trkpt>
      <trkpt lat="47.32448" lon="4.96586">
        <ele>456</ele>
        <time>2012-09-29T07:00:59Z</time>
      </trkpt>
      <trkpt lat="47.32448" lon="4.96579">
        <ele>456</ele>
        <time>2012-09-29T07:01:02Z</time>
      </trkpt>
      <trkpt lat="47.32448" lon="4.96572">
        <ele>456</ele>
        <time>2012-09-29T07:01:05Z</time>
      </trkpt>
      <trkpt lat="47.32449" lon="4.96564">
        <ele>456</ele>
        <time>2012-09-29T07:01:08Z</time>
      </trkpt>
      <trkpt lat="47.3245" lon="4.96557">
        <ele>458</ele>
        <time>2012-09-29T07:01:11Z</time>
      </trkpt>
      <trkpt lat="47.32451" lon="4.96549">
        <ele>458</ele>
        <time>2012-09-29T07:01:14Z</time>
      </trkpt>
      <trkpt lat="47.32451" lon="4.96541">
        <ele>458</ele>
        <time>2012-09-29T07:01:17Z</time>
      </trkpt>
      <trkpt lat="47.32452" lon="4.96532">
        <ele>459</ele>
        <time>2012-09-29T07:01:21Z</time>
      </trkpt>
      <trkpt lat="47.32453" lon="4.96525">
        <ele>459</ele>
        <time>2012-09-29T07:01:24Z</time>
      </trkpt>
      <trkpt lat="47.32453" lon="4.96518">
        <ele>460</ele>
        <time>2012-09-29T07:01:27Z</time>
      </trkpt>
      <trkpt lat="47.32454" lon="4.96508">
        <ele>461</ele>
        <time>2012-09-29T07:01:31Z</time>
      </trkpt>
      <trkpt lat="47.32454" lon="4.96501">
        <ele>461</ele>
        <time>2012-09-29T07:01:34Z</time>
      </trkpt>
      <trkpt lat="47.32454" lon="4.96494">
        <ele>461</ele>
        <time>2012-09-29T07:01:37Z</time>
      </trkpt>
      <trkpt lat="47.32454" lon="4.96486">
        <ele>461</ele>
        <time>2012-09-29T07:01:40Z</time>
      </trkpt>
      <trkpt lat="47.32454" lon="4.96478">
        <ele>460</ele>
        <time>2012-09-29T07:01:43Z</time>
      </trkpt>
      <trkpt lat="47.32454" lon="4.96472">
        <ele>459</ele>
        <time>2012-09-29T07:01:46Z</time>
      </trkpt>
      <trkpt lat="47.32454" lon="4.96464">
        <ele>458</ele>
        <time>2012-09-29T07:01:49Z</time>
      </trkpt>
      <trkpt lat="47.32454" lon="4.96457">
        <ele>459</ele>
        <time>2012-09-29T07:01:52Z</time>
      </trkpt>
      <trkpt lat="47.32454" lon="4.96448">
        <ele>459</ele>
        <time>2012-09-29T07:01:56Z</time>
      </trkpt>
      <trkpt lat="47.32455" lon="4.96441">
        <ele>459</ele>
        <time>2012-09-29T07:01:59Z</time>
      </trkpt>
      <trkpt lat="47.32455" lon="4.96434">
        <ele>459</ele>
        <time>2012-09-29T07:02:02Z</time>
      </trkpt>
      <trkpt lat="47.32455" lon="4.96427">
        <ele>459</ele>
        <time>2012-09-29T07:02:05Z</time>
      </trkpt>
      <trkpt lat="47.32456" lon="4.96418">
        <ele>458</ele>
        <time>2012-09-29T07:02:08Z</time>
      </trkpt>
      <trkpt lat="47.32456" lon="4.96411">
        <ele>458</ele>
        <time>2012-09-29T07:02:11Z</time>
      </trkpt>
      <trkpt lat="47.32456" lon="4.96403">
        <ele>458</ele>
        <time>2012-09-29T07:02:14Z</time>
      </trkpt>
      <trkpt lat="47.32456" lon="4.96395">
        <ele>458</ele>
        <time>2012-09-29T07:02:17Z</time>
      </trkpt>
      <trkpt lat="47.32457" lon="4.96387">
        <ele>458</ele>
        <time>2012-09-29T07:02:20Z</time>
      </trkpt>
      <trkpt lat="47.32457" lon="4.9638">
        <ele>458</ele>
        <time>2012-09-29T07:02:23Z</time>
      </trkpt>
      <trkpt lat="47.32457" lon="4.96372">
        <ele>458</ele>
        <time>2012-09-29T07:02:26Z</time>
      </trkpt>
      <trkpt lat="47.32457" lon="4.96365">
        <ele>459</ele>
        <time>2012-09-29T07:02:29Z</time>
      </trkpt>
      <trkpt lat="47.32458" lon="4.96358">
        <ele>458</ele>
        <time>2012-09-29T07:02:32Z</time>
      </trkpt>
      <trkpt lat="47.32458" lon="4.96351">
        <ele>458</ele>
        <time>2012-09-29T07:02:35Z</time>
      </trkpt>
      <trkpt lat="47.32459" lon="4.96344">
        <ele>458</ele>
        <time>2012-09-29T07:02:38Z</time>
      </trkpt>
      <trkpt lat="47.32461" lon="4.96335">
        <ele>458</ele>
        <time>2012-09-29T07:02:42Z</time>
      </trkpt>
      <trkpt lat="47.32461" lon="4.96327">
        <ele>457</ele>
        <time>2012-09-29T07:02:45Z</time>
      </trkpt>
      <trkpt lat="47.32462" lon="4.96319">
        <ele>456</ele>
        <time>2012-09-29T07:02:48Z</time>
      </trkpt>
      <trkpt lat="47.32463" lon="4.9631">
        <ele>454</ele>
        <time>2012-09-29T07:02:51Z</time>
      </trkpt>
      <trkpt lat="47.32463" lon="4.96302">
        <ele>453</ele>
        <time>2012-09-29T07:02:54Z</time>
      </trkpt>
      <trkpt lat="47.32464" lon="4.96294">
        <ele>452</ele>
        <time>2012-09-29T07:02:57Z</time>
      </trkpt>
      <trkpt lat="47.32465" lon="4.96287">
        <ele>452</ele>
        <time>2012-09-29T07:03:00Z</time>
      </trkpt>
      <trkpt lat="47.32466" lon="4.96279">
        <ele>451</ele>
        <time>2012-09-29T07:03:03Z</time>
      </trkpt>
      <trkpt lat="47.32467" lon="4.96271">
        <ele>451</ele>
        <time>2012-09-29T07:03:06Z</time>
      </trkpt>
      <trkpt lat="47.32468" lon="4.96263">
        <ele>451</ele>
        <time>2012-09-29T07:03:09Z</time>
      </trkpt>
      <trkpt lat="47.32468" lon="4.96255">
        <ele>450</ele>
        <time>2012-09-29T07:03:13Z</time>
      </trkpt>
      <trkpt lat="47.32469" lon="4.96248">
        <ele>450</ele>
        <time>2012-09-29T07:03:16Z</time>
      </trkpt>
      <trkpt lat="47.3247" lon="4.96241">
        <ele>449</ele>
        <time>2012-09-29T07:03:19Z</time>
      </trkpt>
      <trkpt lat="47.3247" lon="4.96234">
        <ele>449</ele>
        <time>2012-09-29T07:03:22Z</time>
      </trkpt>
      <trkpt lat="47.32471" lon="4.96226">
        <ele>450</ele>
        <time>2012-09-29T07:03:25Z</time>
      </trkpt>
      <trkpt lat="47.32471" lon="4.96219">
        <ele>451</ele>
        <time>2012-09-29T07:03:28Z</time>
      </trkpt>
      <trkpt lat="47.32471" lon="4.9621">
        <ele>450</ele>
        <time>2012-09-29T07:03:32Z</time>
      </trkpt>
      <trkpt lat="47.32471" lon="4.96203">
        <ele>450</ele>
        <time>2012-09-29T07:03:35Z</time>
      </trkpt>
      <trkpt lat="47.32472" lon="4.96195">
        <ele>451</ele>
        <time>2012-09-29T07:03:38Z</time>
      </trkpt>
      <trkpt lat="47.32472" lon="4.96188">
        <ele>450</ele>
        <time>2012-09-29T07:03:41Z</time>
      </trkpt>
      <trkpt lat="47.32473" lon="4.96179">
        <ele>450</ele>
        <time>2012-09-29T07:03:45Z</time>
      </trkpt>
      <trkpt lat="47.32473" lon="4.9617">
        <ele>450</ele>
        <time>2012-09-29T07:03:49Z</time>
      </trkpt>
      <trkpt lat="47.32473" lon="4.96163">
        <ele>450</ele>
        <time>2012-09-29T07:03:52Z</time>
      </trkpt>
      <trkpt lat="47.32473" lon="4.96156">
        <ele>450</ele>
        <time>2012-09-29T07:03:55Z</time>
      </trkpt>
      <trkpt lat="47.32471" lon="4.96148">
        <ele>451</ele>
        <time>2012-09-29T07:03:59Z</time>
      </trkpt>
      <trkpt lat="47.32471" lon="4.96139">
        <ele>450</ele>
        <time>2012-09-29T07:04:03Z</time>
      </trkpt>
      <trkpt lat="47.3247" lon="4.96131">
        <ele>449</ele>
        <time>2012-09-29T07:04:06Z</time>
      </trkpt>
      <trkpt lat="47.32468" lon="4.96123">
        <ele>450</ele>
        <time>2012-09-29T07:04:09Z</time>
      </trkpt>
      <trkpt lat="47.32467" lon="4.96116">
        <ele>450</ele>
        <time>2012-09-29T07:04:12Z</time>
      </trkpt>
      <trkpt lat="47.32466" lon="4.96108">
        <ele>450</ele>
        <time>2012-09-29T07:04:16Z</time>
      </trkpt>
      <trkpt lat="47.32464" lon="4.96102">
        <ele>450</ele>
        <time>2012-09-29T07:04:19Z</time>
      </trkpt>
      <trkpt lat="47.32461" lon="4.96094">
        <ele>451</ele>
        <time>2012-09-29T07:04:23Z</time>
      </trkpt>
      <trkpt lat="47.32458" lon="4.96088">
        <ele>451</ele>
        <time>2012-09-29T07:04:26Z</time>
      </trkpt>
      <trkpt lat="47.32456" lon="4.96078">
        <ele>451</ele>
        <time>2012-09-29T07:04:30Z</time>
      </trkpt>
      <trkpt lat="47.32453" lon="4.96072">
        <ele>451</ele>
        <time>2012-09-29T07:04:34Z</time>
      </trkpt>
      <trkpt lat="47.32451" lon="4.96064">
        <ele>452</ele>
        <time>2012-09-29T07:04:38Z</time>
      </trkpt>
      <trkpt lat="47.32448" lon="4.9606">
        <ele>453</ele>
        <time>2012-09-29T07:04:44Z</time>
      </trkpt>
      <trkpt lat="47.32443" lon="4.9606">
        <ele>455</ele>
        <time>2012-09-29T07:04:53Z</time>
      </trkpt>
      <trkpt lat="47.32443" lon="4.9606">
        <ele>455</ele>
        <time>2012-09-29T07:04:53Z</time>
      </trkpt>
      <trkpt lat="47.32443" lon="4.9606">
        <ele>454</ele>
        <time>2012-09-29T07:04:56Z</time>
      </trkpt>
      <trkpt lat="47.32438" lon="4.96061">
        <ele>454</ele>
        <time>2012-09-29T07:05:12Z</time>
      </trkpt>
      <trkpt lat="47.32433" lon="4.96059">
        <ele>454</ele>
        <time>2012-09-29T07:05:18Z</time>
      </trkpt>
      <trkpt lat="47.32427" lon="4.96059">
        <ele>455</ele>
        <time>2012-09-29T07:05:24Z</time>
      </trkpt>
      <trkpt lat="47.32422" lon="4.96059">
        <ele>455</ele>
        <time>2012-09-29T07:05:28Z</time>
      </trkpt>
      <trkpt lat="47.32416" lon="4.96058">
        <ele>455</ele>
        <time>2012-09-29T07:05:32Z</time>
      </trkpt>
      <trkpt lat="47.32411" lon="4.96057">
        <ele>455</ele>
        <time>2012-09-29T07:05:36Z</time>
      </trkpt>
      <trkpt lat="47.32405" lon="4.96056">
        <ele>455</ele>
        <time>2012-09-29T07:05:40Z</time>
      </trkpt>
      <trkpt lat="47.32399" lon="4.96055">
        <ele>454</ele>
        <time>2012-09-29T07:05:44Z</time>
      </trkpt>
      <trkpt lat="47.32394" lon="4.96054">
        <ele>455</ele>
        <time>2012-09-29T07:05:48Z</time>
      </trkpt>
      <trkpt lat="47.32388" lon="4.96052">
        <ele>454</ele>
        <time>2012-09-29T07:05:52Z</time>
      </trkpt>
      <trkpt lat="47.32383" lon="4.96051">
        <ele>454</ele>
        <time>2012-09-29T07:05:56Z</time>
      </trkpt>
      <trkpt lat="47.32377" lon="4.96049">
        <ele>455</ele>
        <time>2012-09-29T07:05:59Z</time>
      </trkpt>
      <trkpt lat="47.32372" lon="4.96048">
        <ele>455</ele>
        <time>2012-09-29T07:06:02Z</time>
      </trkpt>
      <trkpt lat="47.32366" lon="4.96046">
        <ele>455</ele>
        <time>2012-09-29T07:06:05Z</time>
      </trkpt>
      <trkpt lat="47.32361" lon="4.96043">
        <ele>454</ele>
        <time>2012-09-29T07:06:08Z</time>
      </trkpt>
      <trkpt lat="47.32355" lon="4.96042">
        <ele>454</ele>
        <time>2012-09-29T07:06:12Z</time>
      </trkpt>
      <trkpt lat="47.3235" lon="4.9604">
        <ele>454</ele>
        <time>2012-09-29T07:06:16Z</time>
      </trkpt>
      <trkpt lat="47.32344" lon="4.96039">
        <ele>454</ele>
        <time>2012-09-29T07:06:20Z</time>
      </trkpt>
      <trkpt lat="47.32338" lon="4.96037">
        <ele>454</ele>
        <time>2012-09-29T07:06:24Z</time>
      </trkpt>
      <trkpt lat="47.32333" lon="4.96036">
        <ele>454</ele>
        <time>2012-09-29T07:06:27Z</time>
      </trkpt>
      <trkpt lat="47.32328" lon="4.96035">
        <ele>455</ele>
        <time>2012-09-29T07:06:31Z</time>
      </trkpt>
      <trkpt lat="47.32323" lon="4.96034">
        <ele>455</ele>
        <time>2012-09-29T07:06:34Z</time>
      </trkpt>
      <trkpt lat="47.32318" lon="4.96032">
        <ele>454</ele>
        <time>2012-09-29T07:06:38Z</time>
      </trkpt>
      <trkpt lat="47.32312" lon="4.9603">
        <ele>454</ele>
        <time>2012-09-29T07:06:43Z</time>
      </trkpt>
      <trkpt lat="47.32307" lon="4.96029">
        <ele>455</ele>
        <time>2012-09-29T07:06:47Z</time>
      </trkpt>
      <trkpt lat="47.32302" lon="4.96028">
        <ele>454</ele>
        <time>2012-09-29T07:06:51Z</time>
      </trkpt>
      <trkpt lat="47.32297" lon="4.96028">
        <ele>454</ele>
        <time>2012-09-29T07:06:54Z</time>
      </trkpt>
      <trkpt lat="47.32292" lon="4.96027">
        <ele>455</ele>
        <time>2012-09-29T07:06:57Z</time>
      </trkpt>
      <trkpt lat="47.32287" lon="4.96026">
        <ele>455</ele>
        <time>2012-09-29T07:07:01Z</time>
      </trkpt>
      <trkpt lat="47.32282" lon="4.96024">
        <ele>455</ele>
        <time>2012-09-29T07:07:04Z</time>
      </trkpt>
      <trkpt lat="47.32276" lon="4.96023">
        <ele>455</ele>
        <time>2012-09-29T07:07:08Z</time>
      </trkpt>
      <trkpt lat="47.32271" lon="4.96023">
        <ele>455</ele>
        <time>2012-09-29T07:07:11Z</time>
      </trkpt>
      <trkpt lat="47.32266" lon="4.96022">
        <ele>455</ele>
        <time>2012-09-29T07:07:14Z</time>
      </trkpt>
      <trkpt lat="47.3226" lon="4.9602">
        <ele>454</ele>
        <time>2012-09-29T07:07:18Z</time>
      </trkpt>
      <trkpt lat="47.32255" lon="4.9602">
        <ele>456</ele>
        <time>2012-09-29T07:07:22Z</time>
      </trkpt>
      <trkpt lat="47.32249" lon="4.96018">
        <ele>455</ele>
        <time>2012-09-29T07:07:26Z</time>
      </trkpt>
      <trkpt lat="47.32245" lon="4.96014">
        <ele>455</ele>
        <time>2012-09-29T07:07:29Z</time>
      </trkpt>
      <trkpt lat="47.3224" lon="4.96012">
        <ele>455</ele>
        <time>2012-09-29T07:07:32Z</time>
      </trkpt>
      <trkpt lat="47.32234" lon="4.9601">
        <ele>456</ele>
        <time>2012-09-29T07:07:35Z</time>
      </trkpt>
      <trkpt lat="47.3223" lon="4.96004">
        <ele>455</ele>
        <time>2012-09-29T07:07:38Z</time>
      </trkpt>
      <trkpt lat="47.32224" lon="4.95999">
        <ele>453</ele>
        <time>2012-09-29T07:07:42Z</time>
      </trkpt>
      <trkpt lat="47.32221" lon="4.95994">
        <ele>453</ele>
        <time>2012-09-29T07:07:45Z</time>
      </trkpt>
      <trkpt lat="47.32215" lon="4.95991">
        <ele>455</ele>
        <time>2012-09-29T07:07:50Z</time>
      </trkpt>
      <trkpt lat="47.32211" lon="4.95986">
        <ele>454</ele>
        <time>2012-09-29T07:07:53Z</time>
      </trkpt>
      <trkpt lat="47.32206" lon="4.95981">
        <ele>454</ele>
        <time>2012-09-29T07:07:57Z</time>
      </trkpt>
      <trkpt lat="47.32202" lon="4.95976">
        <ele>452</ele>
        <time>2012-09-29T07:08:00Z</time>
      </trkpt>
      <trkpt lat="47.32199" lon="4.95971">
        <ele>450</ele>
        <time>2012-09-29T07:08:04Z</time>
      </trkpt>
      <trkpt lat="47.32195" lon="4.95967">
        <ele>449</ele>
        <time>2012-09-29T07:08:07Z</time>
      </trkpt>
      <trkpt lat="47.3219" lon="4.95962">
        <ele>448</ele>
        <time>2012-09-29T07:08:10Z</time>
      </trkpt>
      <trkpt lat="47.32186" lon="4.95957">
        <ele>443</ele>
        <time>2012-09-29T07:08:13Z</time>
      </trkpt>
      <trkpt lat="47.32181" lon="4.95954">
        <ele>443</ele>
        <time>2012-09-29T07:08:16Z</time>
      </trkpt>
      <trkpt lat="47.32176" lon="4.95951">
        <ele>442</ele>
        <time>2012-09-29T07:08:19Z</time>
      </trkpt>
      <trkpt lat="47.32171" lon="4.95948">
        <ele>441</ele>
        <time>2012-09-29T07:08:22Z</time>
      </trkpt>
      <trkpt lat="47.32166" lon="4.95946">
        <ele>440</ele>
        <time>2012-09-29T07:08:26Z</time>
      </trkpt>
      <trkpt lat="47.32161" lon="4.95945">
        <ele>440</ele>
        <time>2012-09-29T07:08:29Z</time>
      </trkpt>
      <trkpt lat="47.32156" lon="4.95945">
        <ele>440</ele>
        <time>2012-09-29T07:08:32Z</time>
      </trkpt>
      <trkpt lat="47.3215" lon="4.95944">
        <ele>439</ele>
        <time>2012-09-29T07:08:35Z</time>
      </trkpt>
      <trkpt lat="47.32145" lon="4.95944">
        <ele>437</ele>
        <time>2012-09-29T07:08:38Z</time>
      </trkpt>
      <trkpt lat="47.3214" lon="4.95943">
        <ele>436</ele>
        <time>2012-09-29T07:08:42Z</time>
      </trkpt>
      <trkpt lat="47.32134" lon="4.95945">
        <ele>436</ele>
        <time>2012-09-29T07:08:45Z</time>
      </trkpt>
      <trkpt lat="47.32129" lon="4.95945">
        <ele>436</ele>
        <time>2012-09-29T07:08:48Z</time>
      </trkpt>
      <trkpt lat="47.32123" lon="4.95946">
        <ele>434</ele>
        <time>2012-09-29T07:08:51Z</time>
      </trkpt>
      <trkpt lat="47.32117" lon="4.95948">
        <ele>435</ele>
        <time>2012-09-29T07:08:54Z</time>
      </trkpt>
      <trkpt lat="47.3211" lon="4.95949">
        <ele>435</ele>
        <time>2012-09-29T07:08:57Z</time>
      </trkpt>
      <trkpt lat="47.32104" lon="4.95949">
        <ele>435</ele>
        <time>2012-09-29T07:09:00Z</time>
      </trkpt>
      <trkpt lat="47.32098" lon="4.95947">
        <ele>434</ele>
        <time>2012-09-29T07:09:03Z</time>
      </trkpt>
      <trkpt lat="47.32092" lon="4.95945">
        <ele>433</ele>
        <time>2012-09-29T07:09:06Z</time>
      </trkpt>
      <trkpt lat="47.32087" lon="4.95942">
        <ele>432</ele>
        <time>2012-09-29T07:09:08Z</time>
      </trkpt>
      <trkpt lat="47.32082" lon="4.95939">
        <ele>432</ele>
        <time>2012-09-29T07:09:10Z</time>
      </trkpt>
      <trkpt lat="47.32077" lon="4.95935">
        <ele>430</ele>
        <time>2012-09-29T07:09:13Z</time>
      </trkpt>
      <trkpt lat="47.32073" lon="4.95932">
        <ele>429</ele>
        <time>2012-09-29T07:09:15Z</time>
      </trkpt>
      <trkpt lat="47.32067" lon="4.95927">
        <ele>429</ele>
        <time>2012-09-29T07:09:18Z</time>
      </trkpt>
      <trkpt lat="47.32064" lon="4.95923">
        <ele>429</ele>
        <time>2012-09-29T07:09:20Z</time>
      </trkpt>
      <trkpt lat="47.32059" lon="4.95918">
        <ele>430</ele>
        <time>2012-09-29T07:09:22Z</time>
      </trkpt>
      <trkpt lat="47.32056" lon="4.95913">
        <ele>431</ele>
        <time>2012-09-29T07:09:24Z</time>
      </trkpt>
      <trkpt lat="47.32052" lon="4.95908">
        <ele>431</ele>
        <time>2012-09-29T07:09:26Z</time>
      </trkpt>
      <trkpt lat="47.32049" lon="4.95901">
        <ele>430</ele>
        <time>2012-09-29T07:09:29Z</time>
      </trkpt>
      <trkpt lat="47.32045" lon="4.95894">
        <ele>428</ele>
        <time>2012-09-29T07:09:32Z</time>
      </trkpt>
      <trkpt lat="47.32041" lon="4.95888">
        <ele>426</ele>
        <time>2012-09-29T07:09:35Z</time>
      </trkpt>
      <trkpt lat="47.32035" lon="4.95887">
        <ele>426</ele>
        <time>2012-09-29T07:09:40Z</time>
      </trkpt>
      <trkpt lat="47.3203" lon="4.95885">
        <ele>426</ele>
        <time>2012-09-29T07:09:43Z</time>
      </trkpt>
      <trkpt lat="47.32025" lon="4.95883">
        <ele>426</ele>
        <time>2012-09-29T07:09:46Z</time>
      </trkpt>
      <trkpt lat="47.32019" lon="4.95882">
        <ele>425</ele>
        <time>2012-09-29T07:09:49Z</time>
      </trkpt>
      <trkpt lat="47.32014" lon="4.9588">
        <ele>426</ele>
        <time>2012-09-29T07:09:51Z</time>
      </trkpt>
      <trkpt lat="47.32009" lon="4.95879">
        <ele>427</ele>
        <time>2012-09-29T07:09:54Z</time>
      </trkpt>
      <trkpt lat="47.32004" lon="4.95877">
        <ele>428</ele>
        <time>2012-09-29T07:09:57Z</time>
      </trkpt>
      <trkpt lat="47.31999" lon="4.95876">
        <ele>430</ele>
        <time>2012-09-29T07:10:01Z</time>
      </trkpt>
      <trkpt lat="47.31993" lon="4.95875">
        <ele>431</ele>
        <time>2012-09-29T07:10:04Z</time>
      </trkpt>
      <trkpt lat="47.31988" lon="4.95873">
        <ele>432</ele>
        <time>2012-09-29T07:10:07Z</time>
      </trkpt>
      <trkpt lat="47.31983" lon="4.95871">
        <ele>432</ele>
        <time>2012-09-29T07:10:10Z</time>
      </trkpt>
      <trkpt lat="47.31978" lon="4.95868">
        <ele>433</ele>
        <time>2012-09-29T07:10:13Z</time>
      </trkpt>
      <trkpt lat="47.31972" lon="4.95866">
        <ele>433</ele>
        <time>2012-09-29T07:10:16Z</time>
      </trkpt>
      <trkpt lat="47.31967" lon="4.95864">
        <ele>433</ele>
        <time>2012-09-29T07:10:19Z</time>
      </trkpt>
      <trkpt lat="47.31962" lon="4.95862">
        <ele>434</ele>
        <time>2012-09-29T07:10:22Z</time>
      </trkpt>
      <trkpt lat="47.31957" lon="4.95858">
        <ele>434</ele>
        <time>2012-09-29T07:10:25Z</time>
      </trkpt>
      <trkpt lat="47.31952" lon="4.95856">
        <ele>434</ele>
        <time>2012-09-29T07:10:28Z</time>
      </trkpt>
      <trkpt lat="47.31947" lon="4.95853">
        <ele>434</ele>
        <time>2012-09-29T07:10:31Z</time>
      </trkpt>
      <trkpt lat="47.31941" lon="4.95851">
        <ele>435</ele>
        <time>2012-09-29T07:10:34Z</time>
      </trkpt>
      <trkpt lat="47.31936" lon="4.95848">
        <ele>435</ele>
        <time>2012-09-29T07:10:37Z</time>
      </trkpt>
      <trkpt lat="47.31931" lon="4.95845">
        <ele>436</ele>
        <time>2012-09-29T07:10:40Z</time>
      </trkpt>
      <trkpt lat="47.31926" lon="4.95843">
        <ele>437</ele>
        <time>2012-09-29T07:10:43Z</time>
      </trkpt>
      <trkpt lat="47.31921" lon="4.95841">
        <ele>437</ele>
        <time>2012-09-29T07:10:46Z</time>
      </trkpt>
      <trkpt lat="47.31915" lon="4.95838">
        <ele>439</ele>
        <time>2012-09-29T07:10:50Z</time>
      </trkpt>
      <trkpt lat="47.31909" lon="4.95836">
        <ele>442</ele>
        <time>2012-09-29T07:10:54Z</time>
      </trkpt>
      <trkpt lat="47.31904" lon="4.95833">
        <ele>442</ele>
        <time>2012-09-29T07:10:57Z</time>
      </trkpt>
      <trkpt lat="47.319" lon="4.9583">
        <ele>443</ele>
        <time>2012-09-29T07:11:00Z</time>
      </trkpt>
      <trkpt lat="47.31896" lon="4.95827">
        <ele>443</ele>
        <time>2012-09-29T07:11:03Z</time>
      </trkpt>
      <trkpt lat="47.31891" lon="4.95822">
        <ele>443</ele>
        <time>2012-09-29T07:11:06Z</time>
      </trkpt>
      <trkpt lat="47.31887" lon="4.9582">
        <ele>443</ele>
        <time>2012-09-29T07:11:09Z</time>
      </trkpt>
      <trkpt lat="47.31883" lon="4.95817">
        <ele>444</ele>
        <time>2012-09-29T07:11:12Z</time>
      </trkpt>
      <trkpt lat="47.31878" lon="4.95814">
        <ele>445</ele>
        <time>2012-09-29T07:11:15Z</time>
      </trkpt>
      <trkpt lat="47.31874" lon="4.95809">
        <ele>445</ele>
        <time>2012-09-29T07:11:18Z</time>
      </trkpt>
      <trkpt lat="47.31871" lon="4.95804">
        <ele>445</ele>
        <time>2012-09-29T07:11:21Z</time>
      </trkpt>
      <trkpt lat="47.31868" lon="4.95799">
        <ele>446</ele>
        <time>2012-09-29T07:11:24Z</time>
      </trkpt>
      <trkpt lat="47.31866" lon="4.95793">
        <ele>447</ele>
        <time>2012-09-29T07:11:27Z</time>
      </trkpt>
      <trkpt lat="47.31865" lon="4.95784">
        <ele>449</ele>
        <time>2012-09-29T07:11:31Z</time>
      </trkpt>
      <trkpt lat="47.31865" lon="4.95777">
        <ele>450</ele>
        <time>2012-09-29T07:11:34Z</time>
      </trkpt>
      <trkpt lat="47.31864" lon="4.95769">
        <ele>450</ele>
        <time>2012-09-29T07:11:37Z</time>
      </trkpt>
      <trkpt lat="47.31861" lon="4.95762">
        <ele>453</ele>
        <time>2012-09-29T07:11:41Z</time>
      </trkpt>
      <trkpt lat="47.31858" lon="4.95756">
        <ele>456</ele>
        <time>2012-09-29T07:11:45Z</time>
      </trkpt>
      <trkpt lat="47.31856" lon="4.95749">
        <ele>458</ele>
        <time>2012-09-29T07:11:48Z</time>
      </trkpt>
      <trkpt lat="47.31853" lon="4.95742">
        <ele>458</ele>
        <time>2012-09-29T07:11:51Z</time>
      </trkpt>
      <trkpt lat="47.3185" lon="4.95736">
        <ele>459</ele>
        <time>2012-09-29T07:11:54Z</time>
      </trkpt>
      <trkpt lat="47.31847" lon="4.95729">
        <ele>460</ele>
        <time>2012-09-29T07:11:57Z</time>
      </trkpt>
      <trkpt lat="47.31843" lon="4.95724">
        <ele>460</ele>
        <time>2012-09-29T07:12:00Z</time>
      </trkpt>
      <trkpt lat="47.31839" lon="4.95722">
        <ele>459</ele>
        <time>2012-09-29T07:12:03Z</time>
      </trkpt>
      <trkpt lat="47.31834" lon="4.95718">
        <ele>458</ele>
        <time>2012-09-29T07:12:06Z</time>
      </trkpt>
      <trkpt lat="47.31829" lon="4.95715">
        <ele>457</ele>
        <time>2012-09-29T07:12:09Z</time>
      </trkpt>
      <trkpt lat="47.31823" lon="4.95713">
        <ele>457</ele>
        <time>2012-09-29T07:12:12Z</time>
      </trkpt>
      <trkpt lat="47.31817" lon="4.95712">
        <ele>457</ele>
        <time>2012-09-29T07:12:15Z</time>
      </trkpt>
      <trkpt lat="47.31812" lon="4.95711">
        <ele>457</ele>
        <time>2012-09-29T07:12:18Z</time>
      </trkpt>
      <trkpt lat="47.31807" lon="4.95709">
        <ele>455</ele>
        <time>2012-09-29T07:12:21Z</time>
      </trkpt>
      <trkpt lat="47.31801" lon="4.95706">
        <ele>454</ele>
        <time>2012-09-29T07:12:24Z</time>
      </trkpt>
      <trkpt lat="47.31796" lon="4.95706">
        <ele>455</ele>
        <time>2012-09-29T07:12:27Z</time>
      </trkpt>
      <trkpt lat="47.31791" lon="4.95707">
        <ele>456</ele>
        <time>2012-09-29T07:12:30Z</time>
      </trkpt>
      <trkpt lat="47.31785" lon="4.95708">
        <ele>456</ele>
        <time>2012-09-29T07:12:33Z</time>
      </trkpt>
      <trkpt lat="47.3178" lon="4.95708">
        <ele>457</ele>
        <time>2012-09-29T07:12:36Z</time>
      </trkpt>
      <trkpt lat="47.31774" lon="4.95709">
        <ele>457</ele>
        <time>2012-09-29T07:12:39Z</time>
      </trkpt>
      <trkpt lat="47.3177" lon="4.9571">
        <ele>458</ele>
        <time>2012-09-29T07:12:42Z</time>
      </trkpt>
      <trkpt lat="47.31764" lon="4.9571">
        <ele>459</ele>
        <time>2012-09-29T07:12:45Z</time>
      </trkpt>
      <trkpt lat="47.31759" lon="4.95711">
        <ele>459</ele>
        <time>2012-09-29T07:12:48Z</time>
      </trkpt>
      <trkpt lat="47.31754" lon="4.9571">
        <ele>459</ele>
        <time>2012-09-29T07:12:51Z</time>
      </trkpt>
      <trkpt lat="47.31749" lon="4.95711">
        <ele>460</ele>
        <time>2012-09-29T07:12:54Z</time>
      </trkpt>
      <trkpt lat="47.31744" lon="4.95711">
        <ele>460</ele>
        <time>2012-09-29T07:12:57Z</time>
      </trkpt>
      <trkpt lat="47.31738" lon="4.95711">
        <ele>460</ele>
        <time>2012-09-29T07:13:00Z</time>
      </trkpt>
      <trkpt lat="47.31733" lon="4.9571">
        <ele>461</ele>
        <time>2012-09-29T07:13:03Z</time>
      </trkpt>
      <trkpt lat="47.31727" lon="4.9571">
        <ele>460</ele>
        <time>2012-09-29T07:13:06Z</time>
      </trkpt>
      <trkpt lat="47.31722" lon="4.9571">
        <ele>461</ele>
        <time>2012-09-29T07:13:09Z</time>
      </trkpt>
      <trkpt lat="47.31717" lon="4.9571">
        <ele>463</ele>
        <time>2012-09-29T07:13:13Z</time>
      </trkpt>
      <trkpt lat="47.31712" lon="4.9571">
        <ele>464</ele>
        <time>2012-09-29T07:13:16Z</time>
      </trkpt>
      <trkpt lat="47.31707" lon="4.9571">
        <ele>465</ele>
        <time>2012-09-29T07:13:19Z</time>
      </trkpt>
      <trkpt lat="47.31702" lon="4.95709">
        <ele>466</ele>
        <time>2012-09-29T07:13:22Z</time>
      </trkpt>
      <trkpt lat="47.31697" lon="4.9571">
        <ele>466</ele>
        <time>2012-09-29T07:13:26Z</time>
      </trkpt>
      <trkpt lat="47.31691" lon="4.95712">
        <ele>466</ele>
        <time>2012-09-29T07:13:31Z</time>
      </trkpt>
      <trkpt lat="47.31686" lon="4.95714">
        <ele>466</ele>
        <time>2012-09-29T07:13:34Z</time>
      </trkpt>
      <trkpt lat="47.31686" lon="4.95714">
        <ele>466</ele>
        <time>2012-09-29T07:13:34Z</time>
      </trkpt>
      <trkpt lat="47.31686" lon="4.95714">
        <ele>466</ele>
        <time>2012-09-29T07:13:35Z</time>
      </trkpt>
      <trkpt lat="47.31681" lon="4.95712">
        <ele>466</ele>
        <time>2012-09-29T07:13:40Z</time>
      </trkpt>
      <trkpt lat="47.31672" lon="4.95713">
        <ele>467</ele>
        <time>2012-09-29T07:13:43Z</time>
      </trkpt>
      <trkpt lat="47.31667" lon="4.95715">
        <ele>468</ele>
        <time>2012-09-29T07:13:45Z</time>
      </trkpt>
      <trkpt lat="47.3166" lon="4.95716">
        <ele>469</ele>
        <time>2012-09-29T07:13:48Z</time>
      </trkpt>
      <trkpt lat="47.31656" lon="4.95712">
        <ele>471</ele>
        <time>2012-09-29T07:13:51Z</time>
      </trkpt>
      <trkpt lat="47.31652" lon="4.95705">
        <ele>471</ele>
        <time>2012-09-29T07:13:54Z</time>
      </trkpt>
      <trkpt lat="47.31649" lon="4.95699">
        <ele>473</ele>
        <time>2012-09-29T07:13:58Z</time>
      </trkpt>
      <trkpt lat="47.31646" lon="4.95693">
        <ele>476</ele>
        <time>2012-09-29T07:14:02Z</time>
      </trkpt>
      <trkpt lat="47.31642" lon="4.95687">
        <ele>475</ele>
        <time>2012-09-29T07:14:05Z</time>
      </trkpt>
      <trkpt lat="47.31639" lon="4.95679">
        <ele>476</ele>
        <time>2012-09-29T07:14:08Z</time>
      </trkpt>
      <trkpt lat="47.31635" lon="4.95673">
        <ele>476</ele>
        <time>2012-09-29T07:14:11Z</time>
      </trkpt>
      <trkpt lat="47.31633" lon="4.95666">
        <ele>477</ele>
        <time>2012-09-29T07:14:14Z</time>
      </trkpt>
      <trkpt lat="47.31628" lon="4.95663">
        <ele>478</ele>
        <time>2012-09-29T07:14:18Z</time>
      </trkpt>
      <trkpt lat="47.31623" lon="4.95661">
        <ele>479</ele>
        <time>2012-09-29T07:14:23Z</time>
      </trkpt>
      <trkpt lat="47.31619" lon="4.95657">
        <ele>479</ele>
        <time>2012-09-29T07:14:26Z</time>
      </trkpt>
      <trkpt lat="47.31614" lon="4.95652">
        <ele>478</ele>
        <time>2012-09-29T07:14:30Z</time>
      </trkpt>
      <trkpt lat="47.31608" lon="4.95647">
        <ele>478</ele>
        <time>2012-09-29T07:14:33Z</time>
      </trkpt>
      <trkpt lat="47.31603" lon="4.95644">
        <ele>474</ele>
        <time>2012-09-29T07:14:36Z</time>
      </trkpt>
      <trkpt lat="47.31598" lon="4.9564">
        <ele>473</ele>
        <time>2012-09-29T07:14:40Z</time>
      </trkpt>
      <trkpt lat="47.31593" lon="4.95639">
        <ele>475</ele>
        <time>2012-09-29T07:14:43Z</time>
      </trkpt>
      <trkpt lat="47.31587" lon="4.95638">
        <ele>474</ele>
        <time>2012-09-29T07:14:46Z</time>
      </trkpt>
      <trkpt lat="47.3158" lon="4.95636">
        <ele>474</ele>
        <time>2012-09-29T07:14:50Z</time>
      </trkpt>
      <trkpt lat="47.31574" lon="4.95635">
        <ele>474</ele>
        <time>2012-09-29T07:14:53Z</time>
      </trkpt>
      <trkpt lat="47.3157" lon="4.95634">
        <ele>473</ele>
        <time>2012-09-29T07:14:55Z</time>
      </trkpt>
      <trkpt lat="47.31564" lon="4.95632">
        <ele>473</ele>
        <time>2012-09-29T07:14:58Z</time>
      </trkpt>
      <trkpt lat="47.31559" lon="4.95628">
        <ele>472</ele>
        <time>2012-09-29T07:15:01Z</time>
      </trkpt>
      <trkpt lat="47.31553" lon="4.95624">
        <ele>471</ele>
        <time>2012-09-29T07:15:04Z</time>
      </trkpt>
      <trkpt lat="47.31548" lon="4.95624">
        <ele>472</ele>
        <time>2012-09-29T07:15:07Z</time>
      </trkpt>
      <trkpt lat="47.31542" lon="4.95627">
        <ele>472</ele>
        <time>2012-09-29T07:15:11Z</time>
      </trkpt>
      <trkpt lat="47.31537" lon="4.95629">
        <ele>472</ele>
        <time>2012-09-29T07:15:14Z</time>
      </trkpt>
      <trkpt lat="47.3153" lon="4.95632">
        <ele>472</ele>
        <time>2012-09-29T07:15:17Z</time>
      </trkpt>
      <trkpt lat="47.31528" lon="4.95638">
        <ele>471</ele>
        <time>2012-09-29T07:15:20Z</time>
      </trkpt>
      <trkpt lat="47.31526" lon="4.95645">
        <ele>472</ele>
        <time>2012-09-29T07:15:23Z</time>
      </trkpt>
      <trkpt lat="47.31522" lon="4.9565">
        <ele>473</ele>
        <time>2012-09-29T07:15:25Z</time>
      </trkpt>
      <trkpt lat="47.31522" lon="4.95657">
        <ele>473</ele>
        <time>2012-09-29T07:15:28Z</time>
      </trkpt>
      <trkpt lat="47.31522" lon="4.95664">
        <ele>475</ele>
        <time>2012-09-29T07:15:30Z</time>
      </trkpt>
      <trkpt lat="47.31524" lon="4.95671">
        <ele>474</ele>
        <time>2012-09-29T07:15:32Z</time>
      </trkpt>
      <trkpt lat="47.31524" lon="4.9568">
        <ele>474</ele>
        <time>2012-09-29T07:15:35Z</time>
      </trkpt>
      <trkpt lat="47.31523" lon="4.95687">
        <ele>476</ele>
        <time>2012-09-29T07:15:38Z</time>
      </trkpt>
      <trkpt lat="47.31523" lon="4.95695">
        <ele>475</ele>
        <time>2012-09-29T07:15:41Z</time>
      </trkpt>
      <trkpt lat="47.31523" lon="4.95704">
        <ele>473</ele>
        <time>2012-09-29T07:15:44Z</time>
      </trkpt>
      <trkpt lat="47.31522" lon="4.95715">
        <ele>477</ele>
        <time>2012-09-29T07:15:47Z</time>
      </trkpt>
      <trkpt lat="47.31518" lon="4.95722">
        <ele>478</ele>
        <time>2012-09-29T07:15:50Z</time>
      </trkpt>
      <trkpt lat="47.31514" lon="4.9573">
        <ele>479</ele>
        <time>2012-09-29T07:15:53Z</time>
      </trkpt>
      <trkpt lat="47.3151" lon="4.95736">
        <ele>480</ele>
        <time>2012-09-29T07:15:55Z</time>
      </trkpt>
      <trkpt lat="47.31506" lon="4.9574">
        <ele>480</ele>
        <time>2012-09-29T07:15:57Z</time>
      </trkpt>
      <trkpt lat="47.31498" lon="4.95744">
        <ele>479</ele>
        <time>2012-09-29T07:15:59Z</time>
      </trkpt>
      <trkpt lat="47.31497" lon="4.95752">
        <ele>477</ele>
        <time>2012-09-29T07:16:01Z</time>
      </trkpt>
      <trkpt lat="47.31493" lon="4.95758">
        <ele>477</ele>
        <time>2012-09-29T07:16:04Z</time>
      </trkpt>
      <trkpt lat="47.31489" lon="4.95764">
        <ele>476</ele>
        <time>2012-09-29T07:16:07Z</time>
      </trkpt>
      <trkpt lat="47.31487" lon="4.95772">
        <ele>476</ele>
        <time>2012-09-29T07:16:10Z</time>
      </trkpt>
      <trkpt lat="47.31488" lon="4.95782">
        <ele>475</ele>
        <time>2012-09-29T07:16:13Z</time>
      </trkpt>
      <trkpt lat="47.3149" lon="4.95789">
        <ele>472</ele>
        <time>2012-09-29T07:16:15Z</time>
      </trkpt>
      <trkpt lat="47.31486" lon="4.95796">
        <ele>473</ele>
        <time>2012-09-29T07:16:17Z</time>
      </trkpt>
      <trkpt lat="47.31484" lon="4.95802">
        <ele>474</ele>
        <time>2012-09-29T07:16:19Z</time>
      </trkpt>
      <trkpt lat="47.3148" lon="4.95807">
        <ele>474</ele>
        <time>2012-09-29T07:16:21Z</time>
      </trkpt>
      <trkpt lat="47.31477" lon="4.95814">
        <ele>473</ele>
        <time>2012-09-29T07:16:23Z</time>
      </trkpt>
      <trkpt lat="47.31477" lon="4.95821">
        <ele>473</ele>
        <time>2012-09-29T07:16:26Z</time>
      </trkpt>
      <trkpt lat="47.31478" lon="4.95829">
        <ele>473</ele>
        <time>2012-09-29T07:16:29Z</time>
      </trkpt>
      <trkpt lat="47.3148" lon="4.95838">
        <ele>475</ele>
        <time>2012-09-29T07:16:32Z</time>
      </trkpt>
      <trkpt lat="47.31477" lon="4.95844">
        <ele>476</ele>
        <time>2012-09-29T07:16:34Z</time>
      </trkpt>
      <trkpt lat="47.31474" lon="4.95851">
        <ele>477</ele>
        <time>2012-09-29T07:16:36Z</time>
      </trkpt>
      <trkpt lat="47.31476" lon="4.95857">
        <ele>479</ele>
        <time>2012-09-29T07:16:39Z</time>
      </trkpt>
      <trkpt lat="47.3148" lon="4.95863">
        <ele>481</ele>
        <time>2012-09-29T07:16:44Z</time>
      </trkpt>
      <trkpt lat="47.31484" lon="4.9587">
        <ele>480</ele>
        <time>2012-09-29T07:16:47Z</time>
      </trkpt>
      <trkpt lat="47.31488" lon="4.95875">
        <ele>480</ele>
        <time>2012-09-29T07:16:50Z</time>
      </trkpt>
      <trkpt lat="47.31493" lon="4.95881">
        <ele>481</ele>
        <time>2012-09-29T07:16:53Z</time>
      </trkpt>
      <trkpt lat="47.31498" lon="4.95886">
        <ele>483</ele>
        <time>2012-09-29T07:16:56Z</time>
      </trkpt>
      <trkpt lat="47.31502" lon="4.95889">
        <ele>482</ele>
        <time>2012-09-29T07:16:58Z</time>
      </trkpt>
      <trkpt lat="47.31506" lon="4.95891">
        <ele>482</ele>
        <time>2012-09-29T07:17:00Z</time>
      </trkpt>
      <trkpt lat="47.3151" lon="4.95895">
        <ele>478</ele>
        <time>2012-09-29T07:17:03Z</time>
      </trkpt>
      <trkpt lat="47.31515" lon="4.95898">
        <ele>478</ele>
        <time>2012-09-29T07:17:05Z</time>
      </trkpt>
      <trkpt lat="47.31519" lon="4.95902">
        <ele>477</ele>
        <time>2012-09-29T07:17:08Z</time>
      </trkpt>
      <trkpt lat="47.31523" lon="4.95907">
        <ele>476</ele>
        <time>2012-09-29T07:17:11Z</time>
      </trkpt>
      <trkpt lat="47.31528" lon="4.95914">
        <ele>475</ele>
        <time>2012-09-29T07:17:14Z</time>
      </trkpt>
      <trkpt lat="47.3153" lon="4.95919">
        <ele>478</ele>
        <time>2012-09-29T07:17:18Z</time>
      </trkpt>
      <trkpt lat="47.31535" lon="4.95923">
        <ele>479</ele>
        <time>2012-09-29T07:17:20Z</time>
      </trkpt>
      <trkpt lat="47.3154" lon="4.95929">
        <ele>479</ele>
        <time>2012-09-29T07:17:23Z</time>
      </trkpt>
      <trkpt lat="47.31544" lon="4.95932">
        <ele>479</ele>
        <time>2012-09-29T07:17:25Z</time>
      </trkpt>
      <trkpt lat="47.31548" lon="4.95936">
        <ele>478</ele>
        <time>2012-09-29T07:17:27Z</time>
      </trkpt>
      <trkpt lat="47.31552" lon="4.95942">
        <ele>477</ele>
        <time>2012-09-29T07:17:29Z</time>
      </trkpt>
      <trkpt lat="47.31556" lon="4.95946">
        <ele>477</ele>
        <time>2012-09-29T07:17:31Z</time>
      </trkpt>
      <trkpt lat="47.31561" lon="4.95951">
        <ele>477</ele>
        <time>2012-09-29T07:17:34Z</time>
      </trkpt>
      <trkpt lat="47.31565" lon="4.95957">
        <ele>477</ele>
        <time>2012-09-29T07:17:37Z</time>
      </trkpt>
      <trkpt lat="47.3157" lon="4.95962">
        <ele>477</ele>
        <time>2012-09-29T07:17:40Z</time>
      </trkpt>
      <trkpt lat="47.31574" lon="4.95967">
        <ele>474</ele>
        <time>2012-09-29T07:17:42Z</time>
      </trkpt>
      <trkpt lat="47.31579" lon="4.95973">
        <ele>474</ele>
        <time>2012-09-29T07:17:45Z</time>
      </trkpt>
      <trkpt lat="47.31582" lon="4.95979">
        <ele>476</ele>
        <time>2012-09-29T07:17:48Z</time>
      </trkpt>
      <trkpt lat="47.31586" lon="4.95985">
        <ele>477</ele>
        <time>2012-09-29T07:17:51Z</time>
      </trkpt>
      <trkpt lat="47.31591" lon="4.9599">
        <ele>476</ele>
        <time>2012-09-29T07:17:54Z</time>
      </trkpt>
      <trkpt lat="47.31596" lon="4.95997">
        <ele>477</ele>
        <time>2012-09-29T07:17:57Z</time>
      </trkpt>
      <trkpt lat="47.316" lon="4.96002">
        <ele>477</ele>
        <time>2012-09-29T07:18:00Z</time>
      </trkpt>
      <trkpt lat="47.31604" lon="4.96006">
        <ele>477</ele>
        <time>2012-09-29T07:18:03Z</time>
      </trkpt>
      <trkpt lat="47.31611" lon="4.96008">
        <ele>475</ele>
        <time>2012-09-29T07:18:06Z</time>
      </trkpt>
      <trkpt lat="47.31616" lon="4.96008">
        <ele>475</ele>
        <time>2012-09-29T07:18:08Z</time>
      </trkpt>
      <trkpt lat="47.3162" lon="4.96002">
        <ele>474</ele>
        <time>2012-09-29T07:18:11Z</time>
      </trkpt>
      <trkpt lat="47.31624" lon="4.95996">
        <ele>474</ele>
        <time>2012-09-29T07:18:14Z</time>
      </trkpt>
      <trkpt lat="47.31628" lon="4.95991">
        <ele>472</ele>
        <time>2012-09-29T07:18:17Z</time>
      </trkpt>
      <trkpt lat="47.31632" lon="4.95985">
        <ele>471</ele>
        <time>2012-09-29T07:18:20Z</time>
      </trkpt>
      <trkpt lat="47.31636" lon="4.95981">
        <ele>470</ele>
        <time>2012-09-29T07:18:22Z</time>
      </trkpt>
      <trkpt lat="47.31638" lon="4.95973">
        <ele>470</ele>
        <time>2012-09-29T07:18:25Z</time>
      </trkpt>
      <trkpt lat="47.31639" lon="4.95964">
        <ele>470</ele>
        <time>2012-09-29T07:18:28Z</time>
      </trkpt>
      <trkpt lat="47.31641" lon="4.95958">
        <ele>468</ele>
        <time>2012-09-29T07:18:31Z</time>
      </trkpt>
      <trkpt lat="47.31642" lon="4.9595">
        <ele>469</ele>
        <time>2012-09-29T07:18:34Z</time>
      </trkpt>
      <trkpt lat="47.31643" lon="4.9594">
        <ele>470</ele>
        <time>2012-09-29T07:18:37Z</time>
      </trkpt>
      <trkpt lat="47.31642" lon="4.95931">
        <ele>469</ele>
        <time>2012-09-29T07:18:40Z</time>
      </trkpt>
      <trkpt lat="47.31642" lon="4.95921">
        <ele>469</ele>
        <time>2012-09-29T07:18:43Z</time>
      </trkpt>
      <trkpt lat="47.31644" lon="4.95912">
        <ele>470</ele>
        <time>2012-09-29T07:18:46Z</time>
      </trkpt>
      <trkpt lat="47.31646" lon="4.95905">
        <ele>470</ele>
        <time>2012-09-29T07:18:48Z</time>
      </trkpt>
      <trkpt lat="47.31647" lon="4.95897">
        <ele>471</ele>
        <time>2012-09-29T07:18:50Z</time>
      </trkpt>
      <trkpt lat="47.31647" lon="4.9589">
        <ele>471</ele>
        <time>2012-09-29T07:18:52Z</time>
      </trkpt>
      <trkpt lat="47.31647" lon="4.95882">
        <ele>470</ele>
        <time>2012-09-29T07:18:54Z</time>
      </trkpt>
      <trkpt lat="47.31648" lon="4.95875">
        <ele>469</ele>
        <time>2012-09-29T07:18:56Z</time>
      </trkpt>
      <trkpt lat="47.31648" lon="4.95865">
        <ele>470</ele>
        <time>2012-09-29T07:18:59Z</time>
      </trkpt>
      <trkpt lat="47.3165" lon="4.95858">
        <ele>470</ele>
        <time>2012-09-29T07:19:02Z</time>
      </trkpt>
      <trkpt lat="47.3165" lon="4.9585">
        <ele>471</ele>
        <time>2012-09-29T07:19:06Z</time>
      </trkpt>
      <trkpt lat="47.3165" lon="4.95856">
        <ele>468</ele>
        <time>2012-09-29T07:19:28Z</time>
      </trkpt>
      <trkpt lat="47.31648" lon="4.95865">
        <ele>469</ele>
        <time>2012-09-29T07:19:32Z</time>
      </trkpt>
      <trkpt lat="47.31648" lon="4.95872">
        <ele>468</ele>
        <time>2012-09-29T07:19:35Z</time>
      </trkpt>
      <trkpt lat="47.3165" lon="4.95879">
        <ele>470</ele>
        <time>2012-09-29T07:19:38Z</time>
      </trkpt>
      <trkpt lat="47.31652" lon="4.95887">
        <ele>471</ele>
        <time>2012-09-29T07:19:42Z</time>
      </trkpt>
      <trkpt lat="47.3165" lon="4.95895">
        <ele>471</ele>
        <time>2012-09-29T07:19:46Z</time>
      </trkpt>
      <trkpt lat="47.3165" lon="4.95903">
        <ele>471</ele>
        <time>2012-09-29T07:19:49Z</time>
      </trkpt>
      <trkpt lat="47.3165" lon="4.9591">
        <ele>471</ele>
        <time>2012-09-29T07:19:52Z</time>
      </trkpt>
      <trkpt lat="47.31646" lon="4.95917">
        <ele>471</ele>
        <time>2012-09-29T07:19:55Z</time>
      </trkpt>
      <trkpt lat="47.31645" lon="4.95925">
        <ele>472</ele>
        <time>2012-09-29T07:19:58Z</time>
      </trkpt>
      <trkpt lat="47.31642" lon="4.95931">
        <ele>473</ele>
        <time>2012-09-29T07:20:01Z</time>
      </trkpt>
      <trkpt lat="47.3164" lon="4.95938">
        <ele>473</ele>
        <time>2012-09-29T07:20:04Z</time>
      </trkpt>
      <trkpt lat="47.31637" lon="4.95944">
        <ele>473</ele>
        <time>2012-09-29T07:20:07Z</time>
      </trkpt>
      <trkpt lat="47.31638" lon="4.95954">
        <ele>470</ele>
        <time>2012-09-29T07:20:10Z</time>
      </trkpt>
      <trkpt lat="47.31639" lon="4.95961">
        <ele>468</ele>
        <time>2012-09-29T07:20:11Z</time>
      </trkpt>
      <trkpt lat="47.31639" lon="4.9597">
        <ele>466</ele>
        <time>2012-09-29T07:20:14Z</time>
      </trkpt>
      <trkpt lat="47.31638" lon="4.95978">
        <ele>466</ele>
        <time>2012-09-29T07:20:18Z</time>
      </trkpt>
      <trkpt lat="47.31637" lon="4.95986">
        <ele>466</ele>
        <time>2012-09-29T07:20:21Z</time>
      </trkpt>
      <trkpt lat="47.31634" lon="4.95994">
        <ele>470</ele>
        <time>2012-09-29T07:20:24Z</time>
      </trkpt>
      <trkpt lat="47.31633" lon="4.96003">
        <ele>469</ele>
        <time>2012-09-29T07:20:27Z</time>
      </trkpt>
      <trkpt lat="47.3163" lon="4.96011">
        <ele>467</ele>
        <time>2012-09-29T07:20:29Z</time>
      </trkpt>
      <trkpt lat="47.31625" lon="4.96016">
        <ele>467</ele>
        <time>2012-09-29T07:20:32Z</time>
      </trkpt>
      <trkpt lat="47.3162" lon="4.96018">
        <ele>467</ele>
        <time>2012-09-29T07:20:34Z</time>
      </trkpt>
      <trkpt lat="47.31615" lon="4.96016">
        <ele>469</ele>
        <time>2012-09-29T07:20:38Z</time>
      </trkpt>
      <trkpt lat="47.31611" lon="4.96013">
        <ele>469</ele>
        <time>2012-09-29T07:20:41Z</time>
      </trkpt>
      <trkpt lat="47.31608" lon="4.96008">
        <ele>470</ele>
        <time>2012-09-29T07:20:43Z</time>
      </trkpt>
      <trkpt lat="47.31602" lon="4.96004">
        <ele>471</ele>
        <time>2012-09-29T07:20:46Z</time>
      </trkpt>
      <trkpt lat="47.31597" lon="4.96">
        <ele>473</ele>
        <time>2012-09-29T07:20:49Z</time>
      </trkpt>
      <trkpt lat="47.31594" lon="4.95995">
        <ele>473</ele>
        <time>2012-09-29T07:20:53Z</time>
      </trkpt>
      <trkpt lat="47.31589" lon="4.95991">
        <ele>473</ele>
        <time>2012-09-29T07:20:55Z</time>
      </trkpt>
      <trkpt lat="47.31585" lon="4.95985">
        <ele>472</ele>
        <time>2012-09-29T07:20:57Z</time>
      </trkpt>
      <trkpt lat="47.3158" lon="4.95981">
        <ele>472</ele>
        <time>2012-09-29T07:20:59Z</time>
      </trkpt>
      <trkpt lat="47.31575" lon="4.95977">
        <ele>472</ele>
        <time>2012-09-29T07:21:02Z</time>
      </trkpt>
      <trkpt lat="47.31572" lon="4.9597">
        <ele>473</ele>
        <time>2012-09-29T07:21:06Z</time>
      </trkpt>
      <trkpt lat="47.31569" lon="4.95964">
        <ele>474</ele>
        <time>2012-09-29T07:21:10Z</time>
      </trkpt>
      <trkpt lat="47.31567" lon="4.95956">
        <ele>472</ele>
        <time>2012-09-29T07:21:13Z</time>
      </trkpt>
      <trkpt lat="47.31563" lon="4.95953">
        <ele>473</ele>
        <time>2012-09-29T07:21:15Z</time>
      </trkpt>
      <trkpt lat="47.31559" lon="4.95949">
        <ele>472</ele>
        <time>2012-09-29T07:21:18Z</time>
      </trkpt>
      <trkpt lat="47.31554" lon="4.95945">
        <ele>473</ele>
        <time>2012-09-29T07:21:21Z</time>
      </trkpt>
      <trkpt lat="47.31549" lon="4.9594">
        <ele>474</ele>
        <time>2012-09-29T07:21:24Z</time>
      </trkpt>
      <trkpt lat="47.31545" lon="4.95936">
        <ele>473</ele>
        <time>2012-09-29T07:21:27Z</time>
      </trkpt>
      <trkpt lat="47.31541" lon="4.95931">
        <ele>474</ele>
        <time>2012-09-29T07:21:31Z</time>
      </trkpt>
      <trkpt lat="47.31538" lon="4.95925">
        <ele>473</ele>
        <time>2012-09-29T07:21:34Z</time>
      </trkpt>
      <trkpt lat="47.31534" lon="4.95923">
        <ele>473</ele>
        <time>2012-09-29T07:21:36Z</time>
      </trkpt>
      <trkpt lat="47.31529" lon="4.95919">
        <ele>473</ele>
        <time>2012-09-29T07:21:38Z</time>
      </trkpt>
      <trkpt lat="47.31526" lon="4.95914">
        <ele>474</ele>
        <time>2012-09-29T07:21:41Z</time>
      </trkpt>
      <trkpt lat="47.3152" lon="4.9591">
        <ele>475</ele>
        <time>2012-09-29T07:21:45Z</time>
      </trkpt>
      <trkpt lat="47.31517" lon="4.95903">
        <ele>475</ele>
        <time>2012-09-29T07:21:50Z</time>
      </trkpt>
      <trkpt lat="47.31512" lon="4.95898">
        <ele>472</ele>
        <time>2012-09-29T07:21:54Z</time>
      </trkpt>
      <trkpt lat="47.31507" lon="4.95893">
        <ele>473</ele>
        <time>2012-09-29T07:21:56Z</time>
      </trkpt>
      <trkpt lat="47.31502" lon="4.9589">
        <ele>473</ele>
        <time>2012-09-29T07:21:58Z</time>
      </trkpt>
      <trkpt lat="47.31498" lon="4.95888">
        <ele>474</ele>
        <time>2012-09-29T07:22:01Z</time>
      </trkpt>
      <trkpt lat="47.31494" lon="4.95882">
        <ele>473</ele>
        <time>2012-09-29T07:22:04Z</time>
      </trkpt>
      <trkpt lat="47.3149" lon="4.95878">
        <ele>474</ele>
        <time>2012-09-29T07:22:07Z</time>
      </trkpt>
      <trkpt lat="47.31485" lon="4.95877">
        <ele>474</ele>
        <time>2012-09-29T07:22:09Z</time>
      </trkpt>
      <trkpt lat="47.3148" lon="4.95873">
        <ele>475</ele>
        <time>2012-09-29T07:22:12Z</time>
      </trkpt>
      <trkpt lat="47.31476" lon="4.95868">
        <ele>475</ele>
        <time>2012-09-29T07:22:14Z</time>
      </trkpt>
      <trkpt lat="47.31477" lon="4.95862">
        <ele>475</ele>
        <time>2012-09-29T07:22:17Z</time>
      </trkpt>
      <trkpt lat="47.31475" lon="4.95855">
        <ele>476</ele>
        <time>2012-09-29T07:22:19Z</time>
      </trkpt>
      <trkpt lat="47.31475" lon="4.95848">
        <ele>474</ele>
        <time>2012-09-29T07:22:21Z</time>
      </trkpt>
      <trkpt lat="47.31477" lon="4.95841">
        <ele>474</ele>
        <time>2012-09-29T07:22:24Z</time>
      </trkpt>
      <trkpt lat="47.31477" lon="4.95833">
        <ele>473</ele>
        <time>2012-09-29T07:22:28Z</time>
      </trkpt>
      <trkpt lat="47.31478" lon="4.95823">
        <ele>473</ele>
        <time>2012-09-29T07:22:31Z</time>
      </trkpt>
      <trkpt lat="47.3148" lon="4.95816">
        <ele>474</ele>
        <time>2012-09-29T07:22:34Z</time>
      </trkpt>
      <trkpt lat="47.31482" lon="4.9581">
        <ele>474</ele>
        <time>2012-09-29T07:22:37Z</time>
      </trkpt>
      <trkpt lat="47.31483" lon="4.95802">
        <ele>472</ele>
        <time>2012-09-29T07:22:40Z</time>
      </trkpt>
      <trkpt lat="47.31486" lon="4.95794">
        <ele>472</ele>
        <time>2012-09-29T07:22:43Z</time>
      </trkpt>
      <trkpt lat="47.31487" lon="4.95786">
        <ele>472</ele>
        <time>2012-09-29T07:22:46Z</time>
      </trkpt>
      <trkpt lat="47.3149" lon="4.9578">
        <ele>471</ele>
        <time>2012-09-29T07:22:48Z</time>
      </trkpt>
      <trkpt lat="47.3149" lon="4.95772">
        <ele>474</ele>
        <time>2012-09-29T07:22:51Z</time>
      </trkpt>
      <trkpt lat="47.31492" lon="4.95763">
        <ele>475</ele>
        <time>2012-09-29T07:22:54Z</time>
      </trkpt>
      <trkpt lat="47.31494" lon="4.95756">
        <ele>476</ele>
        <time>2012-09-29T07:22:57Z</time>
      </trkpt>
      <trkpt lat="47.31496" lon="4.95748">
        <ele>476</ele>
        <time>2012-09-29T07:23:00Z</time>
      </trkpt>
      <trkpt lat="47.31497" lon="4.9574">
        <ele>476</ele>
        <time>2012-09-29T07:23:03Z</time>
      </trkpt>
      <trkpt lat="47.31499" lon="4.95733">
        <ele>474</ele>
        <time>2012-09-29T07:23:06Z</time>
      </trkpt>
      <trkpt lat="47.31503" lon="4.95726">
        <ele>475</ele>
        <time>2012-09-29T07:23:10Z</time>
      </trkpt>
      <trkpt lat="47.31505" lon="4.9572">
        <ele>476</ele>
        <time>2012-09-29T07:23:13Z</time>
      </trkpt>
      <trkpt lat="47.31504" lon="4.95713">
        <ele>477</ele>
        <time>2012-09-29T07:23:18Z</time>
      </trkpt>
      <trkpt lat="47.31505" lon="4.95705">
        <ele>481</ele>
        <time>2012-09-29T07:23:23Z</time>
      </trkpt>
      <trkpt lat="47.31502" lon="4.95697">
        <ele>480</ele>
        <time>2012-09-29T07:23:26Z</time>
      </trkpt>
      <trkpt lat="47.31499" lon="4.95693">
        <ele>479</ele>
        <time>2012-09-29T07:23:29Z</time>
      </trkpt>
      <trkpt lat="47.31493" lon="4.9569">
        <ele>479</ele>
        <time>2012-09-29T07:23:33Z</time>
      </trkpt>
      <trkpt lat="47.31488" lon="4.9569">
        <ele>479</ele>
        <time>2012-09-29T07:23:35Z</time>
      </trkpt>
      <trkpt lat="47.31482" lon="4.95688">
        <ele>478</ele>
        <time>2012-09-29T07:23:38Z</time>
      </trkpt>
      <trkpt lat="47.31477" lon="4.95686">
        <ele>477</ele>
        <time>2012-09-29T07:23:40Z</time>
      </trkpt>
      <trkpt lat="47.31472" lon="4.95687">
        <ele>475</ele>
        <time>2012-09-29T07:23:43Z</time>
      </trkpt>
      <trkpt lat="47.31467" lon="4.95687">
        <ele>475</ele>
        <time>2012-09-29T07:23:46Z</time>
      </trkpt>
      <trkpt lat="47.31461" lon="4.95686">
        <ele>476</ele>
        <time>2012-09-29T07:23:49Z</time>
      </trkpt>
      <trkpt lat="47.31456" lon="4.95682">
        <ele>478</ele>
        <time>2012-09-29T07:23:53Z</time>
      </trkpt>
      <trkpt lat="47.3145" lon="4.95679">
        <ele>479</ele>
        <time>2012-09-29T07:23:56Z</time>
      </trkpt>
      <trkpt lat="47.31446" lon="4.95673">
        <ele>480</ele>
        <time>2012-09-29T07:23:59Z</time>
      </trkpt>
      <trkpt lat="47.31442" lon="4.9567">
        <ele>479</ele>
        <time>2012-09-29T07:24:01Z</time>
      </trkpt>
      <trkpt lat="47.31438" lon="4.95666">
        <ele>479</ele>
        <time>2012-09-29T07:24:04Z</time>
      </trkpt>
      <trkpt lat="47.31433" lon="4.95665">
        <ele>480</ele>
        <time>2012-09-29T07:24:06Z</time>
      </trkpt>
      <trkpt lat="47.31427" lon="4.95662">
        <ele>480</ele>
        <time>2012-09-29T07:24:09Z</time>
      </trkpt>
      <trkpt lat="47.31423" lon="4.95657">
        <ele>479</ele>
        <time>2012-09-29T07:24:12Z</time>
      </trkpt>
      <trkpt lat="47.31419" lon="4.95652">
        <ele>480</ele>
        <time>2012-09-29T07:24:15Z</time>
      </trkpt>
      <trkpt lat="47.31414" lon="4.95648">
        <ele>479</ele>
        <time>2012-09-29T07:24:19Z</time>
      </trkpt>
      <trkpt lat="47.31409" lon="4.95645">
        <ele>479</ele>
        <time>2012-09-29T07:24:23Z</time>
      </trkpt>
      <trkpt lat="47.31403" lon="4.95642">
        <ele>479</ele>
        <time>2012-09-29T07:24:26Z</time>
      </trkpt>
      <trkpt lat="47.31398" lon="4.95637">
        <ele>480</ele>
        <time>2012-09-29T07:24:29Z</time>
      </trkpt>
      <trkpt lat="47.31394" lon="4.95635">
        <ele>481</ele>
        <time>2012-09-29T07:24:31Z</time>
      </trkpt>
      <trkpt lat="47.3139" lon="4.9563">
        <ele>482</ele>
        <time>2012-09-29T07:24:34Z</time>
      </trkpt>
      <trkpt lat="47.31384" lon="4.95625">
        <ele>483</ele>
        <time>2012-09-29T07:24:37Z</time>
      </trkpt>
      <trkpt lat="47.3138" lon="4.9562">
        <ele>484</ele>
        <time>2012-09-29T07:24:41Z</time>
      </trkpt>
      <trkpt lat="47.31378" lon="4.95614">
        <ele>485</ele>
        <time>2012-09-29T07:24:46Z</time>
      </trkpt>
      <trkpt lat="47.31373" lon="4.95609">
        <ele>483</ele>
        <time>2012-09-29T07:24:50Z</time>
      </trkpt>
      <trkpt lat="47.31369" lon="4.95604">
        <ele>483</ele>
        <time>2012-09-29T07:24:53Z</time>
      </trkpt>
      <trkpt lat="47.31364" lon="4.95597">
        <ele>485</ele>
        <time>2012-09-29T07:24:56Z</time>
      </trkpt>
      <trkpt lat="47.3136" lon="4.95589">
        <ele>486</ele>
        <time>2012-09-29T07:25:00Z</time>
      </trkpt>
      <trkpt lat="47.31356" lon="4.95585">
        <ele>486</ele>
        <time>2012-09-29T07:25:02Z</time>
      </trkpt>
      <trkpt lat="47.3135" lon="4.95579">
        <ele>484</ele>
        <time>2012-09-29T07:25:04Z</time>
      </trkpt>
      <trkpt lat="47.31346" lon="4.95572">
        <ele>483</ele>
        <time>2012-09-29T07:25:08Z</time>
      </trkpt>
      <trkpt lat="47.31344" lon="4.95563">
        <ele>481</ele>
        <time>2012-09-29T07:25:13Z</time>
      </trkpt>
      <trkpt lat="47.31339" lon="4.95557">
        <ele>478</ele>
        <time>2012-09-29T07:25:15Z</time>
      </trkpt>
      <trkpt lat="47.31332" lon="4.95552">
        <ele>478</ele>
        <time>2012-09-29T07:25:18Z</time>
      </trkpt>
      <trkpt lat="47.31328" lon="4.95546">
        <ele>478</ele>
        <time>2012-09-29T07:25:21Z</time>
      </trkpt>
      <trkpt lat="47.31322" lon="4.95539">
        <ele>477</ele>
        <time>2012-09-29T07:25:23Z</time>
      </trkpt>
      <trkpt lat="47.31318" lon="4.95533">
        <ele>481</ele>
        <time>2012-09-29T07:25:28Z</time>
      </trkpt>
      <trkpt lat="47.31314" lon="4.95525">
        <ele>482</ele>
        <time>2012-09-29T07:25:32Z</time>
      </trkpt>
      <trkpt lat="47.3131" lon="4.95517">
        <ele>482</ele>
        <time>2012-09-29T07:25:34Z</time>
      </trkpt>
      <trkpt lat="47.31309" lon="4.95509">
        <ele>481</ele>
        <time>2012-09-29T07:25:37Z</time>
      </trkpt>
      <trkpt lat="47.31308" lon="4.95499">
        <ele>481</ele>
        <time>2012-09-29T07:25:40Z</time>
      </trkpt>
      <trkpt lat="47.31307" lon="4.95492">
        <ele>480</ele>
        <time>2012-09-29T07:25:42Z</time>
      </trkpt>
      <trkpt lat="47.31307" lon="4.95484">
        <ele>479</ele>
        <time>2012-09-29T07:25:45Z</time>
      </trkpt>
      <trkpt lat="47.31308" lon="4.95477">
        <ele>479</ele>
        <time>2012-09-29T07:25:48Z</time>
      </trkpt>
      <trkpt lat="47.31309" lon="4.9547">
        <ele>478</ele>
        <time>2012-09-29T07:25:51Z</time>
      </trkpt>
      <trkpt lat="47.31308" lon="4.95463">
        <ele>479</ele>
        <time>2012-09-29T07:25:54Z</time>
      </trkpt>
      <trkpt lat="47.31307" lon="4.95455">
        <ele>479</ele>
        <time>2012-09-29T07:25:58Z</time>
      </trkpt>
      <trkpt lat="47.31305" lon="4.95446">
        <ele>480</ele>
        <time>2012-09-29T07:26:02Z</time>
      </trkpt>
      <trkpt lat="47.31304" lon="4.95437">
        <ele>478</ele>
        <time>2012-09-29T07:26:05Z</time>
      </trkpt>
      <trkpt lat="47.31304" lon="4.95428">
        <ele>477</ele>
        <time>2012-09-29T07:26:08Z</time>
      </trkpt>
      <trkpt lat="47.31303" lon="4.9542">
        <ele>477</ele>
        <time>2012-09-29T07:26:11Z</time>
      </trkpt>
      <trkpt lat="47.31304" lon="4.9541">
        <ele>478</ele>
        <time>2012-09-29T07:26:13Z</time>
      </trkpt>
      <trkpt lat="47.31304" lon="4.95403">
        <ele>479</ele>
        <time>2012-09-29T07:26:16Z</time>
      </trkpt>
      <trkpt lat="47.31304" lon="4.95393">
        <ele>480</ele>
        <time>2012-09-29T07:26:19Z</time>
      </trkpt>
      <trkpt lat="47.31306" lon="4.95385">
        <ele>481</ele>
        <time>2012-09-29T07:26:22Z</time>
      </trkpt>
      <trkpt lat="47.31306" lon="4.95385">
        <ele>481</ele>
        <time>2012-09-29T07:26:22Z</time>
      </trkpt>
      <trkpt lat="47.31306" lon="4.95385">
        <ele>481</ele>
        <time>2012-09-29T07:26:23Z</time>
      </trkpt>
      <trkpt lat="47.31304" lon="4.95379">
        <ele>482</ele>
        <time>2012-09-29T07:26:27Z</time>
      </trkpt>
      <trkpt lat="47.31304" lon="4.9537">
        <ele>481</ele>
        <time>2012-09-29T07:26:29Z</time>
      </trkpt>
      <trkpt lat="47.313" lon="4.95363">
        <ele>480</ele>
        <time>2012-09-29T07:26:31Z</time>
      </trkpt>
      <trkpt lat="47.31298" lon="4.95355">
        <ele>480</ele>
        <time>2012-09-29T07:26:34Z</time>
      </trkpt>
      <trkpt lat="47.31292" lon="4.95347">
        <ele>478</ele>
        <time>2012-09-29T07:26:36Z</time>
      </trkpt>
      <trkpt lat="47.31292" lon="4.9534">
        <ele>479</ele>
        <time>2012-09-29T07:26:41Z</time>
      </trkpt>
      <trkpt lat="47.31293" lon="4.95332">
        <ele>479</ele>
        <time>2012-09-29T07:26:45Z</time>
      </trkpt>
      <trkpt lat="47.31292" lon="4.95325">
        <ele>478</ele>
        <time>2012-09-29T07:26:47Z</time>
      </trkpt>
      <trkpt lat="47.31288" lon="4.95318">
        <ele>478</ele>
        <time>2012-09-29T07:26:49Z</time>
      </trkpt>
      <trkpt lat="47.31289" lon="4.95308">
        <ele>478</ele>
        <time>2012-09-29T07:26:52Z</time>
      </trkpt>
      <trkpt lat="47.31288" lon="4.95301">
        <ele>479</ele>
        <time>2012-09-29T07:26:55Z</time>
      </trkpt>
      <trkpt lat="47.31287" lon="4.95294">
        <ele>480</ele>
        <time>2012-09-29T07:26:58Z</time>
      </trkpt>
      <trkpt lat="47.31286" lon="4.95287">
        <ele>480</ele>
        <time>2012-09-29T07:27:01Z</time>
      </trkpt>
      <trkpt lat="47.31285" lon="4.9528">
        <ele>479</ele>
        <time>2012-09-29T07:27:04Z</time>
      </trkpt>
      <trkpt lat="47.31287" lon="4.95272">
        <ele>484</ele>
        <time>2012-09-29T07:27:09Z</time>
      </trkpt>
      <trkpt lat="47.3129" lon="4.95266">
        <ele>483</ele>
        <time>2012-09-29T07:27:13Z</time>
      </trkpt>
      <trkpt lat="47.31287" lon="4.95258">
        <ele>483</ele>
        <time>2012-09-29T07:27:17Z</time>
      </trkpt>
      <trkpt lat="47.31284" lon="4.9525">
        <ele>483</ele>
        <time>2012-09-29T07:27:19Z</time>
      </trkpt>
      <trkpt lat="47.31284" lon="4.95243">
        <ele>483</ele>
        <time>2012-09-29T07:27:21Z</time>
      </trkpt>
      <trkpt lat="47.31284" lon="4.95235">
        <ele>481</ele>
        <time>2012-09-29T07:27:24Z</time>
      </trkpt>
      <trkpt lat="47.31282" lon="4.95228">
        <ele>479</ele>
        <time>2012-09-29T07:27:27Z</time>
      </trkpt>
      <trkpt lat="47.31282" lon="4.9522">
        <ele>479</ele>
        <time>2012-09-29T07:27:31Z</time>
      </trkpt>
      <trkpt lat="47.3128" lon="4.95214">
        <ele>479</ele>
        <time>2012-09-29T07:27:33Z</time>
      </trkpt>
      <trkpt lat="47.31277" lon="4.95207">
        <ele>478</ele>
        <time>2012-09-29T07:27:35Z</time>
      </trkpt>
      <trkpt lat="47.31277" lon="4.95199">
        <ele>478</ele>
        <time>2012-09-29T07:27:38Z</time>
      </trkpt>
      <trkpt lat="47.31276" lon="4.95191">
        <ele>478</ele>
        <time>2012-09-29T07:27:41Z</time>
      </trkpt>
      <trkpt lat="47.31277" lon="4.95184">
        <ele>477</ele>
        <time>2012-09-29T07:27:44Z</time>
      </trkpt>
      <trkpt lat="47.31275" lon="4.95178">
        <ele>477</ele>
        <time>2012-09-29T07:27:47Z</time>
      </trkpt>
      <trkpt lat="47.31271" lon="4.95167">
        <ele>476</ele>
        <time>2012-09-29T07:27:50Z</time>
      </trkpt>
      <trkpt lat="47.31271" lon="4.9516">
        <ele>476</ele>
        <time>2012-09-29T07:27:51Z</time>
      </trkpt>
      <trkpt lat="47.31269" lon="4.95152">
        <ele>476</ele>
        <time>2012-09-29T07:27:53Z</time>
      </trkpt>
      <trkpt lat="47.3127" lon="4.95145">
        <ele>476</ele>
        <time>2012-09-29T07:27:57Z</time>
      </trkpt>
      <trkpt lat="47.31268" lon="4.95138">
        <ele>476</ele>
        <time>2012-09-29T07:27:59Z</time>
      </trkpt>
      <trkpt lat="47.31266" lon="4.95131">
        <ele>474</ele>
        <time>2012-09-29T07:28:01Z</time>
      </trkpt>
      <trkpt lat="47.31264" lon="4.95124">
        <ele>472</ele>
        <time>2012-09-29T07:28:03Z</time>
      </trkpt>
      <trkpt lat="47.31263" lon="4.95118">
        <ele>473</ele>
        <time>2012-09-29T07:28:06Z</time>
      </trkpt>
      <trkpt lat="47.31261" lon="4.9511">
        <ele>472</ele>
        <time>2012-09-29T07:28:09Z</time>
      </trkpt>
      <trkpt lat="47.31259" lon="4.95101">
        <ele>473</ele>
        <time>2012-09-29T07:28:13Z</time>
      </trkpt>
      <trkpt lat="47.31258" lon="4.95093">
        <ele>471</ele>
        <time>2012-09-29T07:28:16Z</time>
      </trkpt>
      <trkpt lat="47.31255" lon="4.95087">
        <ele>471</ele>
        <time>2012-09-29T07:28:19Z</time>
      </trkpt>
      <trkpt lat="47.31252" lon="4.95081">
        <ele>470</ele>
        <time>2012-09-29T07:28:22Z</time>
      </trkpt>
      <trkpt lat="47.3125" lon="4.95074">
        <ele>470</ele>
        <time>2012-09-29T07:28:25Z</time>
      </trkpt>
      <trkpt lat="47.31248" lon="4.95068">
        <ele>470</ele>
        <time>2012-09-29T07:28:28Z</time>
      </trkpt>
      <trkpt lat="47.31246" lon="4.95061">
        <ele>469</ele>
        <time>2012-09-29T07:28:31Z</time>
      </trkpt>
      <trkpt lat="47.31243" lon="4.95056">
        <ele>470</ele>
        <time>2012-09-29T07:28:34Z</time>
      </trkpt>
      <trkpt lat="47.31241" lon="4.95047">
        <ele>469</ele>
        <time>2012-09-29T07:28:37Z</time>
      </trkpt>
      <trkpt lat="47.31238" lon="4.95041">
        <ele>469</ele>
        <time>2012-09-29T07:28:39Z</time>
      </trkpt>
      <trkpt lat="47.31236" lon="4.95033">
        <ele>468</ele>
        <time>2012-09-29T07:28:42Z</time>
      </trkpt>
      <trkpt lat="47.31238" lon="4.95026">
        <ele>469</ele>
        <time>2012-09-29T07:28:45Z</time>
      </trkpt>
      <trkpt lat="47.31232" lon="4.95022">
        <ele>468</ele>
        <time>2012-09-29T07:28:47Z</time>
      </trkpt>
      <trkpt lat="47.31233" lon="4.95014">
        <ele>469</ele>
        <time>2012-09-29T07:28:50Z</time>
      </trkpt>
      <trkpt lat="47.31231" lon="4.95008">
        <ele>470</ele>
        <time>2012-09-29T07:28:54Z</time>
      </trkpt>
      <trkpt lat="47.31227" lon="4.95002">
        <ele>469</ele>
        <time>2012-09-29T07:28:59Z</time>
      </trkpt>
      <trkpt lat="47.31222" lon="4.94999">
        <ele>469</ele>
        <time>2012-09-29T07:29:48Z</time>
      </trkpt>
      <trkpt lat="47.31217" lon="4.94996">
        <ele>468</ele>
        <time>2012-09-29T07:29:52Z</time>
      </trkpt>
      <trkpt lat="47.31213" lon="4.94991">
        <ele>468</ele>
        <time>2012-09-29T07:29:55Z</time>
      </trkpt>
      <trkpt lat="47.31209" lon="4.94986">
        <ele>468</ele>
        <time>2012-09-29T07:30:00Z</time>
      </trkpt>
      <trkpt lat="47.31206" lon="4.94977">
        <ele>469</ele>
        <time>2012-09-29T07:30:03Z</time>
      </trkpt>
      <trkpt lat="47.31202" lon="4.94971">
        <ele>469</ele>
        <time>2012-09-29T07:30:06Z</time>
      </trkpt>
      <trkpt lat="47.31198" lon="4.94965">
        <ele>469</ele>
        <time>2012-09-29T07:30:09Z</time>
      </trkpt>
      <trkpt lat="47.31195" lon="4.94958">
        <ele>468</ele>
        <time>2012-09-29T07:30:13Z</time>
      </trkpt>
      <trkpt lat="47.31191" lon="4.94952">
        <ele>468</ele>
        <time>2012-09-29T07:30:16Z</time>
      </trkpt>
      <trkpt lat="47.31184" lon="4.94946">
        <ele>467</ele>
        <time>2012-09-29T07:30:18Z</time>
      </trkpt>
      <trkpt lat="47.3118" lon="4.94939">
        <ele>469</ele>
        <time>2012-09-29T07:30:21Z</time>
      </trkpt>
      <trkpt lat="47.31176" lon="4.94936">
        <ele>469</ele>
        <time>2012-09-29T07:30:24Z</time>
      </trkpt>
      <trkpt lat="47.31169" lon="4.94934">
        <ele>470</ele>
        <time>2012-09-29T07:30:27Z</time>
      </trkpt>
      <trkpt lat="47.31164" lon="4.94934">
        <ele>469</ele>
        <time>2012-09-29T07:30:29Z</time>
      </trkpt>
      <trkpt lat="47.31158" lon="4.94937">
        <ele>469</ele>
        <time>2012-09-29T07:30:33Z</time>
      </trkpt>
      <trkpt lat="47.31154" lon="4.9494">
        <ele>468</ele>
        <time>2012-09-29T07:30:35Z</time>
      </trkpt>
      <trkpt lat="47.31151" lon="4.94948">
        <ele>467</ele>
        <time>2012-09-29T07:30:38Z</time>
      </trkpt>
      <trkpt lat="47.31151" lon="4.94956">
        <ele>467</ele>
        <time>2012-09-29T07:30:41Z</time>
      </trkpt>
      <trkpt lat="47.31151" lon="4.94963">
        <ele>467</ele>
        <time>2012-09-29T07:30:44Z</time>
      </trkpt>
      <trkpt lat="47.31151" lon="4.9497">
        <ele>467</ele>
        <time>2012-09-29T07:30:46Z</time>
      </trkpt>
      <trkpt lat="47.31151" lon="4.9498">
        <ele>467</ele>
        <time>2012-09-29T07:30:49Z</time>
      </trkpt>
      <trkpt lat="47.31152" lon="4.94987">
        <ele>467</ele>
        <time>2012-09-29T07:30:52Z</time>
      </trkpt>
      <trkpt lat="47.31151" lon="4.94994">
        <ele>468</ele>
        <time>2012-09-29T07:30:55Z</time>
      </trkpt>
      <trkpt lat="47.31152" lon="4.95001">
        <ele>468</ele>
        <time>2012-09-29T07:30:58Z</time>
      </trkpt>
      <trkpt lat="47.31152" lon="4.95009">
        <ele>468</ele>
        <time>2012-09-29T07:31:01Z</time>
      </trkpt>
      <trkpt lat="47.31152" lon="4.95016">
        <ele>469</ele>
        <time>2012-09-29T07:31:03Z</time>
      </trkpt>
      <trkpt lat="47.31153" lon="4.95022">
        <ele>469</ele>
        <time>2012-09-29T07:31:06Z</time>
      </trkpt>
      <trkpt lat="47.31153" lon="4.9503">
        <ele>468</ele>
        <time>2012-09-29T07:31:09Z</time>
      </trkpt>
      <trkpt lat="47.31155" lon="4.95037">
        <ele>468</ele>
        <time>2012-09-29T07:31:11Z</time>
      </trkpt>
      <trkpt lat="47.31155" lon="4.95048">
        <ele>468</ele>
        <time>2012-09-29T07:31:14Z</time>
      </trkpt>
      <trkpt lat="47.31156" lon="4.95055">
        <ele>467</ele>
        <time>2012-09-29T07:31:18Z</time>
      </trkpt>
      <trkpt lat="47.31158" lon="4.95064">
        <ele>467</ele>
        <time>2012-09-29T07:31:22Z</time>
      </trkpt>
      <trkpt lat="47.31159" lon="4.95072">
        <ele>468</ele>
        <time>2012-09-29T07:31:25Z</time>
      </trkpt>
      <trkpt lat="47.3116" lon="4.9508">
        <ele>468</ele>
        <time>2012-09-29T07:31:28Z</time>
      </trkpt>
      <trkpt lat="47.31161" lon="4.95087">
        <ele>469</ele>
        <time>2012-09-29T07:31:31Z</time>
      </trkpt>
      <trkpt lat="47.3116" lon="4.95096">
        <ele>470</ele>
        <time>2012-09-29T07:31:34Z</time>
      </trkpt>
      <trkpt lat="47.3116" lon="4.95102">
        <ele>474</ele>
        <time>2012-09-29T07:31:36Z</time>
      </trkpt>
      <trkpt lat="47.3116" lon="4.95112">
        <ele>474</ele>
        <time>2012-09-29T07:31:39Z</time>
      </trkpt>
      <trkpt lat="47.31159" lon="4.95122">
        <ele>475</ele>
        <time>2012-09-29T07:31:42Z</time>
      </trkpt>
      <trkpt lat="47.31158" lon="4.9513">
        <ele>473</ele>
        <time>2012-09-29T07:31:45Z</time>
      </trkpt>
      <trkpt lat="47.31157" lon="4.95137">
        <ele>473</ele>
        <time>2012-09-29T07:31:47Z</time>
      </trkpt>
      <trkpt lat="47.31155" lon="4.95143">
        <ele>473</ele>
        <time>2012-09-29T07:31:49Z</time>
      </trkpt>
      <trkpt lat="47.31153" lon="4.95151">
        <ele>474</ele>
        <time>2012-09-29T07:31:51Z</time>
      </trkpt>
      <trkpt lat="47.31152" lon="4.95162">
        <ele>474</ele>
        <time>2012-09-29T07:31:55Z</time>
      </trkpt>
      <trkpt lat="47.31148" lon="4.95167">
        <ele>474</ele>
        <time>2012-09-29T07:31:58Z</time>
      </trkpt>
      <trkpt lat="47.31146" lon="4.95174">
        <ele>475</ele>
        <time>2012-09-29T07:32:01Z</time>
      </trkpt>
      <trkpt lat="47.31144" lon="4.95184">
        <ele>474</ele>
        <time>2012-09-29T07:32:04Z</time>
      </trkpt>
      <trkpt lat="47.3114" lon="4.95189">
        <ele>474</ele>
        <time>2012-09-29T07:32:07Z</time>
      </trkpt>
      <trkpt lat="47.31136" lon="4.95197">
        <ele>474</ele>
        <time>2012-09-29T07:32:10Z</time>
      </trkpt>
      <trkpt lat="47.31134" lon="4.95203">
        <ele>474</ele>
        <time>2012-09-29T07:32:12Z</time>
      </trkpt>
      <trkpt lat="47.31132" lon="4.95212">
        <ele>474</ele>
        <time>2012-09-29T07:32:15Z</time>
      </trkpt>
      <trkpt lat="47.3113" lon="4.95219">
        <ele>475</ele>
        <time>2012-09-29T07:32:18Z</time>
      </trkpt>
      <trkpt lat="47.31129" lon="4.95225">
        <ele>477</ele>
        <time>2012-09-29T07:32:21Z</time>
      </trkpt>
      <trkpt lat="47.3113" lon="4.95234">
        <ele>477</ele>
        <time>2012-09-29T07:32:23Z</time>
      </trkpt>
      <trkpt lat="47.3113" lon="4.95241">
        <ele>477</ele>
        <time>2012-09-29T07:32:25Z</time>
      </trkpt>
      <trkpt lat="47.3113" lon="4.95249">
        <ele>475</ele>
        <time>2012-09-29T07:32:28Z</time>
      </trkpt>
      <trkpt lat="47.31131" lon="4.95256">
        <ele>475</ele>
        <time>2012-09-29T07:32:30Z</time>
      </trkpt>
      <trkpt lat="47.3113" lon="4.95264">
        <ele>476</ele>
        <time>2012-09-29T07:32:33Z</time>
      </trkpt>
      <trkpt lat="47.3113" lon="4.95272">
        <ele>478</ele>
        <time>2012-09-29T07:32:36Z</time>
      </trkpt>
      <trkpt lat="47.3113" lon="4.95281">
        <ele>478</ele>
        <time>2012-09-29T07:32:39Z</time>
      </trkpt>
      <trkpt lat="47.31131" lon="4.95289">
        <ele>477</ele>
        <time>2012-09-29T07:32:42Z</time>
      </trkpt>
      <trkpt lat="47.31133" lon="4.95296">
        <ele>478</ele>
        <time>2012-09-29T07:32:45Z</time>
      </trkpt>
      <trkpt lat="47.31136" lon="4.95304">
        <ele>477</ele>
        <time>2012-09-29T07:32:48Z</time>
      </trkpt>
      <trkpt lat="47.31139" lon="4.95314">
        <ele>473</ele>
        <time>2012-09-29T07:32:51Z</time>
      </trkpt>
      <trkpt lat="47.31138" lon="4.95322">
        <ele>471</ele>
        <time>2012-09-29T07:32:54Z</time>
      </trkpt>
      <trkpt lat="47.31134" lon="4.95329">
        <ele>469</ele>
        <time>2012-09-29T07:32:57Z</time>
      </trkpt>
      <trkpt lat="47.31132" lon="4.95336">
        <ele>466</ele>
        <time>2012-09-29T07:33:00Z</time>
      </trkpt>
      <trkpt lat="47.31131" lon="4.95343">
        <ele>463</ele>
        <time>2012-09-29T07:33:04Z</time>
      </trkpt>
      <trkpt lat="47.31129" lon="4.9535">
        <ele>463</ele>
        <time>2012-09-29T07:33:07Z</time>
      </trkpt>
      <trkpt lat="47.31125" lon="4.95355">
        <ele>463</ele>
        <time>2012-09-29T07:33:09Z</time>
      </trkpt>
      <trkpt lat="47.31122" lon="4.9536">
        <ele>462</ele>
        <time>2012-09-29T07:33:11Z</time>
      </trkpt>
      <trkpt lat="47.31118" lon="4.95366">
        <ele>462</ele>
        <time>2012-09-29T07:33:14Z</time>
      </trkpt>
      <trkpt lat="47.31115" lon="4.95372">
        <ele>463</ele>
        <time>2012-09-29T07:33:17Z</time>
      </trkpt>
      <trkpt lat="47.31111" lon="4.95377">
        <ele>463</ele>
        <time>2012-09-29T07:33:19Z</time>
      </trkpt>
      <trkpt lat="47.31107" lon="4.95381">
        <ele>463</ele>
        <time>2012-09-29T07:33:21Z</time>
      </trkpt>
      <trkpt lat="47.31102" lon="4.95387">
        <ele>463</ele>
        <time>2012-09-29T07:33:23Z</time>
      </trkpt>
      <trkpt lat="47.31096" lon="4.95388">
        <ele>464</ele>
        <time>2012-09-29T07:33:26Z</time>
      </trkpt>
      <trkpt lat="47.31089" lon="4.95388">
        <ele>463</ele>
        <time>2012-09-29T07:33:29Z</time>
      </trkpt>
      <trkpt lat="47.31083" lon="4.95387">
        <ele>464</ele>
        <time>2012-09-29T07:33:32Z</time>
      </trkpt>
      <trkpt lat="47.31077" lon="4.95384">
        <ele>465</ele>
        <time>2012-09-29T07:33:35Z</time>
      </trkpt>
      <trkpt lat="47.31073" lon="4.95378">
        <ele>464</ele>
        <time>2012-09-29T07:33:38Z</time>
      </trkpt>
      <trkpt lat="47.31069" lon="4.95372">
        <ele>465</ele>
        <time>2012-09-29T07:33:41Z</time>
      </trkpt>
      <trkpt lat="47.31065" lon="4.95368">
        <ele>465</ele>
        <time>2012-09-29T07:33:44Z</time>
      </trkpt>
      <trkpt lat="47.31062" lon="4.95362">
        <ele>465</ele>
        <time>2012-09-29T07:33:47Z</time>
      </trkpt>
      <trkpt lat="47.31058" lon="4.95354">
        <ele>465</ele>
        <time>2012-09-29T07:33:49Z</time>
      </trkpt>
      <trkpt lat="47.31054" lon="4.95348">
        <ele>465</ele>
        <time>2012-09-29T07:33:51Z</time>
      </trkpt>
      <trkpt lat="47.3105" lon="4.95342">
        <ele>467</ele>
        <time>2012-09-29T07:33:55Z</time>
      </trkpt>
      <trkpt lat="47.31048" lon="4.95334">
        <ele>466</ele>
        <time>2012-09-29T07:33:58Z</time>
      </trkpt>
      <trkpt lat="47.31044" lon="4.95325">
        <ele>466</ele>
        <time>2012-09-29T07:34:01Z</time>
      </trkpt>
      <trkpt lat="47.31042" lon="4.95317">
        <ele>466</ele>
        <time>2012-09-29T07:34:04Z</time>
      </trkpt>
      <trkpt lat="47.31041" lon="4.9531">
        <ele>465</ele>
        <time>2012-09-29T07:34:06Z</time>
      </trkpt>
      <trkpt lat="47.31037" lon="4.95305">
        <ele>468</ele>
        <time>2012-09-29T07:34:09Z</time>
      </trkpt>
      <trkpt lat="47.31035" lon="4.95299">
        <ele>468</ele>
        <time>2012-09-29T07:34:12Z</time>
      </trkpt>
      <trkpt lat="47.31033" lon="4.95292">
        <ele>468</ele>
        <time>2012-09-29T07:34:15Z</time>
      </trkpt>
      <trkpt lat="47.31029" lon="4.95286">
        <ele>468</ele>
        <time>2012-09-29T07:34:18Z</time>
      </trkpt>
      <trkpt lat="47.31026" lon="4.95278">
        <ele>467</ele>
        <time>2012-09-29T07:34:20Z</time>
      </trkpt>
      <trkpt lat="47.31025" lon="4.95269">
        <ele>467</ele>
        <time>2012-09-29T07:34:22Z</time>
      </trkpt>
      <trkpt lat="47.31022" lon="4.95263">
        <ele>467</ele>
        <time>2012-09-29T07:34:23Z</time>
      </trkpt>
      <trkpt lat="47.3102" lon="4.95257">
        <ele>467</ele>
        <time>2012-09-29T07:34:25Z</time>
      </trkpt>
      <trkpt lat="47.3102" lon="4.95249">
        <ele>468</ele>
        <time>2012-09-29T07:34:29Z</time>
      </trkpt>
      <trkpt lat="47.31021" lon="4.95241">
        <ele>468</ele>
        <time>2012-09-29T07:34:32Z</time>
      </trkpt>
      <trkpt lat="47.31019" lon="4.95233">
        <ele>467</ele>
        <time>2012-09-29T07:34:35Z</time>
      </trkpt>
      <trkpt lat="47.31018" lon="4.95224">
        <ele>464</ele>
        <time>2012-09-29T07:34:37Z</time>
      </trkpt>
      <trkpt lat="47.31014" lon="4.95218">
        <ele>463</ele>
        <time>2012-09-29T07:34:41Z</time>
      </trkpt>
      <trkpt lat="47.31011" lon="4.95211">
        <ele>465</ele>
        <time>2012-09-29T07:34:44Z</time>
      </trkpt>
      <trkpt lat="47.3101" lon="4.95204">
        <ele>464</ele>
        <time>2012-09-29T07:34:46Z</time>
      </trkpt>
      <trkpt lat="47.3101" lon="4.95197">
        <ele>463</ele>
        <time>2012-09-29T07:34:49Z</time>
      </trkpt>
      <trkpt lat="47.31009" lon="4.95188">
        <ele>461</ele>
        <time>2012-09-29T07:34:52Z</time>
      </trkpt>
      <trkpt lat="47.31004" lon="4.95181">
        <ele>461</ele>
        <time>2012-09-29T07:34:54Z</time>
      </trkpt>
      <trkpt lat="47.31" lon="4.95175">
        <ele>460</ele>
        <time>2012-09-29T07:34:56Z</time>
      </trkpt>
      <trkpt lat="47.30997" lon="4.9517">
        <ele>461</ele>
        <time>2012-09-29T07:34:58Z</time>
      </trkpt>
      <trkpt lat="47.30993" lon="4.95162">
        <ele>461</ele>
        <time>2012-09-29T07:35:00Z</time>
      </trkpt>
      <trkpt lat="47.30992" lon="4.95155">
        <ele>461</ele>
        <time>2012-09-29T07:35:02Z</time>
      </trkpt>
      <trkpt lat="47.30989" lon="4.95147">
        <ele>462</ele>
        <time>2012-09-29T07:35:04Z</time>
      </trkpt>
      <trkpt lat="47.30987" lon="4.95141">
        <ele>463</ele>
        <time>2012-09-29T07:35:06Z</time>
      </trkpt>
      <trkpt lat="47.30984" lon="4.95134">
        <ele>465</ele>
        <time>2012-09-29T07:35:09Z</time>
      </trkpt>
      <trkpt lat="47.30982" lon="4.95124">
        <ele>469</ele>
        <time>2012-09-29T07:35:12Z</time>
      </trkpt>
      <trkpt lat="47.30978" lon="4.95118">
        <ele>472</ele>
        <time>2012-09-29T07:35:15Z</time>
      </trkpt>
      <trkpt lat="47.30974" lon="4.95112">
        <ele>476</ele>
        <time>2012-09-29T07:35:18Z</time>
      </trkpt>
      <trkpt lat="47.30972" lon="4.95105">
        <ele>477</ele>
        <time>2012-09-29T07:35:21Z</time>
      </trkpt>
      <trkpt lat="47.3097" lon="4.95097">
        <ele>478</ele>
        <time>2012-09-29T07:35:24Z</time>
      </trkpt>
      <trkpt lat="47.30968" lon="4.95088">
        <ele>479</ele>
        <time>2012-09-29T07:35:27Z</time>
      </trkpt>
      <trkpt lat="47.30966" lon="4.95082">
        <ele>480</ele>
        <time>2012-09-29T07:35:30Z</time>
      </trkpt>
      <trkpt lat="47.30966" lon="4.95071">
        <ele>478</ele>
        <time>2012-09-29T07:35:33Z</time>
      </trkpt>
      <trkpt lat="47.30963" lon="4.95063">
        <ele>477</ele>
        <time>2012-09-29T07:35:35Z</time>
      </trkpt>
      <trkpt lat="47.30961" lon="4.95054">
        <ele>479</ele>
        <time>2012-09-29T07:35:38Z</time>
      </trkpt>
      <trkpt lat="47.30961" lon="4.95047">
        <ele>479</ele>
        <time>2012-09-29T07:35:40Z</time>
      </trkpt>
      <trkpt lat="47.3096" lon="4.95037">
        <ele>478</ele>
        <time>2012-09-29T07:35:43Z</time>
      </trkpt>
      <trkpt lat="47.30958" lon="4.95031">
        <ele>478</ele>
        <time>2012-09-29T07:35:45Z</time>
      </trkpt>
      <trkpt lat="47.30957" lon="4.95024">
        <ele>478</ele>
        <time>2012-09-29T07:35:47Z</time>
      </trkpt>
      <trkpt lat="47.30956" lon="4.95017">
        <ele>478</ele>
        <time>2012-09-29T07:35:49Z</time>
      </trkpt>
      <trkpt lat="47.30955" lon="4.95008">
        <ele>477</ele>
        <time>2012-09-29T07:35:51Z</time>
      </trkpt>
      <trkpt lat="47.30956" lon="4.95001">
        <ele>478</ele>
        <time>2012-09-29T07:35:53Z</time>
      </trkpt>
      <trkpt lat="47.30955" lon="4.94992">
        <ele>477</ele>
        <time>2012-09-29T07:35:56Z</time>
      </trkpt>
      <trkpt lat="47.30956" lon="4.94984">
        <ele>478</ele>
        <time>2012-09-29T07:35:58Z</time>
      </trkpt>
      <trkpt lat="47.30958" lon="4.94978">
        <ele>477</ele>
        <time>2012-09-29T07:36:00Z</time>
      </trkpt>
      <trkpt lat="47.30958" lon="4.9497">
        <ele>479</ele>
        <time>2012-09-29T07:36:04Z</time>
      </trkpt>
      <trkpt lat="47.30959" lon="4.94963">
        <ele>478</ele>
        <time>2012-09-29T07:36:06Z</time>
      </trkpt>
      <trkpt lat="47.3096" lon="4.94956">
        <ele>478</ele>
        <time>2012-09-29T07:36:08Z</time>
      </trkpt>
      <trkpt lat="47.30961" lon="4.94948">
        <ele>477</ele>
        <time>2012-09-29T07:36:10Z</time>
      </trkpt>
      <trkpt lat="47.30963" lon="4.9494">
        <ele>476</ele>
        <time>2012-09-29T07:36:12Z</time>
      </trkpt>
      <trkpt lat="47.30963" lon="4.94934">
        <ele>476</ele>
        <time>2012-09-29T07:36:14Z</time>
      </trkpt>
      <trkpt lat="47.30966" lon="4.94928">
        <ele>473</ele>
        <time>2012-09-29T07:36:17Z</time>
      </trkpt>
      <trkpt lat="47.30968" lon="4.9492">
        <ele>471</ele>
        <time>2012-09-29T07:36:20Z</time>
      </trkpt>
      <trkpt lat="47.3097" lon="4.94912">
        <ele>469</ele>
        <time>2012-09-29T07:36:23Z</time>
      </trkpt>
      <trkpt lat="47.30973" lon="4.94904">
        <ele>466</ele>
        <time>2012-09-29T07:36:26Z</time>
      </trkpt>
      <trkpt lat="47.30975" lon="4.94895">
        <ele>465</ele>
        <time>2012-09-29T07:36:29Z</time>
      </trkpt>
      <trkpt lat="47.30977" lon="4.94886">
        <ele>464</ele>
        <time>2012-09-29T07:36:32Z</time>
      </trkpt>
      <trkpt lat="47.30978" lon="4.94879">
        <ele>463</ele>
        <time>2012-09-29T07:36:34Z</time>
      </trkpt>
      <trkpt lat="47.3098" lon="4.94871">
        <ele>462</ele>
        <time>2012-09-29T07:36:37Z</time>
      </trkpt>
      <trkpt lat="47.30982" lon="4.94862">
        <ele>462</ele>
        <time>2012-09-29T07:36:40Z</time>
      </trkpt>
      <trkpt lat="47.30984" lon="4.94854">
        <ele>460</ele>
        <time>2012-09-29T07:36:43Z</time>
      </trkpt>
      <trkpt lat="47.30988" lon="4.94848">
        <ele>461</ele>
        <time>2012-09-29T07:36:45Z</time>
      </trkpt>
      <trkpt lat="47.30989" lon="4.94838">
        <ele>459</ele>
        <time>2012-09-29T07:36:48Z</time>
      </trkpt>
      <trkpt lat="47.30991" lon="4.94831">
        <ele>458</ele>
        <time>2012-09-29T07:36:51Z</time>
      </trkpt>
      <trkpt lat="47.3099" lon="4.94822">
        <ele>460</ele>
        <time>2012-09-29T07:36:54Z</time>
      </trkpt>
      <trkpt lat="47.30992" lon="4.94816">
        <ele>461</ele>
        <time>2012-09-29T07:36:57Z</time>
      </trkpt>
      <trkpt lat="47.30994" lon="4.94808">
        <ele>458</ele>
        <time>2012-09-29T07:37:02Z</time>
      </trkpt>
      <trkpt lat="47.30997" lon="4.948">
        <ele>457</ele>
        <time>2012-09-29T07:37:06Z</time>
      </trkpt>
      <trkpt lat="47.30998" lon="4.94794">
        <ele>457</ele>
        <time>2012-09-29T07:37:10Z</time>
      </trkpt>
      <trkpt lat="47.30999" lon="4.94784">
        <ele>457</ele>
        <time>2012-09-29T07:37:14Z</time>
      </trkpt>
      <trkpt lat="47.31001" lon="4.94778">
        <ele>456</ele>
        <time>2012-09-29T07:37:18Z</time>
      </trkpt>
      <trkpt lat="47.31" lon="4.9477">
        <ele>459</ele>
        <time>2012-09-29T07:37:23Z</time>
      </trkpt>
      <trkpt lat="47.30997" lon="4.94763">
        <ele>462</ele>
        <time>2012-09-29T07:37:28Z</time>
      </trkpt>
      <trkpt lat="47.30994" lon="4.94757">
        <ele>463</ele>
        <time>2012-09-29T07:37:35Z</time>
      </trkpt>
      <trkpt lat="47.3099" lon="4.94754">
        <ele>462</ele>
        <time>2012-09-29T07:37:46Z</time>
      </trkpt>
      <trkpt lat="47.30986" lon="4.94757">
        <ele>463</ele>
        <time>2012-09-29T07:37:51Z</time>
      </trkpt>
      <trkpt lat="47.30982" lon="4.94761">
        <ele>463</ele>
        <time>2012-09-29T07:37:56Z</time>
      </trkpt>
      <trkpt lat="47.30977" lon="4.94766">
        <ele>465</ele>
        <time>2012-09-29T07:38:00Z</time>
      </trkpt>
      <trkpt lat="47.30973" lon="4.94769">
        <ele>465</ele>
        <time>2012-09-29T07:38:04Z</time>
      </trkpt>
      <trkpt lat="47.30967" lon="4.94772">
        <ele>461</ele>
        <time>2012-09-29T07:38:13Z</time>
      </trkpt>
      <trkpt lat="47.30962" lon="4.94774">
        <ele>454</ele>
        <time>2012-09-29T07:39:49Z</time>
      </trkpt>
      <trkpt lat="47.3096" lon="4.9478">
        <ele>454</ele>
        <time>2012-09-29T07:39:53Z</time>
      </trkpt>
      <trkpt lat="47.30958" lon="4.94786">
        <ele>454</ele>
        <time>2012-09-29T07:39:56Z</time>
      </trkpt>
      <trkpt lat="47.3096" lon="4.94793">
        <ele>454</ele>
        <time>2012-09-29T07:40:00Z</time>
      </trkpt>
      <trkpt lat="47.30961" lon="4.948">
        <ele>454</ele>
        <time>2012-09-29T07:40:03Z</time>
      </trkpt>
      <trkpt lat="47.30958" lon="4.94808">
        <ele>453</ele>
        <time>2012-09-29T07:40:06Z</time>
      </trkpt>
      <trkpt lat="47.30955" lon="4.94814">
        <ele>452</ele>
        <time>2012-09-29T07:40:08Z</time>
      </trkpt>
      <trkpt lat="47.30953" lon="4.94821">
        <ele>452</ele>
        <time>2012-09-29T07:40:10Z</time>
      </trkpt>
      <trkpt lat="47.30949" lon="4.94826">
        <ele>452</ele>
        <time>2012-09-29T07:40:12Z</time>
      </trkpt>
      <trkpt lat="47.30947" lon="4.94832">
        <ele>453</ele>
        <time>2012-09-29T07:40:14Z</time>
      </trkpt>
      <trkpt lat="47.30944" lon="4.94841">
        <ele>452</ele>
        <time>2012-09-29T07:40:17Z</time>
      </trkpt>
      <trkpt lat="47.30941" lon="4.94847">
        <ele>452</ele>
        <time>2012-09-29T07:40:19Z</time>
      </trkpt>
      <trkpt lat="47.30941" lon="4.94855">
        <ele>453</ele>
        <time>2012-09-29T07:40:22Z</time>
      </trkpt>
      <trkpt lat="47.30938" lon="4.94862">
        <ele>455</ele>
        <time>2012-09-29T07:40:25Z</time>
      </trkpt>
      <trkpt lat="47.30934" lon="4.94868">
        <ele>455</ele>
        <time>2012-09-29T07:40:27Z</time>
      </trkpt>
      <trkpt lat="47.3093" lon="4.94876">
        <ele>454</ele>
        <time>2012-09-29T07:40:30Z</time>
      </trkpt>
      <trkpt lat="47.30928" lon="4.94884">
        <ele>454</ele>
        <time>2012-09-29T07:40:32Z</time>
      </trkpt>
      <trkpt lat="47.30925" lon="4.94891">
        <ele>454</ele>
        <time>2012-09-29T07:40:34Z</time>
      </trkpt>
      <trkpt lat="47.30922" lon="4.94898">
        <ele>454</ele>
        <time>2012-09-29T07:40:36Z</time>
      </trkpt>
      <trkpt lat="47.30921" lon="4.94905">
        <ele>454</ele>
        <time>2012-09-29T07:40:38Z</time>
      </trkpt>
      <trkpt lat="47.30919" lon="4.94914">
        <ele>455</ele>
        <time>2012-09-29T07:40:41Z</time>
      </trkpt>
      <trkpt lat="47.30918" lon="4.94922">
        <ele>456</ele>
        <time>2012-09-29T07:40:44Z</time>
      </trkpt>
      <trkpt lat="47.30917" lon="4.94929">
        <ele>456</ele>
        <time>2012-09-29T07:40:46Z</time>
      </trkpt>
      <trkpt lat="47.30917" lon="4.94937">
        <ele>456</ele>
        <time>2012-09-29T07:40:48Z</time>
      </trkpt>
      <trkpt lat="47.30914" lon="4.94945">
        <ele>455</ele>
        <time>2012-09-29T07:40:51Z</time>
      </trkpt>
      <trkpt lat="47.30912" lon="4.94954">
        <ele>456</ele>
        <time>2012-09-29T07:40:54Z</time>
      </trkpt>
      <trkpt lat="47.30911" lon="4.94961">
        <ele>457</ele>
        <time>2012-09-29T07:40:56Z</time>
      </trkpt>
      <trkpt lat="47.3091" lon="4.94968">
        <ele>456</ele>
        <time>2012-09-29T07:40:58Z</time>
      </trkpt>
      <trkpt lat="47.30906" lon="4.94978">
        <ele>454</ele>
        <time>2012-09-29T07:41:01Z</time>
      </trkpt>
      <trkpt lat="47.30905" lon="4.94985">
        <ele>454</ele>
        <time>2012-09-29T07:41:03Z</time>
      </trkpt>
      <trkpt lat="47.30905" lon="4.94992">
        <ele>455</ele>
        <time>2012-09-29T07:41:06Z</time>
      </trkpt>
      <trkpt lat="47.30906" lon="4.95003">
        <ele>456</ele>
        <time>2012-09-29T07:41:09Z</time>
      </trkpt>
      <trkpt lat="47.30903" lon="4.95008">
        <ele>457</ele>
        <time>2012-09-29T07:41:11Z</time>
      </trkpt>
      <trkpt lat="47.309" lon="4.95013">
        <ele>458</ele>
        <time>2012-09-29T07:41:13Z</time>
      </trkpt>
      <trkpt lat="47.309" lon="4.95022">
        <ele>459</ele>
        <time>2012-09-29T07:41:16Z</time>
      </trkpt>
      <trkpt lat="47.30902" lon="4.95029">
        <ele>458</ele>
        <time>2012-09-29T07:41:19Z</time>
      </trkpt>
      <trkpt lat="47.30903" lon="4.95035">
        <ele>457</ele>
        <time>2012-09-29T07:41:21Z</time>
      </trkpt>
      <trkpt lat="47.30905" lon="4.95041">
        <ele>456</ele>
        <time>2012-09-29T07:41:23Z</time>
      </trkpt>
      <trkpt lat="47.30905" lon="4.95049">
        <ele>455</ele>
        <time>2012-09-29T07:41:26Z</time>
      </trkpt>
      <trkpt lat="47.30904" lon="4.95059">
        <ele>454</ele>
        <time>2012-09-29T07:41:28Z</time>
      </trkpt>
      <trkpt lat="47.30905" lon="4.95071">
        <ele>455</ele>
        <time>2012-09-29T07:41:31Z</time>
      </trkpt>
      <trkpt lat="47.30907" lon="4.9508">
        <ele>454</ele>
        <time>2012-09-29T07:41:34Z</time>
      </trkpt>
      <trkpt lat="47.30908" lon="4.95088">
        <ele>454</ele>
        <time>2012-09-29T07:41:37Z</time>
      </trkpt>
      <trkpt lat="47.30909" lon="4.95098">
        <ele>454</ele>
        <time>2012-09-29T07:41:40Z</time>
      </trkpt>
      <trkpt lat="47.30911" lon="4.95106">
        <ele>453</ele>
        <time>2012-09-29T07:41:43Z</time>
      </trkpt>
      <trkpt lat="47.3091" lon="4.95113">
        <ele>454</ele>
        <time>2012-09-29T07:41:45Z</time>
      </trkpt>
      <trkpt lat="47.30913" lon="4.95121">
        <ele>453</ele>
        <time>2012-09-29T07:41:48Z</time>
      </trkpt>
      <trkpt lat="47.30912" lon="4.95129">
        <ele>453</ele>
        <time>2012-09-29T07:41:50Z</time>
      </trkpt>
      <trkpt lat="47.30914" lon="4.95138">
        <ele>454</ele>
        <time>2012-09-29T07:41:53Z</time>
      </trkpt>
      <trkpt lat="47.30919" lon="4.95135">
        <ele>458</ele>
        <time>2012-09-29T07:41:55Z</time>
      </trkpt>
      <trkpt lat="47.30924" lon="4.95131">
        <ele>457</ele>
        <time>2012-09-29T07:41:56Z</time>
      </trkpt>
      <trkpt lat="47.30928" lon="4.95135">
        <ele>454</ele>
        <time>2012-09-29T07:41:58Z</time>
      </trkpt>
      <trkpt lat="47.30929" lon="4.95142">
        <ele>454</ele>
        <time>2012-09-29T07:42:00Z</time>
      </trkpt>
      <trkpt lat="47.30928" lon="4.95151">
        <ele>453</ele>
        <time>2012-09-29T07:42:02Z</time>
      </trkpt>
      <trkpt lat="47.3093" lon="4.95159">
        <ele>453</ele>
        <time>2012-09-29T07:42:04Z</time>
      </trkpt>
      <trkpt lat="47.3093" lon="4.9517">
        <ele>453</ele>
        <time>2012-09-29T07:42:06Z</time>
      </trkpt>
      <trkpt lat="47.3093" lon="4.95177">
        <ele>453</ele>
        <time>2012-09-29T07:42:08Z</time>
      </trkpt>
      <trkpt lat="47.30928" lon="4.95186">
        <ele>453</ele>
        <time>2012-09-29T07:42:10Z</time>
      </trkpt>
      <trkpt lat="47.30928" lon="4.95193">
        <ele>453</ele>
        <time>2012-09-29T07:42:12Z</time>
      </trkpt>
      <trkpt lat="47.30927" lon="4.95202">
        <ele>451</ele>
        <time>2012-09-29T07:42:14Z</time>
      </trkpt>
      <trkpt lat="47.30928" lon="4.95209">
        <ele>452</ele>
        <time>2012-09-29T07:42:16Z</time>
      </trkpt>
      <trkpt lat="47.30928" lon="4.95219">
        <ele>451</ele>
        <time>2012-09-29T07:42:19Z</time>
      </trkpt>
      <trkpt lat="47.30928" lon="4.95226">
        <ele>451</ele>
        <time>2012-09-29T07:42:22Z</time>
      </trkpt>
      <trkpt lat="47.30928" lon="4.95237">
        <ele>452</ele>
        <time>2012-09-29T07:42:25Z</time>
      </trkpt>
      <trkpt lat="47.30929" lon="4.95245">
        <ele>452</ele>
        <time>2012-09-29T07:42:27Z</time>
      </trkpt>
      <trkpt lat="47.30931" lon="4.95256">
        <ele>451</ele>
        <time>2012-09-29T07:42:29Z</time>
      </trkpt>
      <trkpt lat="47.30931" lon="4.95264">
        <ele>449</ele>
        <time>2012-09-29T07:42:31Z</time>
      </trkpt>
      <trkpt lat="47.30932" lon="4.95272">
        <ele>447</ele>
        <time>2012-09-29T07:42:34Z</time>
      </trkpt>
      <trkpt lat="47.30932" lon="4.9528">
        <ele>447</ele>
        <time>2012-09-29T07:42:38Z</time>
      </trkpt>
      <trkpt lat="47.30933" lon="4.95286">
        <ele>447</ele>
        <time>2012-09-29T07:42:40Z</time>
      </trkpt>
      <trkpt lat="47.30933" lon="4.95294">
        <ele>446</ele>
        <time>2012-09-29T07:42:43Z</time>
      </trkpt>
      <trkpt lat="47.30934" lon="4.95301">
        <ele>446</ele>
        <time>2012-09-29T07:42:45Z</time>
      </trkpt>
      <trkpt lat="47.30934" lon="4.95308">
        <ele>445</ele>
        <time>2012-09-29T07:42:48Z</time>
      </trkpt>
      <trkpt lat="47.30935" lon="4.95318">
        <ele>445</ele>
        <time>2012-09-29T07:42:51Z</time>
      </trkpt>
      <trkpt lat="47.30936" lon="4.95327">
        <ele>443</ele>
        <time>2012-09-29T07:42:54Z</time>
      </trkpt>
      <trkpt lat="47.30936" lon="4.95334">
        <ele>443</ele>
        <time>2012-09-29T07:42:56Z</time>
      </trkpt>
      <trkpt lat="47.30938" lon="4.95342">
        <ele>442</ele>
        <time>2012-09-29T07:42:58Z</time>
      </trkpt>
      <trkpt lat="47.3094" lon="4.95349">
        <ele>441</ele>
        <time>2012-09-29T07:43:00Z</time>
      </trkpt>
      <trkpt lat="47.30942" lon="4.95356">
        <ele>439</ele>
        <time>2012-09-29T07:43:02Z</time>
      </trkpt>
      <trkpt lat="47.30944" lon="4.95365">
        <ele>437</ele>
        <time>2012-09-29T07:43:05Z</time>
      </trkpt>
      <trkpt lat="47.30944" lon="4.95373">
        <ele>438</ele>
        <time>2012-09-29T07:43:08Z</time>
      </trkpt>
      <trkpt lat="47.30943" lon="4.95381">
        <ele>437</ele>
        <time>2012-09-29T07:43:11Z</time>
      </trkpt>
      <trkpt lat="47.30944" lon="4.95388">
        <ele>437</ele>
        <time>2012-09-29T07:43:14Z</time>
      </trkpt>
      <trkpt lat="47.30948" lon="4.9539">
        <ele>439</ele>
        <time>2012-09-29T07:43:15Z</time>
      </trkpt>
      <trkpt lat="47.30953" lon="4.95391">
        <ele>441</ele>
        <time>2012-09-29T07:43:17Z</time>
      </trkpt>
      <trkpt lat="47.30956" lon="4.95399">
        <ele>439</ele>
        <time>2012-09-29T07:43:20Z</time>
      </trkpt>
      <trkpt lat="47.30955" lon="4.95406">
        <ele>439</ele>
        <time>2012-09-29T07:43:22Z</time>
      </trkpt>
      <trkpt lat="47.30955" lon="4.95414">
        <ele>439</ele>
        <time>2012-09-29T07:43:24Z</time>
      </trkpt>
      <trkpt lat="47.30955" lon="4.95421">
        <ele>438</ele>
        <time>2012-09-29T07:43:26Z</time>
      </trkpt>
      <trkpt lat="47.30957" lon="4.9543">
        <ele>437</ele>
        <time>2012-09-29T07:43:28Z</time>
      </trkpt>
      <trkpt lat="47.30959" lon="4.95437">
        <ele>437</ele>
        <time>2012-09-29T07:43:30Z</time>
      </trkpt>
      <trkpt lat="47.3096" lon="4.95444">
        <ele>435</ele>
        <time>2012-09-29T07:43:32Z</time>
      </trkpt>
      <trkpt lat="47.3096" lon="4.95452">
        <ele>434</ele>
        <time>2012-09-29T07:43:34Z</time>
      </trkpt>
      <trkpt lat="47.3096" lon="4.95459">
        <ele>433</ele>
        <time>2012-09-29T07:43:36Z</time>
      </trkpt>
      <trkpt lat="47.3096" lon="4.95467">
        <ele>435</ele>
        <time>2012-09-29T07:43:38Z</time>
      </trkpt>
      <trkpt lat="47.3096" lon="4.95476">
        <ele>434</ele>
        <time>2012-09-29T07:43:41Z</time>
      </trkpt>
      <trkpt lat="47.30969" lon="4.95472">
        <ele>432</ele>
        <time>2012-09-29T07:43:44Z</time>
      </trkpt>
      <trkpt lat="47.30974" lon="4.9547">
        <ele>430</ele>
        <time>2012-09-29T07:43:45Z</time>
      </trkpt>
      <trkpt lat="47.3098" lon="4.95472">
        <ele>429</ele>
        <time>2012-09-29T07:43:46Z</time>
      </trkpt>
      <trkpt lat="47.3099" lon="4.95477">
        <ele>426</ele>
        <time>2012-09-29T07:43:47Z</time>
      </trkpt>
      <trkpt lat="47.30995" lon="4.9548">
        <ele>426</ele>
        <time>2012-09-29T07:43:48Z</time>
      </trkpt>
      <trkpt lat="47.30992" lon="4.95492">
        <ele>427</ele>
        <time>2012-09-29T07:43:50Z</time>
      </trkpt>
      <trkpt lat="47.30991" lon="4.95498">
        <ele>427</ele>
        <time>2012-09-29T07:43:52Z</time>
      </trkpt>
      <trkpt lat="47.30997" lon="4.95484">
        <ele>423</ele>
        <time>2012-09-29T07:43:53Z</time>
      </trkpt>
      <trkpt lat="47.31005" lon="4.95483">
        <ele>422</ele>
        <time>2012-09-29T07:43:55Z</time>
      </trkpt>
      <trkpt lat="47.31012" lon="4.95488">
        <ele>423</ele>
        <time>2012-09-29T07:43:57Z</time>
      </trkpt>
      <trkpt lat="47.31016" lon="4.95491">
        <ele>422</ele>
        <time>2012-09-29T07:43:58Z</time>
      </trkpt>
      <trkpt lat="47.31013" lon="4.955">
        <ele>420</ele>
        <time>2012-09-29T07:43:59Z</time>
      </trkpt>
      <trkpt lat="47.3101" lon="4.95508">
        <ele>419</ele>
        <time>2012-09-29T07:44:00Z</time>
      </trkpt>
      <trkpt lat="47.31007" lon="4.95516">
        <ele>419</ele>
        <time>2012-09-29T07:44:01Z</time>
      </trkpt>
      <trkpt lat="47.31005" lon="4.95523">
        <ele>419</ele>
        <time>2012-09-29T07:44:02Z</time>
      </trkpt>
      <trkpt lat="47.31001" lon="4.95531">
        <ele>419</ele>
        <time>2012-09-29T07:44:04Z</time>
      </trkpt>
      <trkpt lat="47.30996" lon="4.9554">
        <ele>418</ele>
        <time>2012-09-29T07:44:06Z</time>
      </trkpt>
      <trkpt lat="47.30993" lon="4.95551">
        <ele>420</ele>
        <time>2012-09-29T07:44:08Z</time>
      </trkpt>
      <trkpt lat="47.30991" lon="4.95559">
        <ele>421</ele>
        <time>2012-09-29T07:44:10Z</time>
      </trkpt>
      <trkpt lat="47.30986" lon="4.95566">
        <ele>421</ele>
        <time>2012-09-29T07:44:12Z</time>
      </trkpt>
      <trkpt lat="47.30985" lon="4.95576">
        <ele>420</ele>
        <time>2012-09-29T07:44:15Z</time>
      </trkpt>
      <trkpt lat="47.30986" lon="4.95586">
        <ele>421</ele>
        <time>2012-09-29T07:44:17Z</time>
      </trkpt>
      <trkpt lat="47.30986" lon="4.95594">
        <ele>421</ele>
        <time>2012-09-29T07:44:19Z</time>
      </trkpt>
      <trkpt lat="47.30985" lon="4.95603">
        <ele>419</ele>
        <time>2012-09-29T07:44:22Z</time>
      </trkpt>
      <trkpt lat="47.30985" lon="4.9561">
        <ele>418</ele>
        <time>2012-09-29T07:44:25Z</time>
      </trkpt>
      <trkpt lat="47.30986" lon="4.95619">
        <ele>420</ele>
        <time>2012-09-29T07:44:27Z</time>
      </trkpt>
      <trkpt lat="47.30986" lon="4.95627">
        <ele>421</ele>
        <time>2012-09-29T07:44:29Z</time>
      </trkpt>
      <trkpt lat="47.30989" lon="4.95636">
        <ele>419</ele>
        <time>2012-09-29T07:44:32Z</time>
      </trkpt>
      <trkpt lat="47.3099" lon="4.95644">
        <ele>419</ele>
        <time>2012-09-29T07:44:34Z</time>
      </trkpt>
      <trkpt lat="47.30991" lon="4.95653">
        <ele>419</ele>
        <time>2012-09-29T07:44:37Z</time>
      </trkpt>
      <trkpt lat="47.30994" lon="4.9566">
        <ele>419</ele>
        <time>2012-09-29T07:44:40Z</time>
      </trkpt>
      <trkpt lat="47.30993" lon="4.95668">
        <ele>419</ele>
        <time>2012-09-29T07:44:43Z</time>
      </trkpt>
      <trkpt lat="47.30994" lon="4.95675">
        <ele>420</ele>
        <time>2012-09-29T07:44:46Z</time>
      </trkpt>
      <trkpt lat="47.30997" lon="4.95681">
        <ele>420</ele>
        <time>2012-09-29T07:44:49Z</time>
      </trkpt>
      <trkpt lat="47.30999" lon="4.95689">
        <ele>421</ele>
        <time>2012-09-29T07:44:51Z</time>
      </trkpt>
      <trkpt lat="47.31002" lon="4.957">
        <ele>422</ele>
        <time>2012-09-29T07:44:53Z</time>
      </trkpt>
      <trkpt lat="47.31003" lon="4.95706">
        <ele>421</ele>
        <time>2012-09-29T07:44:55Z</time>
      </trkpt>
      <trkpt lat="47.31007" lon="4.95712">
        <ele>421</ele>
        <time>2012-09-29T07:44:59Z</time>
      </trkpt>
      <trkpt lat="47.3101" lon="4.95719">
        <ele>423</ele>
        <time>2012-09-29T07:45:01Z</time>
      </trkpt>
      <trkpt lat="47.31013" lon="4.95727">
        <ele>424</ele>
        <time>2012-09-29T07:45:03Z</time>
      </trkpt>
      <trkpt lat="47.31014" lon="4.95738">
        <ele>425</ele>
        <time>2012-09-29T07:45:06Z</time>
      </trkpt>
      <trkpt lat="47.31016" lon="4.95744">
        <ele>424</ele>
        <time>2012-09-29T07:45:08Z</time>
      </trkpt>
      <trkpt lat="47.31017" lon="4.95754">
        <ele>421</ele>
        <time>2012-09-29T07:45:11Z</time>
      </trkpt>
      <trkpt lat="47.3102" lon="4.95761">
        <ele>417</ele>
        <time>2012-09-29T07:45:13Z</time>
      </trkpt>
      <trkpt lat="47.31022" lon="4.95768">
        <ele>417</ele>
        <time>2012-09-29T07:45:15Z</time>
      </trkpt>
      <trkpt lat="47.31024" lon="4.95774">
        <ele>417</ele>
        <time>2012-09-29T07:45:17Z</time>
      </trkpt>
      <trkpt lat="47.31028" lon="4.9578">
        <ele>415</ele>
        <time>2012-09-29T07:45:20Z</time>
      </trkpt>
      <trkpt lat="47.31033" lon="4.95788">
        <ele>416</ele>
        <time>2012-09-29T07:45:23Z</time>
      </trkpt>
      <trkpt lat="47.31036" lon="4.95796">
        <ele>414</ele>
        <time>2012-09-29T07:45:26Z</time>
      </trkpt>
      <trkpt lat="47.31035" lon="4.95802">
        <ele>413</ele>
        <time>2012-09-29T07:45:28Z</time>
      </trkpt>
      <trkpt lat="47.31035" lon="4.95813">
        <ele>412</ele>
        <time>2012-09-29T07:45:31Z</time>
      </trkpt>
      <trkpt lat="47.31036" lon="4.95821">
        <ele>413</ele>
        <time>2012-09-29T07:45:34Z</time>
      </trkpt>
      <trkpt lat="47.31036" lon="4.95829">
        <ele>413</ele>
        <time>2012-09-29T07:45:37Z</time>
      </trkpt>
      <trkpt lat="47.31037" lon="4.95836">
        <ele>412</ele>
        <time>2012-09-29T07:45:40Z</time>
      </trkpt>
      <trkpt lat="47.31037" lon="4.95845">
        <ele>411</ele>
        <time>2012-09-29T07:45:43Z</time>
      </trkpt>
      <trkpt lat="47.3104" lon="4.95855">
        <ele>410</ele>
        <time>2012-09-29T07:45:46Z</time>
      </trkpt>
      <trkpt lat="47.31042" lon="4.95863">
        <ele>409</ele>
        <time>2012-09-29T07:45:49Z</time>
      </trkpt>
      <trkpt lat="47.31044" lon="4.95869">
        <ele>408</ele>
        <time>2012-09-29T07:45:52Z</time>
      </trkpt>
      <trkpt lat="47.31044" lon="4.95879">
        <ele>409</ele>
        <time>2012-09-29T07:45:56Z</time>
      </trkpt>
      <trkpt lat="47.31046" lon="4.95885">
        <ele>409</ele>
        <time>2012-09-29T07:45:58Z</time>
      </trkpt>
      <trkpt lat="47.3105" lon="4.95892">
        <ele>410</ele>
        <time>2012-09-29T07:46:01Z</time>
      </trkpt>
      <trkpt lat="47.31052" lon="4.95899">
        <ele>409</ele>
        <time>2012-09-29T07:46:03Z</time>
      </trkpt>
      <trkpt lat="47.31056" lon="4.95909">
        <ele>410</ele>
        <time>2012-09-29T07:46:05Z</time>
      </trkpt>
      <trkpt lat="47.31057" lon="4.95915">
        <ele>411</ele>
        <time>2012-09-29T07:46:07Z</time>
      </trkpt>
      <trkpt lat="47.31058" lon="4.95923">
        <ele>412</ele>
        <time>2012-09-29T07:46:09Z</time>
      </trkpt>
      <trkpt lat="47.3106" lon="4.95931">
        <ele>413</ele>
        <time>2012-09-29T07:46:12Z</time>
      </trkpt>
      <trkpt lat="47.31061" lon="4.95937">
        <ele>412</ele>
        <time>2012-09-29T07:46:14Z</time>
      </trkpt>
      <trkpt lat="47.3106" lon="4.95945">
        <ele>413</ele>
        <time>2012-09-29T07:46:16Z</time>
      </trkpt>
      <trkpt lat="47.3106" lon="4.95953">
        <ele>412</ele>
        <time>2012-09-29T07:46:19Z</time>
      </trkpt>
      <trkpt lat="47.31064" lon="4.95962">
        <ele>412</ele>
        <time>2012-09-29T07:46:22Z</time>
      </trkpt>
      <trkpt lat="47.31063" lon="4.95971">
        <ele>411</ele>
        <time>2012-09-29T07:46:25Z</time>
      </trkpt>
      <trkpt lat="47.31064" lon="4.9598">
        <ele>411</ele>
        <time>2012-09-29T07:46:27Z</time>
      </trkpt>
      <trkpt lat="47.31063" lon="4.95988">
        <ele>412</ele>
        <time>2012-09-29T07:46:29Z</time>
      </trkpt>
      <trkpt lat="47.31063" lon="4.95996">
        <ele>414</ele>
        <time>2012-09-29T07:46:31Z</time>
      </trkpt>
      <trkpt lat="47.31065" lon="4.96002">
        <ele>414</ele>
        <time>2012-09-29T07:46:33Z</time>
      </trkpt>
      <trkpt lat="47.31063" lon="4.9601">
        <ele>413</ele>
        <time>2012-09-29T07:46:36Z</time>
      </trkpt>
      <trkpt lat="47.31063" lon="4.96019">
        <ele>411</ele>
        <time>2012-09-29T07:46:39Z</time>
      </trkpt>
      <trkpt lat="47.31063" lon="4.96028">
        <ele>411</ele>
        <time>2012-09-29T07:46:42Z</time>
      </trkpt>
      <trkpt lat="47.31063" lon="4.96035">
        <ele>410</ele>
        <time>2012-09-29T07:46:44Z</time>
      </trkpt>
      <trkpt lat="47.31062" lon="4.96044">
        <ele>409</ele>
        <time>2012-09-29T07:46:47Z</time>
      </trkpt>
      <trkpt lat="47.31062" lon="4.96053">
        <ele>408</ele>
        <time>2012-09-29T07:46:50Z</time>
      </trkpt>
      <trkpt lat="47.31062" lon="4.9606">
        <ele>410</ele>
        <time>2012-09-29T07:46:53Z</time>
      </trkpt>
      <trkpt lat="47.31062" lon="4.96067">
        <ele>411</ele>
        <time>2012-09-29T07:46:55Z</time>
      </trkpt>
      <trkpt lat="47.3106" lon="4.96074">
        <ele>408</ele>
        <time>2012-09-29T07:46:57Z</time>
      </trkpt>
      <trkpt lat="47.3106" lon="4.96083">
        <ele>408</ele>
        <time>2012-09-29T07:46:59Z</time>
      </trkpt>
      <trkpt lat="47.3106" lon="4.96091">
        <ele>408</ele>
        <time>2012-09-29T07:47:01Z</time>
      </trkpt>
      <trkpt lat="47.31059" lon="4.961">
        <ele>406</ele>
        <time>2012-09-29T07:47:04Z</time>
      </trkpt>
      <trkpt lat="47.31056" lon="4.96106">
        <ele>406</ele>
        <time>2012-09-29T07:47:06Z</time>
      </trkpt>
      <trkpt lat="47.31054" lon="4.96113">
        <ele>405</ele>
        <time>2012-09-29T07:47:08Z</time>
      </trkpt>
      <trkpt lat="47.31052" lon="4.9612">
        <ele>404</ele>
        <time>2012-09-29T07:47:10Z</time>
      </trkpt>
      <trkpt lat="47.31051" lon="4.96126">
        <ele>400</ele>
        <time>2012-09-29T07:47:12Z</time>
      </trkpt>
      <trkpt lat="47.31051" lon="4.96134">
        <ele>396</ele>
        <time>2012-09-29T07:47:14Z</time>
      </trkpt>
      <trkpt lat="47.31051" lon="4.96143">
        <ele>392</ele>
        <time>2012-09-29T07:47:17Z</time>
      </trkpt>
      <trkpt lat="47.31051" lon="4.96151">
        <ele>394</ele>
        <time>2012-09-29T07:47:19Z</time>
      </trkpt>
      <trkpt lat="47.31051" lon="4.96158">
        <ele>393</ele>
        <time>2012-09-29T07:47:22Z</time>
      </trkpt>
      <trkpt lat="47.31051" lon="4.96166">
        <ele>395</ele>
        <time>2012-09-29T07:47:25Z</time>
      </trkpt>
      <trkpt lat="47.31049" lon="4.96176">
        <ele>396</ele>
        <time>2012-09-29T07:47:28Z</time>
      </trkpt>
      <trkpt lat="47.31049" lon="4.96185">
        <ele>395</ele>
        <time>2012-09-29T07:47:31Z</time>
      </trkpt>
      <trkpt lat="47.3105" lon="4.96192">
        <ele>396</ele>
        <time>2012-09-29T07:47:34Z</time>
      </trkpt>
      <trkpt lat="47.3105" lon="4.962">
        <ele>396</ele>
        <time>2012-09-29T07:47:37Z</time>
      </trkpt>
      <trkpt lat="47.3105" lon="4.96208">
        <ele>396</ele>
        <time>2012-09-29T07:47:41Z</time>
      </trkpt>
      <trkpt lat="47.31053" lon="4.96214">
        <ele>396</ele>
        <time>2012-09-29T07:47:43Z</time>
      </trkpt>
      <trkpt lat="47.31055" lon="4.96221">
        <ele>396</ele>
        <time>2012-09-29T07:47:45Z</time>
      </trkpt>
      <trkpt lat="47.31056" lon="4.96231">
        <ele>397</ele>
        <time>2012-09-29T07:47:49Z</time>
      </trkpt>
      <trkpt lat="47.31057" lon="4.96239">
        <ele>398</ele>
        <time>2012-09-29T07:47:52Z</time>
      </trkpt>
      <trkpt lat="47.31058" lon="4.96246">
        <ele>397</ele>
        <time>2012-09-29T07:47:55Z</time>
      </trkpt>
      <trkpt lat="47.3106" lon="4.96253">
        <ele>397</ele>
        <time>2012-09-29T07:47:57Z</time>
      </trkpt>
      <trkpt lat="47.31064" lon="4.96261">
        <ele>397</ele>
        <time>2012-09-29T07:47:59Z</time>
      </trkpt>
      <trkpt lat="47.31065" lon="4.96268">
        <ele>397</ele>
        <time>2012-09-29T07:48:01Z</time>
      </trkpt>
      <trkpt lat="47.31067" lon="4.96275">
        <ele>397</ele>
        <time>2012-09-29T07:48:04Z</time>
      </trkpt>
      <trkpt lat="47.31072" lon="4.9628">
        <ele>396</ele>
        <time>2012-09-29T07:48:07Z</time>
      </trkpt>
      <trkpt lat="47.31076" lon="4.96285">
        <ele>394</ele>
        <time>2012-09-29T07:48:09Z</time>
      </trkpt>
      <trkpt lat="47.31081" lon="4.96288">
        <ele>393</ele>
        <time>2012-09-29T07:48:11Z</time>
      </trkpt>
      <trkpt lat="47.31085" lon="4.96293">
        <ele>394</ele>
        <time>2012-09-29T07:48:13Z</time>
      </trkpt>
      <trkpt lat="47.31087" lon="4.963">
        <ele>395</ele>
        <time>2012-09-29T07:48:17Z</time>
      </trkpt>
      <trkpt lat="47.31088" lon="4.96308">
        <ele>396</ele>
        <time>2012-09-29T07:48:21Z</time>
      </trkpt>
      <trkpt lat="47.31092" lon="4.96319">
        <ele>392</ele>
        <time>2012-09-29T07:48:24Z</time>
      </trkpt>
      <trkpt lat="47.31094" lon="4.96326">
        <ele>390</ele>
        <time>2012-09-29T07:48:26Z</time>
      </trkpt>
      <trkpt lat="47.31098" lon="4.96333">
        <ele>388</ele>
        <time>2012-09-29T07:48:28Z</time>
      </trkpt>
      <trkpt lat="47.31101" lon="4.96339">
        <ele>385</ele>
        <time>2012-09-29T07:48:30Z</time>
      </trkpt>
      <trkpt lat="47.31105" lon="4.96343">
        <ele>383</ele>
        <time>2012-09-29T07:48:32Z</time>
      </trkpt>
      <trkpt lat="47.31109" lon="4.96348">
        <ele>381</ele>
        <time>2012-09-29T07:48:35Z</time>
      </trkpt>
      <trkpt lat="47.31112" lon="4.96354">
        <ele>380</ele>
        <time>2012-09-29T07:48:37Z</time>
      </trkpt>
      <trkpt lat="47.31116" lon="4.96362">
        <ele>381</ele>
        <time>2012-09-29T07:48:39Z</time>
      </trkpt>
      <trkpt lat="47.31118" lon="4.9637">
        <ele>380</ele>
        <time>2012-09-29T07:48:42Z</time>
      </trkpt>
      <trkpt lat="47.31123" lon="4.96376">
        <ele>382</ele>
        <time>2012-09-29T07:48:45Z</time>
      </trkpt>
      <trkpt lat="47.31126" lon="4.96382">
        <ele>383</ele>
        <time>2012-09-29T07:48:47Z</time>
      </trkpt>
      <trkpt lat="47.31128" lon="4.9639">
        <ele>383</ele>
        <time>2012-09-29T07:48:50Z</time>
      </trkpt>
      <trkpt lat="47.3113" lon="4.96397">
        <ele>383</ele>
        <time>2012-09-29T07:48:53Z</time>
      </trkpt>
      <trkpt lat="47.31134" lon="4.96405">
        <ele>382</ele>
        <time>2012-09-29T07:48:56Z</time>
      </trkpt>
      <trkpt lat="47.31137" lon="4.96412">
        <ele>383</ele>
        <time>2012-09-29T07:48:59Z</time>
      </trkpt>
      <trkpt lat="47.3114" lon="4.96419">
        <ele>384</ele>
        <time>2012-09-29T07:49:01Z</time>
      </trkpt>
      <trkpt lat="47.31143" lon="4.96425">
        <ele>385</ele>
        <time>2012-09-29T07:49:03Z</time>
      </trkpt>
      <trkpt lat="47.31148" lon="4.96433">
        <ele>381</ele>
        <time>2012-09-29T07:49:06Z</time>
      </trkpt>
      <trkpt lat="47.3115" lon="4.96439">
        <ele>380</ele>
        <time>2012-09-29T07:49:08Z</time>
      </trkpt>
      <trkpt lat="47.31151" lon="4.96445">
        <ele>380</ele>
        <time>2012-09-29T07:49:10Z</time>
      </trkpt>
      <trkpt lat="47.31154" lon="4.96451">
        <ele>379</ele>
        <time>2012-09-29T07:49:12Z</time>
      </trkpt>
      <trkpt lat="47.31156" lon="4.96456">
        <ele>377</ele>
        <time>2012-09-29T07:49:14Z</time>
      </trkpt>
      <trkpt lat="47.31158" lon="4.96463">
        <ele>378</ele>
        <time>2012-09-29T07:49:17Z</time>
      </trkpt>
      <trkpt lat="47.3116" lon="4.9647">
        <ele>378</ele>
        <time>2012-09-29T07:49:20Z</time>
      </trkpt>
      <trkpt lat="47.31161" lon="4.96477">
        <ele>378</ele>
        <time>2012-09-29T07:49:23Z</time>
      </trkpt>
      <trkpt lat="47.31163" lon="4.96485">
        <ele>380</ele>
        <time>2012-09-29T07:49:27Z</time>
      </trkpt>
      <trkpt lat="47.31165" lon="4.96492">
        <ele>380</ele>
        <time>2012-09-29T07:49:29Z</time>
      </trkpt>
      <trkpt lat="47.31166" lon="4.96499">
        <ele>381</ele>
        <time>2012-09-29T07:49:31Z</time>
      </trkpt>
      <trkpt lat="47.31169" lon="4.96507">
        <ele>380</ele>
        <time>2012-09-29T07:49:34Z</time>
      </trkpt>
      <trkpt lat="47.3117" lon="4.96516">
        <ele>382</ele>
        <time>2012-09-29T07:49:37Z</time>
      </trkpt>
      <trkpt lat="47.31171" lon="4.96525">
        <ele>382</ele>
        <time>2012-09-29T07:49:40Z</time>
      </trkpt>
      <trkpt lat="47.31171" lon="4.96533">
        <ele>383</ele>
        <time>2012-09-29T07:49:42Z</time>
      </trkpt>
      <trkpt lat="47.3117" lon="4.9654">
        <ele>384</ele>
        <time>2012-09-29T07:49:44Z</time>
      </trkpt>
      <trkpt lat="47.31169" lon="4.96547">
        <ele>383</ele>
        <time>2012-09-29T07:49:46Z</time>
      </trkpt>
      <trkpt lat="47.31169" lon="4.96556">
        <ele>386</ele>
        <time>2012-09-29T07:49:49Z</time>
      </trkpt>
      <trkpt lat="47.31169" lon="4.96565">
        <ele>383</ele>
        <time>2012-09-29T07:49:52Z</time>
      </trkpt>
      <trkpt lat="47.31169" lon="4.96574">
        <ele>381</ele>
        <time>2012-09-29T07:49:54Z</time>
      </trkpt>
      <trkpt lat="47.31168" lon="4.96581">
        <ele>381</ele>
        <time>2012-09-29T07:49:57Z</time>
      </trkpt>
      <trkpt lat="47.3117" lon="4.96588">
        <ele>381</ele>
        <time>2012-09-29T07:49:59Z</time>
      </trkpt>
      <trkpt lat="47.31172" lon="4.96596">
        <ele>380</ele>
        <time>2012-09-29T07:50:01Z</time>
      </trkpt>
      <trkpt lat="47.31173" lon="4.96604">
        <ele>379</ele>
        <time>2012-09-29T07:50:04Z</time>
      </trkpt>
      <trkpt lat="47.31174" lon="4.96612">
        <ele>379</ele>
        <time>2012-09-29T07:50:07Z</time>
      </trkpt>
      <trkpt lat="47.31172" lon="4.9662">
        <ele>380</ele>
        <time>2012-09-29T07:50:10Z</time>
      </trkpt>
      <trkpt lat="47.31169" lon="4.96626">
        <ele>380</ele>
        <time>2012-09-29T07:50:13Z</time>
      </trkpt>
      <trkpt lat="47.31169" lon="4.96633">
        <ele>381</ele>
        <time>2012-09-29T07:50:16Z</time>
      </trkpt>
      <trkpt lat="47.31166" lon="4.9664">
        <ele>380</ele>
        <time>2012-09-29T07:50:17Z</time>
      </trkpt>
      <trkpt lat="47.31164" lon="4.96648">
        <ele>379</ele>
        <time>2012-09-29T07:50:19Z</time>
      </trkpt>
      <trkpt lat="47.3116" lon="4.96654">
        <ele>380</ele>
        <time>2012-09-29T07:50:21Z</time>
      </trkpt>
      <trkpt lat="47.3116" lon="4.96663">
        <ele>379</ele>
        <time>2012-09-29T07:50:23Z</time>
      </trkpt>
      <trkpt lat="47.31161" lon="4.96671">
        <ele>379</ele>
        <time>2012-09-29T07:50:26Z</time>
      </trkpt>
      <trkpt lat="47.31162" lon="4.96678">
        <ele>380</ele>
        <time>2012-09-29T07:50:29Z</time>
      </trkpt>
      <trkpt lat="47.31161" lon="4.96685">
        <ele>383</ele>
        <time>2012-09-29T07:50:33Z</time>
      </trkpt>
      <trkpt lat="47.31161" lon="4.96693">
        <ele>386</ele>
        <time>2012-09-29T07:50:37Z</time>
      </trkpt>
      <trkpt lat="47.31162" lon="4.96701">
        <ele>386</ele>
        <time>2012-09-29T07:50:40Z</time>
      </trkpt>
      <trkpt lat="47.31167" lon="4.9671">
        <ele>384</ele>
        <time>2012-09-29T07:50:42Z</time>
      </trkpt>
      <trkpt lat="47.3117" lon="4.96719">
        <ele>381</ele>
        <time>2012-09-29T07:50:44Z</time>
      </trkpt>
      <trkpt lat="47.31174" lon="4.96727">
        <ele>377</ele>
        <time>2012-09-29T07:50:46Z</time>
      </trkpt>
      <trkpt lat="47.31176" lon="4.96736">
        <ele>377</ele>
        <time>2012-09-29T07:50:51Z</time>
      </trkpt>
      <trkpt lat="47.31178" lon="4.96744">
        <ele>380</ele>
        <time>2012-09-29T07:50:54Z</time>
      </trkpt>
      <trkpt lat="47.31182" lon="4.96749">
        <ele>378</ele>
        <time>2012-09-29T07:50:56Z</time>
      </trkpt>
      <trkpt lat="47.31186" lon="4.96756">
        <ele>376</ele>
        <time>2012-09-29T07:50:58Z</time>
      </trkpt>
      <trkpt lat="47.31188" lon="4.96762">
        <ele>375</ele>
        <time>2012-09-29T07:51:00Z</time>
      </trkpt>
      <trkpt lat="47.31191" lon="4.9677">
        <ele>375</ele>
        <time>2012-09-29T07:51:03Z</time>
      </trkpt>
      <trkpt lat="47.31195" lon="4.96779">
        <ele>374</ele>
        <time>2012-09-29T07:51:06Z</time>
      </trkpt>
      <trkpt lat="47.31197" lon="4.96787">
        <ele>374</ele>
        <time>2012-09-29T07:51:09Z</time>
      </trkpt>
      <trkpt lat="47.31197" lon="4.96795">
        <ele>373</ele>
        <time>2012-09-29T07:51:11Z</time>
      </trkpt>
      <trkpt lat="47.31199" lon="4.968">
        <ele>371</ele>
        <time>2012-09-29T07:51:13Z</time>
      </trkpt>
      <trkpt lat="47.31204" lon="4.96808">
        <ele>370</ele>
        <time>2012-09-29T07:51:16Z</time>
      </trkpt>
      <trkpt lat="47.31208" lon="4.96816">
        <ele>370</ele>
        <time>2012-09-29T07:51:19Z</time>
      </trkpt>
      <trkpt lat="47.31213" lon="4.96821">
        <ele>369</ele>
        <time>2012-09-29T07:51:21Z</time>
      </trkpt>
      <trkpt lat="47.31218" lon="4.96826">
        <ele>369</ele>
        <time>2012-09-29T07:51:23Z</time>
      </trkpt>
      <trkpt lat="47.31222" lon="4.96829">
        <ele>369</ele>
        <time>2012-09-29T07:51:25Z</time>
      </trkpt>
      <trkpt lat="47.31228" lon="4.96834">
        <ele>369</ele>
        <time>2012-09-29T07:51:28Z</time>
      </trkpt>
      <trkpt lat="47.31233" lon="4.96838">
        <ele>368</ele>
        <time>2012-09-29T07:51:31Z</time>
      </trkpt>
      <trkpt lat="47.31237" lon="4.96843">
        <ele>370</ele>
        <time>2012-09-29T07:51:33Z</time>
      </trkpt>
      <trkpt lat="47.31241" lon="4.96846">
        <ele>370</ele>
        <time>2012-09-29T07:51:35Z</time>
      </trkpt>
      <trkpt lat="47.31246" lon="4.96849">
        <ele>370</ele>
        <time>2012-09-29T07:51:37Z</time>
      </trkpt>
      <trkpt lat="47.3125" lon="4.96855">
        <ele>368</ele>
        <time>2012-09-29T07:51:40Z</time>
      </trkpt>
      <trkpt lat="47.31255" lon="4.9686">
        <ele>365</ele>
        <time>2012-09-29T07:51:43Z</time>
      </trkpt>
      <trkpt lat="47.31259" lon="4.96864">
        <ele>365</ele>
        <time>2012-09-29T07:51:45Z</time>
      </trkpt>
      <trkpt lat="47.31263" lon="4.96867">
        <ele>366</ele>
        <time>2012-09-29T07:51:47Z</time>
      </trkpt>
      <trkpt lat="47.31268" lon="4.96873">
        <ele>364</ele>
        <time>2012-09-29T07:51:50Z</time>
      </trkpt>
      <trkpt lat="47.31273" lon="4.96878">
        <ele>364</ele>
        <time>2012-09-29T07:51:53Z</time>
      </trkpt>
      <trkpt lat="47.31278" lon="4.96884">
        <ele>364</ele>
        <time>2012-09-29T07:51:56Z</time>
      </trkpt>
      <trkpt lat="47.31283" lon="4.96888">
        <ele>363</ele>
        <time>2012-09-29T07:51:59Z</time>
      </trkpt>
      <trkpt lat="47.31288" lon="4.96894">
        <ele>365</ele>
        <time>2012-09-29T07:52:02Z</time>
      </trkpt>
      <trkpt lat="47.31293" lon="4.96899">
        <ele>367</ele>
        <time>2012-09-29T07:52:05Z</time>
      </trkpt>
      <trkpt lat="47.31298" lon="4.96904">
        <ele>368</ele>
        <time>2012-09-29T07:52:08Z</time>
      </trkpt>
      <trkpt lat="47.31304" lon="4.96909">
        <ele>368</ele>
        <time>2012-09-29T07:52:11Z</time>
      </trkpt>
      <trkpt lat="47.31308" lon="4.96914">
        <ele>367</ele>
        <time>2012-09-29T07:52:14Z</time>
      </trkpt>
      <trkpt lat="47.31313" lon="4.96919">
        <ele>368</ele>
        <time>2012-09-29T07:52:17Z</time>
      </trkpt>
      <trkpt lat="47.31317" lon="4.96924">
        <ele>369</ele>
        <time>2012-09-29T07:52:19Z</time>
      </trkpt>
      <trkpt lat="47.31322" lon="4.96928">
        <ele>370</ele>
        <time>2012-09-29T07:52:22Z</time>
      </trkpt>
      <trkpt lat="47.31326" lon="4.96933">
        <ele>369</ele>
        <time>2012-09-29T07:52:24Z</time>
      </trkpt>
      <trkpt lat="47.31331" lon="4.96939">
        <ele>369</ele>
        <time>2012-09-29T07:52:27Z</time>
      </trkpt>
      <trkpt lat="47.31336" lon="4.96945">
        <ele>369</ele>
        <time>2012-09-29T07:52:30Z</time>
      </trkpt>
      <trkpt lat="47.31339" lon="4.9695">
        <ele>370</ele>
        <time>2012-09-29T07:52:32Z</time>
      </trkpt>
      <trkpt lat="47.31344" lon="4.96955">
        <ele>369</ele>
        <time>2012-09-29T07:52:35Z</time>
      </trkpt>
      <trkpt lat="47.31347" lon="4.96962">
        <ele>370</ele>
        <time>2012-09-29T07:52:38Z</time>
      </trkpt>
      <trkpt lat="47.31351" lon="4.96969">
        <ele>369</ele>
        <time>2012-09-29T07:52:41Z</time>
      </trkpt>
      <trkpt lat="47.31356" lon="4.96973">
        <ele>368</ele>
        <time>2012-09-29T07:52:44Z</time>
      </trkpt>
      <trkpt lat="47.3136" lon="4.96978">
        <ele>365</ele>
        <time>2012-09-29T07:52:47Z</time>
      </trkpt>
      <trkpt lat="47.31365" lon="4.96983">
        <ele>364</ele>
        <time>2012-09-29T07:52:50Z</time>
      </trkpt>
      <trkpt lat="47.31368" lon="4.96989">
        <ele>364</ele>
        <time>2012-09-29T07:52:52Z</time>
      </trkpt>
      <trkpt lat="47.31372" lon="4.96993">
        <ele>364</ele>
        <time>2012-09-29T07:52:55Z</time>
      </trkpt>
      <trkpt lat="47.31375" lon="4.96998">
        <ele>363</ele>
        <time>2012-09-29T07:52:58Z</time>
      </trkpt>
      <trkpt lat="47.3138" lon="4.97004">
        <ele>363</ele>
        <time>2012-09-29T07:53:02Z</time>
      </trkpt>
      <trkpt lat="47.31383" lon="4.97011">
        <ele>362</ele>
        <time>2012-09-29T07:53:05Z</time>
      </trkpt>
      <trkpt lat="47.31386" lon="4.97018">
        <ele>362</ele>
        <time>2012-09-29T07:53:07Z</time>
      </trkpt>
      <trkpt lat="47.31389" lon="4.97022">
        <ele>362</ele>
        <time>2012-09-29T07:53:09Z</time>
      </trkpt>
      <trkpt lat="47.31393" lon="4.97025">
        <ele>363</ele>
        <time>2012-09-29T07:53:11Z</time>
      </trkpt>
      <trkpt lat="47.31397" lon="4.9703">
        <ele>364</ele>
        <time>2012-09-29T07:53:14Z</time>
      </trkpt>
      <trkpt lat="47.31403" lon="4.97036">
        <ele>365</ele>
        <time>2012-09-29T07:53:17Z</time>
      </trkpt>
      <trkpt lat="47.31404" lon="4.97043">
        <ele>366</ele>
        <time>2012-09-29T07:53:21Z</time>
      </trkpt>
      <trkpt lat="47.31408" lon="4.97049">
        <ele>368</ele>
        <time>2012-09-29T07:53:24Z</time>
      </trkpt>
      <trkpt lat="47.31411" lon="4.97055">
        <ele>370</ele>
        <time>2012-09-29T07:53:27Z</time>
      </trkpt>
      <trkpt lat="47.31413" lon="4.9706">
        <ele>371</ele>
        <time>2012-09-29T07:53:29Z</time>
      </trkpt>
      <trkpt lat="47.31418" lon="4.97067">
        <ele>373</ele>
        <time>2012-09-29T07:53:32Z</time>
      </trkpt>
      <trkpt lat="47.31421" lon="4.97073">
        <ele>373</ele>
        <time>2012-09-29T07:53:35Z</time>
      </trkpt>
      <trkpt lat="47.31425" lon="4.9708">
        <ele>376</ele>
        <time>2012-09-29T07:53:38Z</time>
      </trkpt>
      <trkpt lat="47.3143" lon="4.97085">
        <ele>378</ele>
        <time>2012-09-29T07:53:40Z</time>
      </trkpt>
      <trkpt lat="47.31433" lon="4.9709">
        <ele>379</ele>
        <time>2012-09-29T07:53:42Z</time>
      </trkpt>
      <trkpt lat="47.31436" lon="4.97095">
        <ele>379</ele>
        <time>2012-09-29T07:53:44Z</time>
      </trkpt>
      <trkpt lat="47.31441" lon="4.97103">
        <ele>379</ele>
        <time>2012-09-29T07:53:47Z</time>
      </trkpt>
      <trkpt lat="47.31447" lon="4.97106">
        <ele>374</ele>
        <time>2012-09-29T07:53:49Z</time>
      </trkpt>
      <trkpt lat="47.31451" lon="4.97109">
        <ele>371</ele>
        <time>2012-09-29T07:53:51Z</time>
      </trkpt>
      <trkpt lat="47.31456" lon="4.97116">
        <ele>370</ele>
        <time>2012-09-29T07:53:53Z</time>
      </trkpt>
      <trkpt lat="47.31461" lon="4.97123">
        <ele>374</ele>
        <time>2012-09-29T07:53:58Z</time>
      </trkpt>
      <trkpt lat="47.31466" lon="4.97125">
        <ele>371</ele>
        <time>2012-09-29T07:54:00Z</time>
      </trkpt>
      <trkpt lat="47.3147" lon="4.97129">
        <ele>369</ele>
        <time>2012-09-29T07:54:02Z</time>
      </trkpt>
      <trkpt lat="47.31474" lon="4.97136">
        <ele>370</ele>
        <time>2012-09-29T07:54:05Z</time>
      </trkpt>
      <trkpt lat="47.31478" lon="4.9714">
        <ele>372</ele>
        <time>2012-09-29T07:54:08Z</time>
      </trkpt>
      <trkpt lat="47.31482" lon="4.97146">
        <ele>374</ele>
        <time>2012-09-29T07:54:12Z</time>
      </trkpt>
      <trkpt lat="47.31488" lon="4.97151">
        <ele>376</ele>
        <time>2012-09-29T07:54:15Z</time>
      </trkpt>
      <trkpt lat="47.31492" lon="4.97154">
        <ele>374</ele>
        <time>2012-09-29T07:54:18Z</time>
      </trkpt>
      <trkpt lat="47.31498" lon="4.97158">
        <ele>371</ele>
        <time>2012-09-29T07:54:20Z</time>
      </trkpt>
      <trkpt lat="47.31502" lon="4.97162">
        <ele>368</ele>
        <time>2012-09-29T07:54:22Z</time>
      </trkpt>
      <trkpt lat="47.31507" lon="4.97167">
        <ele>369</ele>
        <time>2012-09-29T07:54:25Z</time>
      </trkpt>
      <trkpt lat="47.3151" lon="4.97172">
        <ele>372</ele>
        <time>2012-09-29T07:54:28Z</time>
      </trkpt>
      <trkpt lat="47.31515" lon="4.97175">
        <ele>374</ele>
        <time>2012-09-29T07:54:31Z</time>
      </trkpt>
      <trkpt lat="47.3152" lon="4.9718">
        <ele>376</ele>
        <time>2012-09-29T07:54:34Z</time>
      </trkpt>
      <trkpt lat="47.31524" lon="4.97184">
        <ele>376</ele>
        <time>2012-09-29T07:54:37Z</time>
      </trkpt>
      <trkpt lat="47.31529" lon="4.97189">
        <ele>375</ele>
        <time>2012-09-29T07:54:40Z</time>
      </trkpt>
      <trkpt lat="47.31535" lon="4.97195">
        <ele>378</ele>
        <time>2012-09-29T07:54:43Z</time>
      </trkpt>
      <trkpt lat="47.31541" lon="4.97198">
        <ele>378</ele>
        <time>2012-09-29T07:54:46Z</time>
      </trkpt>
      <trkpt lat="47.31545" lon="4.97201">
        <ele>378</ele>
        <time>2012-09-29T07:54:49Z</time>
      </trkpt>
      <trkpt lat="47.3155" lon="4.97203">
        <ele>379</ele>
        <time>2012-09-29T07:54:52Z</time>
      </trkpt>
      <trkpt lat="47.31554" lon="4.97206">
        <ele>380</ele>
        <time>2012-09-29T07:54:55Z</time>
      </trkpt>
      <trkpt lat="47.31559" lon="4.9721">
        <ele>381</ele>
        <time>2012-09-29T07:54:57Z</time>
      </trkpt>
      <trkpt lat="47.31564" lon="4.97211">
        <ele>381</ele>
        <time>2012-09-29T07:54:59Z</time>
      </trkpt>
      <trkpt lat="47.3157" lon="4.97214">
        <ele>381</ele>
        <time>2012-09-29T07:55:02Z</time>
      </trkpt>
      <trkpt lat="47.31574" lon="4.97217">
        <ele>381</ele>
        <time>2012-09-29T07:55:04Z</time>
      </trkpt>
      <trkpt lat="47.3158" lon="4.97221">
        <ele>382</ele>
        <time>2012-09-29T07:55:07Z</time>
      </trkpt>
      <trkpt lat="47.31584" lon="4.97223">
        <ele>382</ele>
        <time>2012-09-29T07:55:09Z</time>
      </trkpt>
      <trkpt lat="47.31588" lon="4.97226">
        <ele>382</ele>
        <time>2012-09-29T07:55:11Z</time>
      </trkpt>
      <trkpt lat="47.31593" lon="4.9723">
        <ele>381</ele>
        <time>2012-09-29T07:55:13Z</time>
      </trkpt>
      <trkpt lat="47.31597" lon="4.97234">
        <ele>381</ele>
        <time>2012-09-29T07:55:15Z</time>
      </trkpt>
      <trkpt lat="47.31602" lon="4.97234">
        <ele>382</ele>
        <time>2012-09-29T07:55:18Z</time>
      </trkpt>
      <trkpt lat="47.31607" lon="4.97236">
        <ele>382</ele>
        <time>2012-09-29T07:55:20Z</time>
      </trkpt>
      <trkpt lat="47.31613" lon="4.97239">
        <ele>386</ele>
        <time>2012-09-29T07:55:24Z</time>
      </trkpt>
      <trkpt lat="47.31618" lon="4.97241">
        <ele>388</ele>
        <time>2012-09-29T07:55:28Z</time>
      </trkpt>
      <trkpt lat="47.31622" lon="4.97243">
        <ele>388</ele>
        <time>2012-09-29T07:55:30Z</time>
      </trkpt>
      <trkpt lat="47.31628" lon="4.97244">
        <ele>389</ele>
        <time>2012-09-29T07:55:33Z</time>
      </trkpt>
      <trkpt lat="47.31634" lon="4.97247">
        <ele>388</ele>
        <time>2012-09-29T07:55:35Z</time>
      </trkpt>
      <trkpt lat="47.31639" lon="4.97249">
        <ele>386</ele>
        <time>2012-09-29T07:55:37Z</time>
      </trkpt>
      <trkpt lat="47.31643" lon="4.97252">
        <ele>384</ele>
        <time>2012-09-29T07:55:40Z</time>
      </trkpt>
      <trkpt lat="47.31648" lon="4.97254">
        <ele>382</ele>
        <time>2012-09-29T07:55:43Z</time>
      </trkpt>
      <trkpt lat="47.31652" lon="4.97257">
        <ele>382</ele>
        <time>2012-09-29T07:55:45Z</time>
      </trkpt>
      <trkpt lat="47.31656" lon="4.97259">
        <ele>382</ele>
        <time>2012-09-29T07:55:47Z</time>
      </trkpt>
      <trkpt lat="47.31662" lon="4.97263">
        <ele>380</ele>
        <time>2012-09-29T07:55:50Z</time>
      </trkpt>
      <trkpt lat="47.31667" lon="4.97265">
        <ele>380</ele>
        <time>2012-09-29T07:55:52Z</time>
      </trkpt>
      <trkpt lat="47.31672" lon="4.97269">
        <ele>379</ele>
        <time>2012-09-29T07:55:55Z</time>
      </trkpt>
      <trkpt lat="47.31677" lon="4.97273">
        <ele>379</ele>
        <time>2012-09-29T07:55:58Z</time>
      </trkpt>
      <trkpt lat="47.31682" lon="4.97276">
        <ele>379</ele>
        <time>2012-09-29T07:56:00Z</time>
      </trkpt>
      <trkpt lat="47.31685" lon="4.97283">
        <ele>378</ele>
        <time>2012-09-29T07:56:03Z</time>
      </trkpt>
      <trkpt lat="47.3169" lon="4.97288">
        <ele>378</ele>
        <time>2012-09-29T07:56:06Z</time>
      </trkpt>
      <trkpt lat="47.31696" lon="4.97292">
        <ele>378</ele>
        <time>2012-09-29T07:56:08Z</time>
      </trkpt>
      <trkpt lat="47.317" lon="4.97294">
        <ele>377</ele>
        <time>2012-09-29T07:56:11Z</time>
      </trkpt>
      <trkpt lat="47.31705" lon="4.97296">
        <ele>377</ele>
        <time>2012-09-29T07:56:14Z</time>
      </trkpt>
      <trkpt lat="47.3171" lon="4.97301">
        <ele>376</ele>
        <time>2012-09-29T07:56:17Z</time>
      </trkpt>
      <trkpt lat="47.31715" lon="4.97305">
        <ele>377</ele>
        <time>2012-09-29T07:56:20Z</time>
      </trkpt>
      <trkpt lat="47.31721" lon="4.97312">
        <ele>376</ele>
        <time>2012-09-29T07:56:22Z</time>
      </trkpt>
      <trkpt lat="47.31726" lon="4.97316">
        <ele>377</ele>
        <time>2012-09-29T07:56:25Z</time>
      </trkpt>
      <trkpt lat="47.3173" lon="4.97319">
        <ele>377</ele>
        <time>2012-09-29T07:56:27Z</time>
      </trkpt>
      <trkpt lat="47.31735" lon="4.97325">
        <ele>375</ele>
        <time>2012-09-29T07:56:30Z</time>
      </trkpt>
      <trkpt lat="47.31741" lon="4.97329">
        <ele>373</ele>
        <time>2012-09-29T07:56:33Z</time>
      </trkpt>
      <trkpt lat="47.31746" lon="4.97332">
        <ele>374</ele>
        <time>2012-09-29T07:56:36Z</time>
      </trkpt>
      <trkpt lat="47.31751" lon="4.97334">
        <ele>372</ele>
        <time>2012-09-29T07:56:39Z</time>
      </trkpt>
      <trkpt lat="47.31756" lon="4.97336">
        <ele>373</ele>
        <time>2012-09-29T07:56:43Z</time>
      </trkpt>
      <trkpt lat="47.31762" lon="4.97337">
        <ele>371</ele>
        <time>2012-09-29T07:56:45Z</time>
      </trkpt>
      <trkpt lat="47.31766" lon="4.97342">
        <ele>370</ele>
        <time>2012-09-29T07:56:48Z</time>
      </trkpt>
      <trkpt lat="47.31771" lon="4.97346">
        <ele>371</ele>
        <time>2012-09-29T07:56:51Z</time>
      </trkpt>
      <trkpt lat="47.31777" lon="4.97347">
        <ele>371</ele>
        <time>2012-09-29T07:56:54Z</time>
      </trkpt>
      <trkpt lat="47.31782" lon="4.97351">
        <ele>369</ele>
        <time>2012-09-29T07:56:57Z</time>
      </trkpt>
      <trkpt lat="47.31787" lon="4.97353">
        <ele>370</ele>
        <time>2012-09-29T07:57:00Z</time>
      </trkpt>
      <trkpt lat="47.31792" lon="4.97358">
        <ele>371</ele>
        <time>2012-09-29T07:57:02Z</time>
      </trkpt>
      <trkpt lat="47.31796" lon="4.97363">
        <ele>370</ele>
        <time>2012-09-29T07:57:05Z</time>
      </trkpt>
      <trkpt lat="47.31803" lon="4.97368">
        <ele>367</ele>
        <time>2012-09-29T07:57:08Z</time>
      </trkpt>
      <trkpt lat="47.31808" lon="4.97372">
        <ele>365</ele>
        <time>2012-09-29T07:57:10Z</time>
      </trkpt>
      <trkpt lat="47.31812" lon="4.97377">
        <ele>364</ele>
        <time>2012-09-29T07:57:13Z</time>
      </trkpt>
      <trkpt lat="47.31815" lon="4.97383">
        <ele>364</ele>
        <time>2012-09-29T07:57:16Z</time>
      </trkpt>
      <trkpt lat="47.31819" lon="4.9739">
        <ele>364</ele>
        <time>2012-09-29T07:57:20Z</time>
      </trkpt>
      <trkpt lat="47.31823" lon="4.97397">
        <ele>366</ele>
        <time>2012-09-29T07:57:23Z</time>
      </trkpt>
      <trkpt lat="47.31825" lon="4.97403">
        <ele>367</ele>
        <time>2012-09-29T07:57:25Z</time>
      </trkpt>
      <trkpt lat="47.31829" lon="4.9741">
        <ele>368</ele>
        <time>2012-09-29T07:57:28Z</time>
      </trkpt>
      <trkpt lat="47.31832" lon="4.97416">
        <ele>369</ele>
        <time>2012-09-29T07:57:31Z</time>
      </trkpt>
      <trkpt lat="47.31834" lon="4.97423">
        <ele>370</ele>
        <time>2012-09-29T07:57:33Z</time>
      </trkpt>
      <trkpt lat="47.31839" lon="4.97429">
        <ele>372</ele>
        <time>2012-09-29T07:57:35Z</time>
      </trkpt>
      <trkpt lat="47.31842" lon="4.97436">
        <ele>374</ele>
        <time>2012-09-29T07:57:38Z</time>
      </trkpt>
      <trkpt lat="47.31844" lon="4.97443">
        <ele>373</ele>
        <time>2012-09-29T07:57:41Z</time>
      </trkpt>
      <trkpt lat="47.31845" lon="4.97451">
        <ele>373</ele>
        <time>2012-09-29T07:57:44Z</time>
      </trkpt>
      <trkpt lat="47.31845" lon="4.97458">
        <ele>372</ele>
        <time>2012-09-29T07:57:46Z</time>
      </trkpt>
      <trkpt lat="47.31847" lon="4.97466">
        <ele>368</ele>
        <time>2012-09-29T07:57:49Z</time>
      </trkpt>
      <trkpt lat="47.3185" lon="4.97473">
        <ele>367</ele>
        <time>2012-09-29T07:57:52Z</time>
      </trkpt>
      <trkpt lat="47.31854" lon="4.97479">
        <ele>366</ele>
        <time>2012-09-29T07:57:55Z</time>
      </trkpt>
      <trkpt lat="47.31859" lon="4.97484">
        <ele>364</ele>
        <time>2012-09-29T07:57:57Z</time>
      </trkpt>
      <trkpt lat="47.31862" lon="4.9749">
        <ele>362</ele>
        <time>2012-09-29T07:57:59Z</time>
      </trkpt>
      <trkpt lat="47.31866" lon="4.97497">
        <ele>361</ele>
        <time>2012-09-29T07:58:02Z</time>
      </trkpt>
      <trkpt lat="47.31869" lon="4.97504">
        <ele>359</ele>
        <time>2012-09-29T07:58:05Z</time>
      </trkpt>
      <trkpt lat="47.31872" lon="4.9751">
        <ele>358</ele>
        <time>2012-09-29T07:58:07Z</time>
      </trkpt>
      <trkpt lat="47.31875" lon="4.97515">
        <ele>356</ele>
        <time>2012-09-29T07:58:10Z</time>
      </trkpt>
      <trkpt lat="47.3188" lon="4.97522">
        <ele>355</ele>
        <time>2012-09-29T07:58:13Z</time>
      </trkpt>
      <trkpt lat="47.31883" lon="4.97527">
        <ele>355</ele>
        <time>2012-09-29T07:58:15Z</time>
      </trkpt>
      <trkpt lat="47.31886" lon="4.97533">
        <ele>354</ele>
        <time>2012-09-29T07:58:18Z</time>
      </trkpt>
      <trkpt lat="47.31889" lon="4.97539">
        <ele>355</ele>
        <time>2012-09-29T07:58:21Z</time>
      </trkpt>
      <trkpt lat="47.31894" lon="4.97542">
        <ele>354</ele>
        <time>2012-09-29T07:58:23Z</time>
      </trkpt>
      <trkpt lat="47.31899" lon="4.97545">
        <ele>352</ele>
        <time>2012-09-29T07:58:26Z</time>
      </trkpt>
      <trkpt lat="47.31904" lon="4.97549">
        <ele>352</ele>
        <time>2012-09-29T07:58:29Z</time>
      </trkpt>
      <trkpt lat="47.31908" lon="4.97556">
        <ele>353</ele>
        <time>2012-09-29T07:58:32Z</time>
      </trkpt>
      <trkpt lat="47.31911" lon="4.97561">
        <ele>354</ele>
        <time>2012-09-29T07:58:35Z</time>
      </trkpt>
      <trkpt lat="47.31914" lon="4.97566">
        <ele>355</ele>
        <time>2012-09-29T07:58:38Z</time>
      </trkpt>
      <trkpt lat="47.31917" lon="4.97572">
        <ele>356</ele>
        <time>2012-09-29T07:58:40Z</time>
      </trkpt>
      <trkpt lat="47.31921" lon="4.97575">
        <ele>356</ele>
        <time>2012-09-29T07:58:42Z</time>
      </trkpt>
      <trkpt lat="47.31926" lon="4.97579">
        <ele>356</ele>
        <time>2012-09-29T07:58:45Z</time>
      </trkpt>
      <trkpt lat="47.31928" lon="4.97585">
        <ele>356</ele>
        <time>2012-09-29T07:58:47Z</time>
      </trkpt>
      <trkpt lat="47.3193" lon="4.97592">
        <ele>357</ele>
        <time>2012-09-29T07:58:53Z</time>
      </trkpt>
      <trkpt lat="47.31934" lon="4.97598">
        <ele>358</ele>
        <time>2012-09-29T07:58:55Z</time>
      </trkpt>
      <trkpt lat="47.31936" lon="4.97606">
        <ele>357</ele>
        <time>2012-09-29T07:58:57Z</time>
      </trkpt>
      <trkpt lat="47.31939" lon="4.97611">
        <ele>357</ele>
        <time>2012-09-29T07:59:00Z</time>
      </trkpt>
      <trkpt lat="47.31939" lon="4.9762">
        <ele>356</ele>
        <time>2012-09-29T07:59:04Z</time>
      </trkpt>
      <trkpt lat="47.31942" lon="4.97627">
        <ele>356</ele>
        <time>2012-09-29T07:59:07Z</time>
      </trkpt>
      <trkpt lat="47.31943" lon="4.97635">
        <ele>356</ele>
        <time>2012-09-29T07:59:11Z</time>
      </trkpt>
      <trkpt lat="47.31945" lon="4.97642">
        <ele>356</ele>
        <time>2012-09-29T07:59:13Z</time>
      </trkpt>
      <trkpt lat="47.31946" lon="4.97651">
        <ele>357</ele>
        <time>2012-09-29T07:59:15Z</time>
      </trkpt>
      <trkpt lat="47.31949" lon="4.97659">
        <ele>359</ele>
        <time>2012-09-29T07:59:17Z</time>
      </trkpt>
      <trkpt lat="47.31952" lon="4.97666">
        <ele>360</ele>
        <time>2012-09-29T07:59:20Z</time>
      </trkpt>
      <trkpt lat="47.31954" lon="4.97674">
        <ele>361</ele>
        <time>2012-09-29T07:59:22Z</time>
      </trkpt>
      <trkpt lat="47.31955" lon="4.9768">
        <ele>362</ele>
        <time>2012-09-29T07:59:24Z</time>
      </trkpt>
      <trkpt lat="47.31957" lon="4.97689">
        <ele>364</ele>
        <time>2012-09-29T07:59:27Z</time>
      </trkpt>
      <trkpt lat="47.31957" lon="4.97698">
        <ele>364</ele>
        <time>2012-09-29T07:59:30Z</time>
      </trkpt>
      <trkpt lat="47.31957" lon="4.97707">
        <ele>364</ele>
        <time>2012-09-29T07:59:33Z</time>
      </trkpt>
      <trkpt lat="47.31958" lon="4.97716">
        <ele>364</ele>
        <time>2012-09-29T07:59:37Z</time>
      </trkpt>
      <trkpt lat="47.3196" lon="4.97725">
        <ele>364</ele>
        <time>2012-09-29T07:59:40Z</time>
      </trkpt>
      <trkpt lat="47.31962" lon="4.97732">
        <ele>363</ele>
        <time>2012-09-29T07:59:42Z</time>
      </trkpt>
      <trkpt lat="47.31963" lon="4.97739">
        <ele>364</ele>
        <time>2012-09-29T07:59:44Z</time>
      </trkpt>
      <trkpt lat="47.31963" lon="4.97748">
        <ele>367</ele>
        <time>2012-09-29T07:59:47Z</time>
      </trkpt>
      <trkpt lat="47.31964" lon="4.97756">
        <ele>367</ele>
        <time>2012-09-29T07:59:50Z</time>
      </trkpt>
      <trkpt lat="47.31966" lon="4.97763">
        <ele>367</ele>
        <time>2012-09-29T07:59:53Z</time>
      </trkpt>
      <trkpt lat="47.31965" lon="4.9777">
        <ele>368</ele>
        <time>2012-09-29T07:59:55Z</time>
      </trkpt>
      <trkpt lat="47.31967" lon="4.97779">
        <ele>369</ele>
        <time>2012-09-29T07:59:58Z</time>
      </trkpt>
      <trkpt lat="47.31966" lon="4.97786">
        <ele>367</ele>
        <time>2012-09-29T08:00:01Z</time>
      </trkpt>
      <trkpt lat="47.31966" lon="4.97778">
        <ele>357</ele>
        <time>2012-09-29T08:00:20Z</time>
      </trkpt>
      <trkpt lat="47.31965" lon="4.97771">
        <ele>357</ele>
        <time>2012-09-29T08:00:23Z</time>
      </trkpt>
      <trkpt lat="47.31965" lon="4.97763">
        <ele>358</ele>
        <time>2012-09-29T08:00:26Z</time>
      </trkpt>
      <trkpt lat="47.31966" lon="4.97756">
        <ele>357</ele>
        <time>2012-09-29T08:00:29Z</time>
      </trkpt>
      <trkpt lat="47.31968" lon="4.97748">
        <ele>356</ele>
        <time>2012-09-29T08:00:33Z</time>
      </trkpt>
      <trkpt lat="47.31966" lon="4.9774">
        <ele>356</ele>
        <time>2012-09-29T08:00:37Z</time>
      </trkpt>
      <trkpt lat="47.31964" lon="4.97731">
        <ele>360</ele>
        <time>2012-09-29T08:00:42Z</time>
      </trkpt>
      <trkpt lat="47.31961" lon="4.97725">
        <ele>362</ele>
        <time>2012-09-29T08:00:45Z</time>
      </trkpt>
      <trkpt lat="47.31963" lon="4.97716">
        <ele>361</ele>
        <time>2012-09-29T08:00:48Z</time>
      </trkpt>
      <trkpt lat="47.3196" lon="4.97711">
        <ele>362</ele>
        <time>2012-09-29T08:00:52Z</time>
      </trkpt>
      <trkpt lat="47.31958" lon="4.97705">
        <ele>363</ele>
        <time>2012-09-29T08:00:55Z</time>
      </trkpt>
      <trkpt lat="47.31956" lon="4.97699">
        <ele>364</ele>
        <time>2012-09-29T08:00:58Z</time>
      </trkpt>
      <trkpt lat="47.31956" lon="4.9769">
        <ele>361</ele>
        <time>2012-09-29T08:01:01Z</time>
      </trkpt>
      <trkpt lat="47.31956" lon="4.97683">
        <ele>356</ele>
        <time>2012-09-29T08:01:04Z</time>
      </trkpt>
      <trkpt lat="47.31955" lon="4.97676">
        <ele>355</ele>
        <time>2012-09-29T08:01:08Z</time>
      </trkpt>
      <trkpt lat="47.31956" lon="4.97668">
        <ele>355</ele>
        <time>2012-09-29T08:01:12Z</time>
      </trkpt>
      <trkpt lat="47.31953" lon="4.97661">
        <ele>355</ele>
        <time>2012-09-29T08:01:15Z</time>
      </trkpt>
      <trkpt lat="47.3195" lon="4.97654">
        <ele>355</ele>
        <time>2012-09-29T08:01:18Z</time>
      </trkpt>
      <trkpt lat="47.31948" lon="4.97645">
        <ele>354</ele>
        <time>2012-09-29T08:01:21Z</time>
      </trkpt>
      <trkpt lat="47.31948" lon="4.97637">
        <ele>353</ele>
        <time>2012-09-29T08:01:24Z</time>
      </trkpt>
      <trkpt lat="47.31947" lon="4.97629">
        <ele>352</ele>
        <time>2012-09-29T08:01:28Z</time>
      </trkpt>
      <trkpt lat="47.31944" lon="4.97623">
        <ele>351</ele>
        <time>2012-09-29T08:01:31Z</time>
      </trkpt>
      <trkpt lat="47.31941" lon="4.97617">
        <ele>353</ele>
        <time>2012-09-29T08:01:34Z</time>
      </trkpt>
      <trkpt lat="47.31938" lon="4.97611">
        <ele>354</ele>
        <time>2012-09-29T08:01:37Z</time>
      </trkpt>
      <trkpt lat="47.31934" lon="4.97606">
        <ele>355</ele>
        <time>2012-09-29T08:01:40Z</time>
      </trkpt>
      <trkpt lat="47.3193" lon="4.97602">
        <ele>357</ele>
        <time>2012-09-29T08:01:43Z</time>
      </trkpt>
      <trkpt lat="47.31927" lon="4.97596">
        <ele>358</ele>
        <time>2012-09-29T08:01:46Z</time>
      </trkpt>
      <trkpt lat="47.31926" lon="4.97589">
        <ele>357</ele>
        <time>2012-09-29T08:01:50Z</time>
      </trkpt>
      <trkpt lat="47.31925" lon="4.97581">
        <ele>356</ele>
        <time>2012-09-29T08:01:54Z</time>
      </trkpt>
      <trkpt lat="47.31921" lon="4.97576">
        <ele>355</ele>
        <time>2012-09-29T08:01:58Z</time>
      </trkpt>
      <trkpt lat="47.31918" lon="4.97571">
        <ele>355</ele>
        <time>2012-09-29T08:02:01Z</time>
      </trkpt>
      <trkpt lat="47.31916" lon="4.97564">
        <ele>354</ele>
        <time>2012-09-29T08:02:04Z</time>
      </trkpt>
      <trkpt lat="47.31913" lon="4.97557">
        <ele>354</ele>
        <time>2012-09-29T08:02:08Z</time>
      </trkpt>
      <trkpt lat="47.31908" lon="4.97552">
        <ele>355</ele>
        <time>2012-09-29T08:02:13Z</time>
      </trkpt>
      <trkpt lat="47.31902" lon="4.97549">
        <ele>355</ele>
        <time>2012-09-29T08:02:15Z</time>
      </trkpt>
      <trkpt lat="47.31897" lon="4.97544">
        <ele>353</ele>
        <time>2012-09-29T08:02:18Z</time>
      </trkpt>
      <trkpt lat="47.31892" lon="4.97539">
        <ele>353</ele>
        <time>2012-09-29T08:02:21Z</time>
      </trkpt>
      <trkpt lat="47.31889" lon="4.97533">
        <ele>351</ele>
        <time>2012-09-29T08:02:24Z</time>
      </trkpt>
      <trkpt lat="47.31886" lon="4.97528">
        <ele>350</ele>
        <time>2012-09-29T08:02:27Z</time>
      </trkpt>
      <trkpt lat="47.31882" lon="4.97522">
        <ele>348</ele>
        <time>2012-09-29T08:02:31Z</time>
      </trkpt>
      <trkpt lat="47.31878" lon="4.97519">
        <ele>347</ele>
        <time>2012-09-29T08:02:33Z</time>
      </trkpt>
      <trkpt lat="47.31875" lon="4.97514">
        <ele>348</ele>
        <time>2012-09-29T08:02:35Z</time>
      </trkpt>
      <trkpt lat="47.3187" lon="4.9751">
        <ele>349</ele>
        <time>2012-09-29T08:02:38Z</time>
      </trkpt>
      <trkpt lat="47.31865" lon="4.97506">
        <ele>348</ele>
        <time>2012-09-29T08:02:41Z</time>
      </trkpt>
      <trkpt lat="47.31862" lon="4.97498">
        <ele>347</ele>
        <time>2012-09-29T08:02:45Z</time>
      </trkpt>
      <trkpt lat="47.31858" lon="4.97491">
        <ele>348</ele>
        <time>2012-09-29T08:02:48Z</time>
      </trkpt>
      <trkpt lat="47.31854" lon="4.97485">
        <ele>348</ele>
        <time>2012-09-29T08:02:51Z</time>
      </trkpt>
      <trkpt lat="47.3185" lon="4.97479">
        <ele>350</ele>
        <time>2012-09-29T08:02:54Z</time>
      </trkpt>
      <trkpt lat="47.31848" lon="4.97472">
        <ele>350</ele>
        <time>2012-09-29T08:02:57Z</time>
      </trkpt>
      <trkpt lat="47.31846" lon="4.97466">
        <ele>351</ele>
        <time>2012-09-29T08:03:01Z</time>
      </trkpt>
      <trkpt lat="47.31843" lon="4.9746">
        <ele>351</ele>
        <time>2012-09-29T08:03:04Z</time>
      </trkpt>
      <trkpt lat="47.31842" lon="4.97453">
        <ele>351</ele>
        <time>2012-09-29T08:03:07Z</time>
      </trkpt>
      <trkpt lat="47.31841" lon="4.97445">
        <ele>352</ele>
        <time>2012-09-29T08:03:10Z</time>
      </trkpt>
      <trkpt lat="47.3184" lon="4.97436">
        <ele>353</ele>
        <time>2012-09-29T08:03:13Z</time>
      </trkpt>
      <trkpt lat="47.31836" lon="4.97431">
        <ele>352</ele>
        <time>2012-09-29T08:03:15Z</time>
      </trkpt>
      <trkpt lat="47.31836" lon="4.97423">
        <ele>352</ele>
        <time>2012-09-29T08:03:19Z</time>
      </trkpt>
      <trkpt lat="47.31838" lon="4.97417">
        <ele>351</ele>
        <time>2012-09-29T08:03:21Z</time>
      </trkpt>
      <trkpt lat="47.31836" lon="4.9741">
        <ele>350</ele>
        <time>2012-09-29T08:03:24Z</time>
      </trkpt>
      <trkpt lat="47.31829" lon="4.97407">
        <ele>350</ele>
        <time>2012-09-29T08:03:27Z</time>
      </trkpt>
      <trkpt lat="47.31828" lon="4.97401">
        <ele>349</ele>
        <time>2012-09-29T08:03:30Z</time>
      </trkpt>
      <trkpt lat="47.31834" lon="4.97418">
        <ele>352</ele>
        <time>2012-09-29T08:03:44Z</time>
      </trkpt>
      <trkpt lat="47.3184" lon="4.97418">
        <ele>354</ele>
        <time>2012-09-29T08:03:47Z</time>
      </trkpt>
      <trkpt lat="47.3184" lon="4.97427">
        <ele>356</ele>
        <time>2012-09-29T08:03:50Z</time>
      </trkpt>
      <trkpt lat="47.31841" lon="4.97434">
        <ele>356</ele>
        <time>2012-09-29T08:03:52Z</time>
      </trkpt>
      <trkpt lat="47.31846" lon="4.9744">
        <ele>357</ele>
        <time>2012-09-29T08:03:55Z</time>
      </trkpt>
      <trkpt lat="47.31848" lon="4.97448">
        <ele>358</ele>
        <time>2012-09-29T08:03:59Z</time>
      </trkpt>
      <trkpt lat="47.31849" lon="4.97455">
        <ele>360</ele>
        <time>2012-09-29T08:04:03Z</time>
      </trkpt>
      <trkpt lat="47.3185" lon="4.97462">
        <ele>359</ele>
        <time>2012-09-29T08:04:07Z</time>
      </trkpt>
      <trkpt lat="47.31852" lon="4.97469">
        <ele>358</ele>
        <time>2012-09-29T08:04:11Z</time>
      </trkpt>
      <trkpt lat="47.31856" lon="4.97475">
        <ele>358</ele>
        <time>2012-09-29T08:04:13Z</time>
      </trkpt>
      <trkpt lat="47.31858" lon="4.97482">
        <ele>357</ele>
        <time>2012-09-29T08:04:16Z</time>
      </trkpt>
      <trkpt lat="47.3186" lon="4.9749">
        <ele>356</ele>
        <time>2012-09-29T08:04:18Z</time>
      </trkpt>
      <trkpt lat="47.31863" lon="4.97496">
        <ele>354</ele>
        <time>2012-09-29T08:04:20Z</time>
      </trkpt>
      <trkpt lat="47.31867" lon="4.97501">
        <ele>353</ele>
        <time>2012-09-29T08:04:22Z</time>
      </trkpt>
      <trkpt lat="47.31872" lon="4.97507">
        <ele>353</ele>
        <time>2012-09-29T08:04:25Z</time>
      </trkpt>
      <trkpt lat="47.31875" lon="4.97513">
        <ele>352</ele>
        <time>2012-09-29T08:04:28Z</time>
      </trkpt>
      <trkpt lat="47.3188" lon="4.97519">
        <ele>353</ele>
        <time>2012-09-29T08:04:31Z</time>
      </trkpt>
      <trkpt lat="47.31882" lon="4.97524">
        <ele>354</ele>
        <time>2012-09-29T08:04:34Z</time>
      </trkpt>
      <trkpt lat="47.31884" lon="4.97532">
        <ele>355</ele>
        <time>2012-09-29T08:04:37Z</time>
      </trkpt>
      <trkpt lat="47.31887" lon="4.97538">
        <ele>355</ele>
        <time>2012-09-29T08:04:40Z</time>
      </trkpt>
      <trkpt lat="47.31892" lon="4.97544">
        <ele>355</ele>
        <time>2012-09-29T08:04:43Z</time>
      </trkpt>
      <trkpt lat="47.31896" lon="4.97548">
        <ele>356</ele>
        <time>2012-09-29T08:04:45Z</time>
      </trkpt>
      <trkpt lat="47.31901" lon="4.97553">
        <ele>357</ele>
        <time>2012-09-29T08:04:49Z</time>
      </trkpt>
      <trkpt lat="47.31906" lon="4.97558">
        <ele>356</ele>
        <time>2012-09-29T08:04:52Z</time>
      </trkpt>
      <trkpt lat="47.31913" lon="4.97562">
        <ele>354</ele>
        <time>2012-09-29T08:04:56Z</time>
      </trkpt>
      <trkpt lat="47.31917" lon="4.97565">
        <ele>354</ele>
        <time>2012-09-29T08:04:58Z</time>
      </trkpt>
      <trkpt lat="47.31924" lon="4.97568">
        <ele>349</ele>
        <time>2012-09-29T08:05:01Z</time>
      </trkpt>
      <trkpt lat="47.31926" lon="4.97575">
        <ele>349</ele>
        <time>2012-09-29T08:05:04Z</time>
      </trkpt>
      <trkpt lat="47.31928" lon="4.97581">
        <ele>349</ele>
        <time>2012-09-29T08:05:07Z</time>
      </trkpt>
      <trkpt lat="47.3193" lon="4.97588">
        <ele>350</ele>
        <time>2012-09-29T08:05:10Z</time>
      </trkpt>
      <trkpt lat="47.31933" lon="4.97595">
        <ele>351</ele>
        <time>2012-09-29T08:05:12Z</time>
      </trkpt>
      <trkpt lat="47.31934" lon="4.97604">
        <ele>352</ele>
        <time>2012-09-29T08:05:14Z</time>
      </trkpt>
      <trkpt lat="47.31936" lon="4.97611">
        <ele>354</ele>
        <time>2012-09-29T08:05:17Z</time>
      </trkpt>
      <trkpt lat="47.31938" lon="4.9762">
        <ele>354</ele>
        <time>2012-09-29T08:05:22Z</time>
      </trkpt>
      <trkpt lat="47.3194" lon="4.97629">
        <ele>355</ele>
        <time>2012-09-29T08:05:25Z</time>
      </trkpt>
      <trkpt lat="47.3194" lon="4.97637">
        <ele>356</ele>
        <time>2012-09-29T08:05:28Z</time>
      </trkpt>
      <trkpt lat="47.31943" lon="4.97642">
        <ele>356</ele>
        <time>2012-09-29T08:05:31Z</time>
      </trkpt>
      <trkpt lat="47.31946" lon="4.97652">
        <ele>356</ele>
        <time>2012-09-29T08:05:34Z</time>
      </trkpt>
      <trkpt lat="47.31948" lon="4.97659">
        <ele>356</ele>
        <time>2012-09-29T08:05:36Z</time>
      </trkpt>
      <trkpt lat="47.31952" lon="4.97664">
        <ele>358</ele>
        <time>2012-09-29T08:05:38Z</time>
      </trkpt>
      <trkpt lat="47.31954" lon="4.97672">
        <ele>357</ele>
        <time>2012-09-29T08:05:41Z</time>
      </trkpt>
      <trkpt lat="47.31956" lon="4.97678">
        <ele>356</ele>
        <time>2012-09-29T08:05:43Z</time>
      </trkpt>
      <trkpt lat="47.31957" lon="4.97685">
        <ele>356</ele>
        <time>2012-09-29T08:05:45Z</time>
      </trkpt>
      <trkpt lat="47.3196" lon="4.97694">
        <ele>356</ele>
        <time>2012-09-29T08:05:49Z</time>
      </trkpt>
      <trkpt lat="47.31962" lon="4.977">
        <ele>355</ele>
        <time>2012-09-29T08:05:52Z</time>
      </trkpt>
      <trkpt lat="47.31964" lon="4.97708">
        <ele>356</ele>
        <time>2012-09-29T08:05:55Z</time>
      </trkpt>
      <trkpt lat="47.31966" lon="4.97713">
        <ele>355</ele>
        <time>2012-09-29T08:05:57Z</time>
      </trkpt>
      <trkpt lat="47.31968" lon="4.97721">
        <ele>355</ele>
        <time>2012-09-29T08:06:00Z</time>
      </trkpt>
      <trkpt lat="47.31968" lon="4.9773">
        <ele>355</ele>
        <time>2012-09-29T08:06:03Z</time>
      </trkpt>
      <trkpt lat="47.31967" lon="4.97738">
        <ele>357</ele>
        <time>2012-09-29T08:06:05Z</time>
      </trkpt>
      <trkpt lat="47.31967" lon="4.97746">
        <ele>357</ele>
        <time>2012-09-29T08:06:08Z</time>
      </trkpt>
      <trkpt lat="47.31966" lon="4.97755">
        <ele>360</ele>
        <time>2012-09-29T08:06:11Z</time>
      </trkpt>
      <trkpt lat="47.31966" lon="4.97763">
        <ele>360</ele>
        <time>2012-09-29T08:06:14Z</time>
      </trkpt>
      <trkpt lat="47.31969" lon="4.97771">
        <ele>362</ele>
        <time>2012-09-29T08:06:17Z</time>
      </trkpt>
      <trkpt lat="47.31969" lon="4.97779">
        <ele>361</ele>
        <time>2012-09-29T08:06:20Z</time>
      </trkpt>
      <trkpt lat="47.31971" lon="4.97787">
        <ele>362</ele>
        <time>2012-09-29T08:06:23Z</time>
      </trkpt>
      <trkpt lat="47.31972" lon="4.97795">
        <ele>363</ele>
        <time>2012-09-29T08:06:26Z</time>
      </trkpt>
      <trkpt lat="47.31974" lon="4.97802">
        <ele>361</ele>
        <time>2012-09-29T08:06:29Z</time>
      </trkpt>
      <trkpt lat="47.31977" lon="4.97808">
        <ele>359</ele>
        <time>2012-09-29T08:06:31Z</time>
      </trkpt>
      <trkpt lat="47.3198" lon="4.97816">
        <ele>358</ele>
        <time>2012-09-29T08:06:34Z</time>
      </trkpt>
      <trkpt lat="47.31983" lon="4.97824">
        <ele>352</ele>
        <time>2012-09-29T08:06:37Z</time>
      </trkpt>
      <trkpt lat="47.31986" lon="4.97833">
        <ele>348</ele>
        <time>2012-09-29T08:06:40Z</time>
      </trkpt>
      <trkpt lat="47.31988" lon="4.97841">
        <ele>343</ele>
        <time>2012-09-29T08:06:42Z</time>
      </trkpt>
      <trkpt lat="47.3199" lon="4.97847">
        <ele>341</ele>
        <time>2012-09-29T08:06:44Z</time>
      </trkpt>
      <trkpt lat="47.31991" lon="4.97856">
        <ele>340</ele>
        <time>2012-09-29T08:06:47Z</time>
      </trkpt>
      <trkpt lat="47.31992" lon="4.97863">
        <ele>338</ele>
        <time>2012-09-29T08:06:50Z</time>
      </trkpt>
      <trkpt lat="47.31994" lon="4.97872">
        <ele>337</ele>
        <time>2012-09-29T08:06:53Z</time>
      </trkpt>
      <trkpt lat="47.31996" lon="4.9788">
        <ele>336</ele>
        <time>2012-09-29T08:06:56Z</time>
      </trkpt>
      <trkpt lat="47.32" lon="4.97888">
        <ele>335</ele>
        <time>2012-09-29T08:06:59Z</time>
      </trkpt>
      <trkpt lat="47.32" lon="4.97897">
        <ele>337</ele>
        <time>2012-09-29T08:07:02Z</time>
      </trkpt>
      <trkpt lat="47.32002" lon="4.97905">
        <ele>338</ele>
        <time>2012-09-29T08:07:06Z</time>
      </trkpt>
      <trkpt lat="47.32006" lon="4.97911">
        <ele>339</ele>
        <time>2012-09-29T08:07:09Z</time>
      </trkpt>
      <trkpt lat="47.32007" lon="4.97919">
        <ele>338</ele>
        <time>2012-09-29T08:07:12Z</time>
      </trkpt>
      <trkpt lat="47.3201" lon="4.97927">
        <ele>338</ele>
        <time>2012-09-29T08:07:15Z</time>
      </trkpt>
      <trkpt lat="47.3201" lon="4.97935">
        <ele>336</ele>
        <time>2012-09-29T08:07:18Z</time>
      </trkpt>
      <trkpt lat="47.32012" lon="4.97941">
        <ele>338</ele>
        <time>2012-09-29T08:07:21Z</time>
      </trkpt>
      <trkpt lat="47.32015" lon="4.97947">
        <ele>339</ele>
        <time>2012-09-29T08:07:24Z</time>
      </trkpt>
      <trkpt lat="47.32015" lon="4.97954">
        <ele>337</ele>
        <time>2012-09-29T08:07:28Z</time>
      </trkpt>
      <trkpt lat="47.32016" lon="4.97962">
        <ele>336</ele>
        <time>2012-09-29T08:07:31Z</time>
      </trkpt>
      <trkpt lat="47.32018" lon="4.97969">
        <ele>336</ele>
        <time>2012-09-29T08:07:34Z</time>
      </trkpt>
      <trkpt lat="47.32022" lon="4.97977">
        <ele>335</ele>
        <time>2012-09-29T08:07:37Z</time>
      </trkpt>
      <trkpt lat="47.32023" lon="4.97983">
        <ele>335</ele>
        <time>2012-09-29T08:07:40Z</time>
      </trkpt>
      <trkpt lat="47.32024" lon="4.97991">
        <ele>334</ele>
        <time>2012-09-29T08:07:43Z</time>
      </trkpt>
      <trkpt lat="47.32028" lon="4.97996">
        <ele>333</ele>
        <time>2012-09-29T08:07:46Z</time>
      </trkpt>
      <trkpt lat="47.32032" lon="4.98003">
        <ele>334</ele>
        <time>2012-09-29T08:07:49Z</time>
      </trkpt>
      <trkpt lat="47.32036" lon="4.98009">
        <ele>335</ele>
        <time>2012-09-29T08:07:53Z</time>
      </trkpt>
      <trkpt lat="47.32038" lon="4.98014">
        <ele>335</ele>
        <time>2012-09-29T08:07:55Z</time>
      </trkpt>
      <trkpt lat="47.32042" lon="4.98019">
        <ele>336</ele>
        <time>2012-09-29T08:07:59Z</time>
      </trkpt>
      <trkpt lat="47.32044" lon="4.98025">
        <ele>335</ele>
        <time>2012-09-29T08:08:02Z</time>
      </trkpt>
      <trkpt lat="47.32047" lon="4.98033">
        <ele>334</ele>
        <time>2012-09-29T08:08:05Z</time>
      </trkpt>
      <trkpt lat="47.32053" lon="4.98041">
        <ele>333</ele>
        <time>2012-09-29T08:08:09Z</time>
      </trkpt>
      <trkpt lat="47.32056" lon="4.98047">
        <ele>332</ele>
        <time>2012-09-29T08:08:11Z</time>
      </trkpt>
      <trkpt lat="47.3206" lon="4.98053">
        <ele>334</ele>
        <time>2012-09-29T08:08:15Z</time>
      </trkpt>
      <trkpt lat="47.32062" lon="4.98059">
        <ele>334</ele>
        <time>2012-09-29T08:08:18Z</time>
      </trkpt>
      <trkpt lat="47.32066" lon="4.98065">
        <ele>335</ele>
        <time>2012-09-29T08:08:22Z</time>
      </trkpt>
      <trkpt lat="47.32068" lon="4.98071">
        <ele>336</ele>
        <time>2012-09-29T08:08:25Z</time>
      </trkpt>
      <trkpt lat="47.32072" lon="4.98079">
        <ele>336</ele>
        <time>2012-09-29T08:08:28Z</time>
      </trkpt>
      <trkpt lat="47.32074" lon="4.98086">
        <ele>335</ele>
        <time>2012-09-29T08:08:32Z</time>
      </trkpt>
      <trkpt lat="47.3208" lon="4.98094">
        <ele>335</ele>
        <time>2012-09-29T08:08:35Z</time>
      </trkpt>
      <trkpt lat="47.32082" lon="4.98102">
        <ele>335</ele>
        <time>2012-09-29T08:08:38Z</time>
      </trkpt>
      <trkpt lat="47.32086" lon="4.98108">
        <ele>335</ele>
        <time>2012-09-29T08:08:42Z</time>
      </trkpt>
      <trkpt lat="47.3209" lon="4.98114">
        <ele>334</ele>
        <time>2012-09-29T08:08:46Z</time>
      </trkpt>
      <trkpt lat="47.32093" lon="4.98121">
        <ele>332</ele>
        <time>2012-09-29T08:08:56Z</time>
      </trkpt>
      <trkpt lat="47.32092" lon="4.98128">
        <ele>327</ele>
        <time>2012-09-29T08:09:24Z</time>
      </trkpt>
      <trkpt lat="47.32092" lon="4.98128">
        <ele>327</ele>
        <time>2012-09-29T08:09:24Z</time>
      </trkpt>
      <trkpt lat="47.32092" lon="4.98128">
        <ele>325</ele>
        <time>2012-09-29T08:09:50Z</time>
      </trkpt>
      <trkpt lat="47.32094" lon="4.98134">
        <ele>325</ele>
        <time>2012-09-29T08:09:58Z</time>
      </trkpt>
      <trkpt lat="47.32096" lon="4.9814">
        <ele>326</ele>
        <time>2012-09-29T08:10:06Z</time>
      </trkpt>
      <trkpt lat="47.32098" lon="4.98147">
        <ele>326</ele>
        <time>2012-09-29T08:10:13Z</time>
      </trkpt>
      <trkpt lat="47.321" lon="4.98154">
        <ele>325</ele>
        <time>2012-09-29T08:10:22Z</time>
      </trkpt>
      <trkpt lat="47.32103" lon="4.98159">
        <ele>324</ele>
        <time>2012-09-29T08:10:46Z</time>
      </trkpt>
      <trkpt lat="47.321" lon="4.98153">
        <ele>325</ele>
        <time>2012-09-29T08:10:57Z</time>
      </trkpt>
      <trkpt lat="47.32096" lon="4.98148">
        <ele>326</ele>
        <time>2012-09-29T08:11:01Z</time>
      </trkpt>
      <trkpt lat="47.32091" lon="4.98145">
        <ele>331</ele>
        <time>2012-09-29T08:11:10Z</time>
      </trkpt>
      <trkpt lat="47.32095" lon="4.9814">
        <ele>330</ele>
        <time>2012-09-29T08:11:14Z</time>
      </trkpt>
      <trkpt lat="47.32095" lon="4.9814">
        <ele>330</ele>
        <time>2012-09-29T08:11:14Z</time>
      </trkpt>
      <trkpt lat="47.32095" lon="4.9814">
        <ele>330</ele>
        <time>2012-09-29T08:11:15Z</time>
      </trkpt>
      <trkpt lat="47.32098" lon="4.98136">
        <ele>332</ele>
        <time>2012-09-29T08:11:22Z</time>
      </trkpt>
      <trkpt lat="47.32098" lon="4.98136">
        <ele>332</ele>
        <time>2012-09-29T08:11:22Z</time>
      </trkpt>
      <trkpt lat="47.32098" lon="4.98136">
        <ele>331</ele>
        <time>2012-09-29T08:18:06Z</time>
      </trkpt>
      <trkpt lat="47.32101" lon="4.98142">
        <ele>327</ele>
        <time>2012-09-29T08:20:40Z</time>
      </trkpt>
      <trkpt lat="47.32103" lon="4.9815">
        <ele>328</ele>
        <time>2012-09-29T08:20:45Z</time>
      </trkpt>
      <trkpt lat="47.32106" lon="4.98156">
        <ele>329</ele>
        <time>2012-09-29T08:20:50Z</time>
      </trkpt>
      <trkpt lat="47.32109" lon="4.98161">
        <ele>327</ele>
        <time>2012-09-29T08:20:54Z</time>
      </trkpt>
      <trkpt lat="47.3211" lon="4.98169">
        <ele>328</ele>
        <time>2012-09-29T08:21:00Z</time>
      </trkpt>
      <trkpt lat="47.32112" lon="4.98174">
        <ele>329</ele>
        <time>2012-09-29T08:21:03Z</time>
      </trkpt>
      <trkpt lat="47.32114" lon="4.98181">
        <ele>328</ele>
        <time>2012-09-29T08:21:07Z</time>
      </trkpt>
      <trkpt lat="47.32116" lon="4.98187">
        <ele>326</ele>
        <time>2012-09-29T08:21:10Z</time>
      </trkpt>
      <trkpt lat="47.32117" lon="4.98194">
        <ele>326</ele>
        <time>2012-09-29T08:21:14Z</time>
      </trkpt>
      <trkpt lat="47.3212" lon="4.98199">
        <ele>323</ele>
        <time>2012-09-29T08:21:20Z</time>
      </trkpt>
      <trkpt lat="47.32125" lon="4.98203">
        <ele>323</ele>
        <time>2012-09-29T08:21:24Z</time>
      </trkpt>
      <trkpt lat="47.32127" lon="4.98208">
        <ele>323</ele>
        <time>2012-09-29T08:21:28Z</time>
      </trkpt>
      <trkpt lat="47.32132" lon="4.98209">
        <ele>322</ele>
        <time>2012-09-29T08:21:32Z</time>
      </trkpt>
      <trkpt lat="47.32138" lon="4.98212">
        <ele>321</ele>
        <time>2012-09-29T08:21:36Z</time>
      </trkpt>
      <trkpt lat="47.32141" lon="4.98218">
        <ele>320</ele>
        <time>2012-09-29T08:21:41Z</time>
      </trkpt>
      <trkpt lat="47.32146" lon="4.98224">
        <ele>322</ele>
        <time>2012-09-29T08:21:46Z</time>
      </trkpt>
      <trkpt lat="47.32148" lon="4.9823">
        <ele>324</ele>
        <time>2012-09-29T08:21:52Z</time>
      </trkpt>
    </trkseg>
  </trk>
</gpx>